[[{"header":{"parameterUnit":"m.s-1","parameterCategory":1,"la1":30.6,"la2":29.2853,"lo1":-89.7004,"lo2":-87.6739,"dy":0.0162,"dx":0.0183,"nx":112,"ny":82,"refTime":"2023-08-06T06:00:00:Z","depth":0,"parameterNumber":2,"parameterNumberName":"U-component_of_WINDS"},"data":[0.0,0.0,0.0,0.0,0.0,0.0,0.0,0.0,0.0,0.0,0.0,0.0,0.0,0.0,0.0,0.0,0.0,0.0,0.0,0.0,0.0,0.0,0.0,0.0,0.0,0.0,0.0,0.0,0.0,0.0,0.0,0.0,0.0,0.0,0.0,0.0,0.0,0.0,0.0,0.0,0.0,0.0,0.0,0.0,0.0,0.0,0.0,0.0,0.0,0.0,0.0,0.0,0.0,0.0,0.0,0.0,0.0,0.0,0.0,0.0,0.0,0.0,0.0,0.0,0.0,0.0,0.0,0.0,0.0,0.0,0.0,0.0,0.0,0.0,0.0,0.0,0.0,0.0,0.0,0.0,0.0,0.0,0.0,0.0,0.0,0.0,0.0,0.0,0.0,0.0,-1.1452,-1.2374,-1.3968,-1.441,-1.2931,-1.3169,-1.2708,-1.1001,0.0,0.0,0.0,0.0,0.0,0.0,0.0,0.0,0.0,0.0,0.0,0.0,0.0,0.0,0.0,0.0,0.0,0.0,0.0,0.0,0.0,0.0,0.0,0.0,0.0,0.0,0.0,0.0,0.0,0.0,0.0,0.0,0.0,0.0,0.0,0.0,0.0,0.0,0.0,0.0,0.0,0.0,0.0,0.0,0.0,0.0,0.0,0.0,0.0,0.0,0.0,0.0,0.0,0.0,0.0,0.0,0.0,0.0,0.0,0.0,0.0,0.0,0.0,0.0,0.0,0.0,0.0,0.0,0.0,0.0,0.0,0.0,0.0,0.0,0.0,0.0,0.0,0.0,0.0,0.0,0.0,0.0,0.0,0.0,0.0,0.0,0.0,0.0,0.0,0.0,0.0,0.0,0.0,0.0,0.0,0.0,0.0,0.0,0.0,0.0,0.0,0.0,0.0,0.0,-1.3532,-1.5699,-1.5413,-1.4399,-1.3131,-1.2779,-1.1475,-0.8505,0.0,0.0,0.0,0.0,0.0,0.0,0.0,0.0,0.0,0.0,0.0,0.0,0.0,0.0,0.0,0.0,0.0,0.0,0.0,0.0,0.0,0.0,0.0,0.0,0.0,0.0,0.0,0.0,0.0,0.0,0.0,0.0,0.0,0.0,0.0,0.0,0.0,0.0,0.0,0.0,0.0,0.0,0.0,0.0,0.0,0.0,0.0,0.0,0.0,0.0,0.0,0.0,0.0,0.0,0.0,0.0,0.0,0.0,0.0,0.0,0.0,0.0,0.0,0.0,0.0,0.0,0.0,0.0,0.0,0.0,0.0,0.0,0.0,0.0,0.0,0.0,0.0,0.0,0.0,0.0,0.0,0.0,0.0,0.0,0.0,0.0,0.0,0.0,0.0,0.0,0.0,0.0,0.0,0.0,0.0,0.0,0.0,0.0,0.0,0.0,0.0,0.0,0.0,-1.282,-1.4011,-1.5357,-1.4562,-1.3341,-1.1981,-1.0871,-0.957,-0.7822,-0.8824,0.0,0.0,0.0,0.0,0.0,0.0,0.0,0.0,0.0,0.0,0.0,0.0,0.0,0.0,0.0,0.0,0.0,0.0,0.0,0.0,0.0,0.0,0.0,0.0,0.0,0.0,0.0,0.0,0.0,0.0,0.0,0.0,0.0,0.0,0.0,0.0,0.0,0.0,0.0,0.0,0.0,0.0,0.0,0.0,0.0,0.0,0.0,0.0,0.0,0.0,0.0,0.0,0.0,0.0,0.0,0.0,0.0,0.0,0.0,0.0,0.0,0.0,0.0,0.0,0.0,0.0,0.0,0.0,0.0,0.0,0.0,0.0,0.0,0.0,0.0,0.0,0.0,0.0,0.0,0.0,0.0,0.0,0.0,0.0,0.0,0.0,0.0,0.0,0.0,0.0,0.0,0.0,0.0,0.0,0.0,0.0,0.0,0.0,0.0,0.0,0.0,0.0,-1.3909,-1.4423,-1.4483,-1.3545,-1.2307,-1.0906,-0.9145,-0.7997,-0.7624,-0.7421,0.0,0.0,0.0,0.0,0.0,0.0,0.0,0.0,0.0,0.0,0.0,0.0,0.0,0.0,0.0,0.0,0.0,0.0,0.0,0.0,0.0,0.0,0.0,0.0,0.0,0.0,0.0,0.0,0.0,0.0,0.0,0.0,0.0,0.0,0.0,0.0,0.0,0.0,0.0,0.0,0.0,0.0,0.0,0.0,0.0,0.0,0.0,0.0,0.0,0.0,0.0,0.0,0.0,0.0,0.0,0.0,0.0,0.0,0.0,0.0,0.0,0.0,0.0,0.0,0.0,0.0,0.0,0.0,0.0,0.0,0.0,0.0,0.0,0.0,0.0,0.0,0.0,0.0,0.0,0.0,0.0,0.0,0.0,0.0,0.0,0.0,0.0,0.0,0.0,0.0,0.0,0.0,0.0,0.0,0.0,0.0,0.0,0.0,0.0,0.0,0.0,0.0,-1.5179,-1.5338,-1.4457,-1.3297,-1.2025,-1.0526,-0.8795,-0.7773,-0.7611,-0.7319,0.0,0.0,0.0,0.0,0.0,0.0,0.0,0.0,0.0,0.0,0.0,0.0,0.0,0.0,0.0,0.0,0.0,0.0,0.0,0.0,0.0,0.0,0.0,0.0,0.0,0.0,0.0,0.0,0.0,0.0,0.0,0.0,0.0,0.0,0.0,0.0,0.0,0.0,0.0,0.0,0.0,0.0,0.0,0.0,0.0,0.0,0.0,0.0,0.0,0.0,0.0,0.0,0.0,0.0,0.0,0.0,0.0,0.0,0.0,0.0,0.0,0.0,0.0,0.0,0.0,0.0,0.0,0.0,0.0,0.0,0.0,0.0,0.0,0.0,0.0,0.0,0.0,0.0,0.0,0.0,0.0,0.0,0.0,0.0,0.0,0.0,0.0,0.0,0.0,0.0,0.0,0.0,0.0,0.0,0.0,0.0,0.0,0.0,0.0,0.0,0.0,0.0,-1.5177,-1.5747,0.0,-1.3657,-1.2264,-1.1683,-0.9351,-0.7814,-0.7482,0.0,0.0,0.0,0.0,0.0,0.0,0.0,0.0,0.0,0.0,0.0,0.0,0.0,0.0,0.0,0.0,0.0,0.0,0.0,0.0,0.0,0.0,0.0,0.0,0.0,0.0,0.0,0.0,0.0,0.0,0.0,0.0,0.0,0.0,0.0,0.0,0.0,0.0,0.0,0.0,0.0,0.0,0.0,0.0,0.0,0.0,0.0,0.0,0.0,0.0,0.0,0.0,0.0,0.0,0.0,0.0,0.0,0.0,0.0,0.0,0.0,0.0,0.0,0.0,0.0,0.0,0.0,0.0,0.0,0.0,0.0,0.0,0.0,0.0,0.0,0.0,0.0,0.0,0.0,0.0,0.0,0.0,0.0,0.0,0.0,0.0,0.0,0.0,0.0,0.0,0.0,0.0,0.0,0.0,0.0,0.0,0.0,0.0,0.0,0.0,0.0,0.0,-1.4082,-1.4734,-1.5121,0.0,-1.2964,-1.1477,-1.1079,-0.9037,-0.7719,-0.7461,0.0,0.0,0.0,0.0,0.0,0.0,0.0,0.0,0.0,0.0,0.0,0.0,0.0,0.0,0.0,0.0,0.0,0.0,0.0,0.0,0.0,0.0,0.0,0.0,0.0,0.0,0.0,0.0,0.0,0.0,0.0,0.0,0.0,0.0,0.0,0.0,0.0,0.0,0.0,0.0,0.0,0.0,0.0,0.0,0.0,0.0,0.0,0.0,0.0,0.0,0.0,0.0,0.0,0.0,0.0,0.0,0.0,0.0,0.0,0.0,0.0,0.0,0.0,0.0,0.0,0.0,0.0,0.0,0.0,0.0,0.0,0.0,0.0,0.0,0.0,0.0,0.0,0.0,0.0,0.0,0.0,0.0,0.0,0.0,0.0,0.0,0.0,0.0,0.0,0.0,0.0,0.0,0.0,0.0,0.0,0.0,0.0,0.0,0.0,0.0,0.0,0.0,-1.4082,-1.3994,-1.3392,-1.2047,-1.0779,-0.9509,-0.8137,-0.7631,-0.7441,0.0,0.0,0.0,0.0,0.0,0.0,0.0,0.0,0.0,0.0,0.0,0.0,0.0,0.0,0.0,0.0,0.0,0.0,0.0,0.0,0.0,0.0,0.0,0.0,0.0,0.0,0.0,0.0,0.0,0.0,0.0,0.0,0.0,0.0,0.0,0.0,0.0,0.0,0.0,0.0,0.0,0.0,0.0,0.0,0.0,0.0,0.0,0.0,0.0,0.0,0.0,0.0,0.0,0.0,0.0,0.0,0.0,0.0,0.0,0.0,0.0,0.0,0.0,0.0,0.0,0.0,0.0,0.0,0.0,0.0,0.0,0.0,0.0,0.0,0.0,0.0,0.0,0.0,0.0,0.0,0.0,0.0,0.0,0.0,0.0,0.0,0.0,0.0,0.0,0.0,0.0,0.0,0.0,0.0,0.0,0.0,0.0,0.0,0.0,0.0,0.0,0.0,0.0,-1.4024,-1.4734,-1.5045,-1.4663,-1.2619,-1.117,-1.0779,-0.8868,-0.7658,-0.7604,0.0,0.0,0.0,0.0,0.0,0.0,0.0,0.0,0.0,0.0,0.0,0.0,0.0,0.0,0.0,0.0,0.0,0.0,0.0,0.0,0.0,0.0,0.0,0.0,0.0,0.0,0.0,0.0,0.0,0.0,0.0,0.0,0.0,0.0,0.0,0.0,0.0,0.0,0.0,0.0,0.0,0.0,0.0,0.0,0.0,0.0,0.0,0.0,0.0,0.0,0.0,0.0,0.0,0.0,0.0,0.0,0.0,0.0,0.0,0.0,0.0,0.0,0.0,0.0,0.0,0.0,0.0,0.0,0.0,0.0,0.0,0.0,0.0,0.0,0.0,0.0,0.0,0.0,0.0,0.0,0.0,0.0,0.0,0.0,0.0,0.0,0.0,0.0,0.0,0.0,0.0,0.0,0.0,0.0,0.0,0.0,0.0,0.0,0.0,0.0,0.0,0.0,-1.4196,-1.4708,-1.5045,-1.5045,-1.2716,-1.117,-1.117,-0.8995,-0.7692,-0.7604,0.0,0.0,0.0,0.0,0.0,0.0,0.0,0.0,0.0,0.0,0.0,0.0,0.0,0.0,0.0,0.0,0.0,0.0,0.0,0.0,0.0,0.0,0.0,0.0,0.0,0.0,0.0,0.0,0.0,0.0,0.0,0.0,0.0,0.0,0.0,0.0,0.0,0.0,0.0,0.0,0.0,0.0,0.0,0.0,0.0,0.0,0.0,0.0,0.0,0.0,0.0,0.0,0.0,0.0,0.0,0.0,0.0,0.0,0.0,0.0,0.0,0.0,0.0,0.0,0.0,0.0,0.0,0.0,0.0,0.0,0.0,0.0,0.0,0.0,0.0,0.0,0.0,0.0,0.0,0.0,0.0,0.0,0.0,0.0,0.0,0.0,0.0,0.0,0.0,0.0,0.0,0.0,0.0,0.0,0.0,0.0,0.0,0.0,0.0,0.0,0.0,0.0,-1.4522,-1.4247,-1.4064,-1.4064,-1.1745,-1.019,-1.019,-0.8638,-0.7611,-0.7597,0.0,0.0,0.0,0.0,0.0,0.0,0.0,0.0,0.0,0.0,0.0,0.0,0.0,0.0,0.0,0.0,0.0,0.0,0.0,0.0,0.0,0.0,0.0,0.0,0.0,0.0,0.0,0.0,0.0,0.0,0.0,0.0,0.0,0.0,0.0,0.0,0.0,0.0,0.0,0.0,0.0,0.0,0.0,0.0,0.0,0.0,0.0,0.0,0.0,0.0,0.0,0.0,0.0,0.0,0.0,0.0,0.0,0.0,0.0,0.0,-1.2725,0.0,0.0,0.0,0.0,0.0,0.0,0.0,0.0,0.0,0.0,0.0,0.0,0.0,0.0,0.0,0.0,0.0,0.0,0.0,0.0,0.0,0.0,0.0,0.0,0.0,0.0,0.0,0.0,0.0,0.0,0.0,0.0,0.0,0.0,0.0,0.0,0.0,0.0,0.0,0.0,0.0,-1.4488,-1.5009,-1.5439,-1.5439,-1.3017,-1.1463,-1.1463,-0.9212,-0.7719,-0.7604,-0.7455,0.0,0.0,0.0,0.0,0.0,0.0,0.0,0.0,0.0,0.0,0.0,0.0,0.0,0.0,0.0,0.0,0.0,0.0,0.0,0.0,0.0,0.0,0.0,0.0,0.0,0.0,0.0,0.0,0.0,0.0,0.0,0.0,0.0,0.0,0.0,0.0,0.0,0.0,0.0,0.0,0.0,0.0,0.0,0.0,0.0,0.0,0.0,0.0,0.0,0.0,0.0,0.0,0.0,0.0,0.0,0.0,0.0,0.0,0.0,0.0,-1.216,0.0,0.0,0.0,0.0,0.0,0.0,0.0,0.0,0.0,0.0,0.0,0.0,0.0,0.0,0.0,0.0,0.0,0.0,0.0,0.0,0.0,0.0,0.0,0.0,0.0,0.0,0.0,0.0,0.0,0.0,0.0,0.0,0.0,0.0,0.0,0.0,0.0,0.0,0.0,0.0,-1.5073,-1.5551,-1.5885,-1.6032,-1.4267,-1.2747,-1.196,-1.0095,-0.8624,-0.7712,-0.7563,0.0,0.0,0.0,0.0,0.0,0.0,0.0,0.0,0.0,0.0,0.0,0.0,0.0,0.0,0.0,0.0,0.0,0.0,0.0,0.0,0.0,0.0,0.0,0.0,0.0,0.0,0.0,0.0,0.0,0.0,0.0,0.0,0.0,0.0,0.0,0.0,0.0,0.0,0.0,0.0,0.0,0.0,0.0,0.0,0.0,0.0,0.0,0.0,0.0,0.0,0.0,0.0,0.0,-1.1776,-1.1256,-1.1004,-1.034,-0.9945,-1.0055,-1.2201,-1.194,-1.0117,-1.1775,0.0,0.0,0.0,0.0,0.0,0.0,0.0,0.0,0.0,0.0,0.0,0.0,0.0,0.0,0.0,0.0,0.0,0.0,0.0,0.0,0.0,0.0,0.0,0.0,-1.686,-1.6308,0.0,0.0,0.0,0.0,0.0,0.0,0.0,0.0,0.0,0.0,0.0,0.0,-1.505,-1.5153,-1.5332,-1.5614,-1.4382,-1.3084,-1.1717,-1.069,-0.9527,-0.7918,-0.808,-0.8131,0.0,0.0,0.0,0.0,0.0,0.0,0.0,0.0,0.0,0.0,0.0,0.0,0.0,0.0,0.0,0.0,0.0,0.0,0.0,0.0,0.0,0.0,0.0,0.0,0.0,0.0,0.0,0.0,0.0,0.0,0.0,0.0,-1.495,-1.5244,0.0,0.0,0.0,0.0,0.0,0.0,0.0,0.0,0.0,0.0,0.0,0.0,0.0,-1.558,-1.5761,-1.4886,-1.3627,-1.1954,-1.2465,-1.1807,-1.0204,-1.1813,-1.2699,-1.2817,-1.4563,0.0,-0.9268,-1.1593,0.0,0.0,0.0,0.0,0.0,0.0,0.0,0.0,0.0,0.0,0.0,0.0,0.0,0.0,0.0,0.0,0.0,0.0,0.0,0.0,0.0,0.0,-1.5761,-1.7121,-1.7462,-1.7068,0.0,-1.4624,-1.3886,-1.3683,-1.2662,0.0,0.0,0.0,0.0,0.0,0.0,0.0,-1.2141,-1.237,-1.2715,-1.2944,-1.1576,-1.065,-1.0431,-1.0186,-0.9429,-0.7918,-0.988,-1.0707,-0.9552,-1.0584,0.0,0.0,0.0,0.0,0.0,0.0,0.0,0.0,0.0,0.0,0.0,0.0,0.0,0.0,0.0,0.0,0.0,0.0,0.0,0.0,0.0,0.0,0.0,0.0,0.0,0.0,0.0,0.0,0.0,-1.5124,-1.5631,-1.5418,-1.5832,-1.5939,0.0,0.0,0.0,0.0,0.0,0.0,0.0,0.0,0.0,-1.7004,-1.6576,-1.5698,-1.4203,-1.3861,-1.2921,-1.1622,-1.3027,-1.3377,-1.2649,-1.4476,-1.5442,-1.5519,-1.6095,-1.4581,-1.1733,-1.2203,-1.1142,-0.9181,0.0,0.0,0.0,0.0,-1.3804,-1.5468,-1.5544,-1.5951,0.0,-1.5853,0.0,0.0,0.0,0.0,0.0,0.0,0.0,0.0,0.0,0.0,0.0,-1.6863,-1.6625,-1.575,-1.5063,-1.3799,-1.2815,0.0,-1.2573,-1.2122,-1.1773,0.0,0.0,0.0,0.0,-1.2033,-1.2152,-1.2234,-1.2444,-1.2561,-1.2802,-1.2434,-1.1381,-1.2314,-1.2104,-1.0184,-1.1317,-1.1642,-1.0858,-1.1417,-1.2267,0.0,0.0,0.0,0.0,0.0,0.0,0.0,0.0,0.0,0.0,0.0,0.0,0.0,0.0,0.0,0.0,0.0,0.0,0.0,0.0,0.0,0.0,0.0,0.0,0.0,0.0,0.0,0.0,-1.5712,-1.6286,-1.5698,-1.6526,-1.682,0.0,0.0,0.0,0.0,0.0,0.0,-1.7055,-1.7498,-1.7339,-1.6669,-1.6414,-1.5323,-1.3214,-1.2901,-1.2681,-1.2408,-1.3807,-1.4858,-1.5551,-1.7317,-1.8047,-1.8036,-1.8145,-1.7109,-1.5138,-1.3412,-1.1398,-0.9598,-0.9483,-1.0011,-1.0933,-1.1273,-1.2915,-1.4855,-1.443,-1.5011,-1.5743,-1.458,0.0,-1.3615,-1.3068,0.0,0.0,0.0,0.0,-1.0896,-1.3041,-1.3442,-1.3986,-1.6167,-1.5728,-1.458,-1.4149,-1.2849,-1.1925,0.0,-1.2056,-1.1773,-1.1373,0.0,0.0,0.0,0.0,-1.1373,-1.1634,-1.149,-1.1686,-1.2259,-1.3277,-1.3527,-1.2466,-1.3981,-1.4095,-1.216,-1.2759,-1.2833,-1.2268,-1.2552,-1.3025,-1.3696,0.0,0.0,0.0,0.0,0.0,0.0,0.0,0.0,0.0,0.0,0.0,0.0,0.0,0.0,0.0,0.0,0.0,0.0,0.0,0.0,0.0,0.0,0.0,0.0,0.0,0.0,0.0,0.0,0.0,-1.6299,-1.7515,0.0,0.0,0.0,0.0,-1.5835,-1.6092,-1.5764,-1.4661,-1.5148,-1.5672,-1.6245,-1.4946,-1.4239,-1.4612,-1.2721,-1.2875,-1.4948,-1.4948,-1.6122,-1.801,-1.9656,-2.0392,-2.0368,-2.1531,-2.1141,-1.9128,-1.5005,-1.2012,-1.0195,-0.9768,-0.9598,-0.9829,-1.1232,-1.2039,-1.2569,-1.4106,-1.441,-1.4441,-1.5182,-1.4968,-1.4449,-1.4222,-1.2812,0.0,0.0,-1.0484,-1.0066,-1.1902,-1.2318,-1.304,-1.5071,-1.5216,-1.4475,-1.3207,-1.2431,-1.1919,0.0,-1.0093,-0.8918,-0.8904,0.0,-0.8668,-0.8668,-0.88,-0.8904,-0.8911,-0.9043,-0.9567,-1.0983,-1.1147,-1.1654,-1.289,-1.3847,-1.3788,-1.2463,-1.4413,-1.5045,-1.3861,-1.4924,-1.5032,-1.3957,-1.2468,0.0,0.0,0.0,0.0,0.0,0.0,0.0,0.0,0.0,0.0,0.0,0.0,0.0,0.0,0.0,0.0,0.0,0.0,0.0,0.0,0.0,0.0,0.0,0.0,0.0,0.0,0.0,0.0,-1.7729,-1.8838,0.0,-1.8384,-1.7667,-1.7032,-1.6686,-1.6212,-1.5994,-1.6031,-1.6535,-1.7155,-1.7892,-1.7385,-1.7256,-1.7683,-1.7005,-1.694,-1.7644,-1.915,-1.9973,-2.0421,-2.2276,-2.3024,-2.2819,-2.2968,-2.2,-2.0121,-1.8358,-1.5635,-1.2555,-1.119,-1.0609,-1.074,-1.1257,-1.2126,-1.2992,-1.2417,-1.2755,-1.3358,-1.2332,-1.1781,-1.1437,-1.1272,-1.0852,-1.0368,-1.0368,-1.013,-1.0313,-1.2299,-1.1972,-1.1522,-1.3655,-1.2944,-1.1831,-1.127,-1.0929,-1.0664,-1.0324,-0.9602,-0.8994,-0.8994,-0.8872,-0.8777,-0.8777,-0.8899,-0.8994,-0.8994,-0.9042,-0.963,-1.1056,-1.1982,-1.282,-1.3876,-1.5287,-1.567,-1.4643,-1.5577,-1.5827,-1.5153,-1.5363,-1.5444,-1.514,-1.3473,-1.3285,0.0,0.0,0.0,0.0,0.0,0.0,0.0,0.0,0.0,0.0,0.0,0.0,0.0,0.0,0.0,0.0,0.0,0.0,0.0,0.0,0.0,0.0,0.0,0.0,0.0,0.0,-1.9038,-1.8945,-2.0134,-2.0668,-1.988,-1.8544,-1.7629,-1.7446,-1.6147,-1.548,-1.5493,-1.6642,-1.7442,-1.8036,-1.8671,-1.9199,-1.9498,-1.9427,-1.9585,-1.9981,-2.1528,-2.2469,-2.2657,-2.3927,-2.4382,-2.4168,-2.3581,-2.26,-2.1426,-2.0447,-1.8462,-1.5843,-1.3173,-1.1753,-1.1158,-1.1111,-1.1704,-1.2404,-1.1291,-1.1519,-1.2071,-1.0714,-1.0209,-1.0107,-1.0012,-1.0053,-1.0127,-1.0127,-1.0202,-1.0572,-1.1926,-1.1394,-1.0732,-1.2103,-1.1431,-1.0351,-1.0351,-1.0195,-1.0019,-0.9917,-0.9618,-0.9361,-0.9313,-0.9232,-0.9164,-0.9164,-0.9245,-0.9286,-0.9239,-0.9232,-0.9971,-1.1731,-1.2811,-1.3859,-1.5336,-1.6419,-1.666,-1.5885,-1.5925,-1.5845,-1.5551,-1.5444,-1.5299,-1.4999,-1.389,-1.3841,-1.4871,0.0,0.0,0.0,0.0,0.0,0.0,0.0,0.0,0.0,0.0,0.0,0.0,0.0,0.0,0.0,0.0,0.0,0.0,0.0,0.0,0.0,0.0,0.0,-1.7248,-1.8998,-2.0187,-1.9933,-2.143,-2.2258,-2.1697,-2.049,-1.9182,-1.7905,-1.6259,-1.4578,-1.3047,-1.5241,-1.6555,-1.6555,-1.8625,-1.9902,-1.9902,-1.9833,-2.0548,-2.2153,-2.2153,-2.2941,-2.4636,-2.4356,-2.4222,-2.4182,-2.3594,-2.334,-2.3174,-2.1016,-2.019,-1.975,-1.5756,-1.2951,-1.1296,-1.1023,-1.0962,-1.0934,-1.0772,-1.0717,-1.0717,-1.0717,-1.0717,-1.0717,-1.0717,-1.0717,-1.0717,-1.0717,-1.0717,-1.0717,-1.0717,-1.0717,-1.0717,-1.0717,-1.0609,-1.0493,-1.0487,-1.0263,-1.0053,-1.0046,-0.9924,-0.9774,-0.9639,-0.9618,-0.9618,-0.9618,-0.9618,0.0,-0.9415,-0.9388,-1.0516,-1.3019,-1.3383,-1.4456,-1.6962,-1.6874,-1.6446,-1.5845,-1.5551,-1.5257,-1.4977,-1.5217,-1.4797,-1.3473,-1.3496,-1.3614,-1.3957,0.0,0.0,0.0,0.0,0.0,0.0,0.0,0.0,0.0,0.0,0.0,0.0,0.0,0.0,0.0,0.0,0.0,0.0,0.0,0.0,0.0,0.0,-1.9145,-1.9359,-2.0428,-2.1483,-2.2271,-2.3153,-2.3728,-2.3781,-2.2251,-2.121,-2.0898,-1.9347,-1.8217,-1.7808,-1.8541,-1.9654,-2.1264,-2.1905,-2.2875,-2.4489,-2.4572,-2.471,-2.492,-2.492,-2.498,-2.4957,-2.4877,-2.4716,-2.4489,-2.3901,-2.3647,-2.3607,-2.2519,-2.1321,-1.9773,-1.5915,-1.404,-1.3295,-1.1868,-1.1294,-1.107,-1.0806,-1.0717,-1.0717,-1.0717,-1.0717,-1.0717,-1.0717,-1.0717,-1.0717,-1.0717,-1.0717,-1.0717,-1.0717,-1.0717,-1.0717,-1.0717,-1.069,-1.0602,-1.0385,-1.0276,-1.0154,-0.9924,-0.9849,-0.9808,-0.9768,-0.9761,-0.9761,-0.9761,-0.9761,0.0,-0.9707,-1.0435,-1.1667,-1.3744,-1.4428,-1.5423,-1.7065,-1.6687,-1.6139,-1.5551,-1.5244,-1.5044,-1.4963,-1.483,-1.4678,-1.4514,-1.4913,-1.5068,0.0,0.0,0.0,0.0,0.0,0.0,0.0,0.0,0.0,0.0,0.0,0.0,0.0,0.0,0.0,0.0,0.0,0.0,0.0,0.0,0.0,0.0,-1.9706,-2.0895,-2.1937,-2.2311,-2.2832,-2.3768,-2.4396,-2.4917,-2.5331,-2.3637,-2.2553,-2.2764,-2.1136,-2.015,-2.015,-2.109,-2.21,-2.3305,-2.4392,-2.532,-2.6386,-2.6507,-2.6306,-2.5772,-2.5772,-2.5464,-2.489,-2.489,-2.473,0.0,-2.3968,-2.3701,-2.3541,-2.306,-2.2297,0.0,0.0,0.0,0.0,0.0,-1.128,-1.1043,-1.0799,-1.0717,-1.0717,-1.0717,-1.0717,-1.0717,-1.0717,-1.0717,-1.0717,-1.0717,-1.0717,-1.0717,-1.0717,-1.0717,-1.0717,-1.0717,-1.067,-1.0575,-1.0405,-1.027,-1.0134,-0.9951,-0.9863,0.0,-1.0657,-1.0301,-1.0058,-1.0657,-1.0778,-1.0997,-1.163,-1.2186,-1.3146,-1.4767,-1.5104,-1.5688,-1.6879,-1.654,0.0,0.0,0.0,-1.515,-1.515,-1.4977,0.0,0.0,0.0,-1.5752,-1.5578,0.0,0.0,0.0,-1.5498,-1.5418,0.0,0.0,0.0,0.0,0.0,0.0,0.0,0.0,0.0,0.0,0.0,0.0,0.0,0.0,0.0,0.0,-2.1314,-2.2268,-2.4422,-2.4143,-2.3905,-2.4716,-2.5277,-2.5825,-2.6386,-2.4676,-2.3746,-2.4375,-2.2577,-2.1556,-2.1535,0.0,0.0,0.0,0.0,-2.6934,-2.644,-2.6653,-2.6386,-2.5611,-2.5545,-2.5224,-2.469,-2.4623,-2.4462,-2.4235,-2.3915,-2.3621,-2.3354,-2.3046,-2.2749,-2.2435,-2.0479,-1.7388,-1.3823,-1.1963,-1.1084,-1.0948,-1.0778,0.0,0.0,-1.0717,-1.0717,-1.0717,-1.0717,-1.0717,-1.0717,-1.0717,-1.0717,-1.0717,-1.0717,-1.0717,-1.0717,-1.0717,-1.0602,-1.0487,-1.0473,-1.0369,-1.0287,-1.0273,-1.0278,-1.0778,-1.2217,-1.114,-1.0664,-1.2217,-1.2449,-1.2985,-1.4209,-1.4313,-1.4649,-1.5806,0.0,0.0,-1.668,-1.646,-1.6019,-1.5431,-1.5364,-1.5351,-1.5351,-1.5378,-1.5524,-1.5778,-1.5805,-1.5832,-1.5832,-1.5832,-1.5832,-1.5818,-1.5297,-1.5337,0.0,0.0,0.0,0.0,0.0,0.0,0.0,0.0,0.0,0.0,0.0,0.0,0.0,0.0,0.0,-2.1897,-2.1747,-2.23,-2.4591,-2.3744,-2.3686,-2.5524,-2.6012,-2.636,-2.6707,-2.6624,-2.647,-2.6587,-2.6259,-2.598,-2.5588,-2.6073,-2.6118,-2.5831,-2.6361,-2.6613,-2.6734,-2.656,-2.6386,-2.6213,0.0,0.0,-2.4983,-2.4502,-2.4382,-2.4529,-2.3995,-2.3741,-2.3661,-2.3367,-2.2241,-2.0479,-1.8519,-1.5425,-1.2001,-1.1413,-1.1145,-1.1084,-1.0812,-1.0717,-1.0717,-1.0717,-1.0717,-1.0717,-1.0717,-1.0717,0.0,-1.0717,-1.0717,-1.0717,-1.0717,-1.0717,-1.0717,-1.0717,-1.0602,-1.046,-1.0344,-1.1173,-1.184,-1.1817,-1.2835,-1.3765,-1.4123,-1.2808,-1.2337,-1.3885,-1.4123,-1.4232,-1.4538,-1.5221,-1.5919,-1.6296,-1.678,-1.7055,-1.7088,-1.658,-1.6019,-1.5431,-1.5177,-1.5044,-1.5044,-1.5271,-1.5418,-1.5484,-1.5712,-1.5832,-1.5832,-1.5832,-1.5832,-1.5832,-1.5712,-1.5725,0.0,0.0,0.0,0.0,0.0,0.0,0.0,0.0,0.0,0.0,0.0,-1.9412,0.0,0.0,-2.1962,-2.2111,-2.181,-2.2129,-2.3915,-2.3309,-2.3563,-2.579,-2.6346,-2.672,-2.7014,-2.7308,-2.7482,-2.7482,-2.7482,-2.7348,-2.7054,-2.7041,-2.6907,-2.6613,-2.6747,-2.676,-2.66,-2.66,-2.6466,-2.6159,-2.5718,-2.4809,-2.3454,-2.3037,-2.2772,-2.2488,-2.235,-2.2718,-2.33,-2.2153,-1.9889,-1.7107,-1.6122,-1.4716,-1.2843,-1.1685,-1.1165,-1.1118,-1.0826,-1.0717,-1.0717,-1.0717,-1.0717,-1.0717,-1.0717,-1.0717,-1.0717,-1.0717,-1.0717,-1.0717,-1.0717,-1.0717,-1.0717,-1.0717,-1.0602,-1.0704,-1.1307,-1.2081,-1.2802,-1.3352,-1.4299,-1.5225,-1.5709,-1.5382,-1.5214,-1.5698,-1.5784,-1.6138,-1.6868,-1.7334,-1.7541,-1.7541,-1.7577,-1.7462,-1.7181,-1.6607,-1.6086,-1.5645,-1.5471,-1.5391,-1.5391,-1.5538,-1.5618,-1.5618,-1.5752,-1.5832,-1.5832,-1.5832,-1.5832,-1.5832,-1.5832,-1.5832,0.0,0.0,0.0,0.0,0.0,0.0,0.0,0.0,-1.7303,-1.7487,-1.912,-2.0788,-2.2098,-2.2859,-2.3145,-2.2724,-2.2342,-2.2435,-2.3536,-2.3123,-2.3636,-2.5869,-2.6547,-2.6987,-2.7161,-2.7495,-2.7682,-2.7615,-2.7615,-2.7495,-2.7201,-2.7175,-2.7014,-2.6667,-2.6934,-2.6867,-2.6386,-2.6613,-2.648,-2.5959,-2.533,-2.3795,-2.1727,-2.0966,-2.0485,-2.0009,-2.0267,-2.0934,-2.1672,-1.9796,-1.7248,-1.429,-1.4006,-1.3847,-1.3641,-1.181,-1.1165,-1.1118,-1.0826,-1.0717,-1.0717,-1.0717,-1.0717,-1.0717,-1.0717,-1.0717,-1.0717,-1.0717,-1.0717,-1.0717,-1.0717,-1.0717,-1.0711,-1.0683,-1.0816,-1.1305,-1.2422,-1.3207,-1.3939,-1.496,-1.5771,-1.6486,-1.728,-1.7924,-1.8058,-1.7515,-1.7491,-1.7985,-1.9256,-1.9105,-1.8838,-1.8597,-1.8036,-1.7528,-1.7181,-1.6607,-1.6166,-1.5925,-1.5858,-1.5832,-1.5832,-1.5832,-1.5832,-1.5832,-1.5832,-1.5832,-1.5832,-1.5832,-1.5832,-1.5832,-1.5832,-1.5832,-1.3052,-1.3601,-1.5206,-1.7279,-1.6493,-1.6174,0.0,0.0,-1.8227,-2.0876,-2.1978,-2.2739,-2.3434,-2.4262,-2.505,-2.5423,-2.4145,-2.3683,-2.5727,-2.4246,-2.3903,-2.6017,-2.6854,-2.7121,-2.6894,-2.7375,-2.7589,-2.7335,-2.7308,-2.7188,-2.6894,-2.6867,-2.6627,-2.6079,-2.6333,-2.6453,-2.6386,-2.6426,-2.6279,-2.5959,-2.3915,-2.2412,-2.1578,-1.9316,-1.8309,-1.858,-1.8207,-1.8164,-1.8101,-1.5914,-1.4858,-1.429,-1.2602,-1.1817,-1.1671,-1.1365,-1.1165,-1.1118,-1.0826,-1.0717,-1.0717,-1.0717,-1.0717,-1.0717,-1.0717,-1.0717,-1.0717,-1.0717,-1.0717,-1.0717,-1.0717,-1.0717,-1.0683,-1.0548,-1.1547,-1.254,-1.2775,-1.4821,-1.6629,-1.7028,-1.8133,-1.8959,-1.914,-1.9179,-1.9193,-1.914,-1.9338,-1.9417,-1.9399,-1.9105,-1.8918,-1.8878,-1.8343,-1.7769,-1.7194,-1.6607,-1.6259,-1.6219,-1.5979,-1.5832,-1.5832,-1.5832,-1.5832,-1.5832,-1.5832,-1.5832,-1.5832,-1.5832,-1.5832,-1.5832,-1.5832,-1.5832,-1.5431,-1.5902,-1.6625,0.0,-1.7767,-1.7955,-1.8751,-1.9274,-1.9903,-2.0881,-2.2675,-2.4075,-2.4676,-2.5358,-2.5439,0.0,-2.356,-2.3413,-2.4061,-2.3404,-2.3551,-2.5119,-2.5892,-2.64,-2.6787,-2.7201,-2.7321,-2.7028,-2.7001,-2.6881,-2.6587,-2.6573,-2.6386,-2.5972,-2.6079,-2.6132,-2.6132,-2.6132,-2.6159,-2.6199,-2.3667,-2.1716,-2.0125,-1.7553,-1.6453,-1.6407,-1.7152,-1.6891,-1.5983,-1.4794,-1.3729,-1.2745,-1.19,-1.1579,-1.1497,-1.1253,-1.1111,-1.1009,-1.0792,-1.0717,-1.0717,-1.0717,-1.0717,-1.0717,-1.0717,-1.0717,-1.0717,-1.0717,-1.0717,-1.0717,-1.0717,-1.1505,-1.2111,-1.1942,-1.3114,-1.4499,-1.5248,-1.6597,-1.7792,-1.8407,-1.9376,-1.9973,-1.9452,-1.9653,-1.976,-1.9412,-1.9466,-1.9506,-1.9386,-1.9265,-1.9118,-1.8945,-1.8397,-1.7876,-1.7435,-1.7021,-1.6714,-1.654,-1.6406,-1.6259,-1.6099,-1.6246,-1.6259,-1.6086,-1.6086,-1.6086,-1.6086,-1.5912,-1.5832,-1.5832,-1.5832,-1.5832,-1.7003,0.0,0.0,-1.7941,-1.8709,-1.9248,-1.8803,-1.9903,-2.0963,-2.1458,-2.3104,-2.4783,-2.5304,-2.5812,-2.5662,-2.4049,-2.3794,-2.3745,-2.3478,-2.3441,-2.3803,-2.4581,-2.4943,-2.5398,-2.6039,-2.6507,-2.6734,-2.66,-2.6587,-2.6533,-2.64,-2.6386,-2.6213,-2.5838,-2.5919,-2.5919,-2.5838,-2.5919,-2.6026,-2.6146,-2.3021,-2.0792,-1.8958,-1.5807,-1.4324,-1.4245,-1.5266,-1.5079,-1.3914,-1.3785,-1.2888,-1.1619,-1.1619,-1.1592,-1.1531,-1.1307,-1.1131,-1.0982,-1.0785,-1.0717,-1.0717,-1.0717,-1.0717,-1.0717,-1.0717,-1.0717,-1.0717,-1.0717,-1.0717,-1.085,-1.124,-1.2413,-1.3404,-1.3602,-1.4954,-1.6506,-1.7276,-1.7994,-1.8766,-1.947,-1.9987,-2.0107,-1.9479,-1.972,-1.9853,-1.9439,-1.9372,-1.9372,-1.9372,-1.9372,-1.9225,-1.8838,-1.8424,-1.8009,-1.7609,-1.7315,-1.7061,-1.6847,-1.6754,-1.6607,-1.6406,-1.6593,-1.6607,-1.6393,-1.6313,-1.6273,-1.6273,-1.5979,-1.5832,-1.5832,-1.5832,-1.5832,0.0,0.0,-1.6235,-1.8682,-1.8759,-1.8879,-2.1674,-2.1195,-2.1077,-2.3537,-2.4409,-2.473,-2.5037,-2.5331,-2.5545,-2.5378,-2.5772,-2.5865,-2.5418,-2.5365,-2.5152,-2.4703,-2.4409,-2.4249,0.0,-2.5064,-2.5678,-2.5959,-2.5985,-2.6106,-2.6373,-2.6386,-2.6119,-2.5545,-2.5798,-2.5825,-2.5531,-2.5812,-2.5812,-2.5531,-2.1423,-1.9151,-1.8421,-1.4129,-1.2052,-1.1777,-1.1763,-1.1763,-1.177,-1.1619,-1.1619,-1.1619,-1.1619,-1.1531,-1.1396,-1.1389,-1.1287,-1.1118,-1.0819,-1.0717,-1.0717,-1.0717,-1.0717,-1.0717,-1.0717,-1.0717,-1.0717,-1.0717,-1.0717,-1.1115,-1.28,-1.3325,-1.3665,-1.5248,-1.6855,-1.8125,-1.8226,-1.9082,-1.9774,-2.016,-1.9773,-1.9399,-1.9372,-1.9386,-1.9386,-1.9372,-1.9372,-1.9372,-1.9372,-1.9372,-1.9145,-1.8571,-1.849,-1.8237,-1.7635,-1.7315,-1.7244,-1.7141,-1.686,-1.67,-1.6687,-1.67,-1.67,-1.6687,-1.642,-1.6273,-1.6273,-1.5979,-1.5832,-1.5832,-1.5832,-1.5832,-1.6813,0.0,-1.8376,-1.9628,-2.0217,-2.0851,-2.235,-2.2671,-2.2821,-2.3705,-2.3995,-2.4035,-2.3928,-2.3995,-2.4195,-2.4583,-2.489,-2.505,-2.4943,-2.5104,-2.4716,-2.3327,-2.3434,0.0,0.0,0.0,0.0,-2.5344,-2.5558,-2.5785,-2.6092,-2.6279,-2.6213,-2.5825,-2.5718,-2.5705,-2.5798,-2.5718,-2.5718,-2.5798,-2.1164,-1.7416,-1.4302,-1.2635,-1.1857,-1.1755,-1.166,-1.1619,-1.1613,-1.1511,-1.1531,-1.1599,-1.1396,-1.1348,-1.1369,-1.1172,-1.1063,-1.1002,-1.0907,-1.0806,-1.0717,-1.0717,-1.0717,-1.0717,-1.0717,-1.0717,-1.0717,-1.0717,-1.1505,-1.2545,-1.3193,-1.5005,-1.6894,-1.7163,-1.8638,-1.9735,-1.9543,-1.9994,-2.0347,-2.0254,-2.0227,-2.0174,-1.9973,-1.9786,-1.9586,-1.9399,-1.9372,-1.9372,-1.9372,-1.9372,-1.9292,-1.9092,-1.8731,-1.841,-1.8196,-1.7729,-1.7435,-1.7435,-1.7341,-1.7194,-1.7007,-1.7181,-1.7194,-1.7007,-1.6901,-1.686,-1.686,-1.6553,-1.6313,-1.6126,-1.6313,-1.6206,-1.7622,-1.8704,-1.984,-2.0535,-2.1283,-2.2071,-2.2846,-2.3327,-2.3607,-2.3607,-2.3434,-2.3193,-2.2899,-2.2672,-2.2686,-2.318,-2.35,-2.3768,-2.3968,-2.4168,-2.3861,-2.2712,-2.2926,-2.2899,0.0,0.0,0.0,-2.4716,-2.5037,-2.5424,-2.5932,-2.6132,-2.6146,-2.5959,-2.5665,-2.5598,-2.5798,-2.5504,-2.4775,-2.3421,-1.9443,-1.5604,-1.2121,-1.1918,-1.1803,-1.1748,-1.166,-1.1586,-1.1531,-1.143,-1.1416,-1.1436,-1.124,-1.1219,-1.1287,-1.1097,-1.0995,-1.0941,-1.0887,-1.0806,-1.0717,-1.0717,-1.0717,-1.085,-1.1505,-1.163,-1.1762,-1.2413,-1.3325,-1.4362,-1.5005,-1.6818,-1.8593,-1.9071,-2.0065,-2.0775,-2.0588,-2.0615,-2.0615,-2.0428,-2.0454,-2.0454,-2.0267,-2.008,-1.9853,-1.9559,-1.9519,-1.9479,-1.9386,-1.9372,-1.9332,-1.9225,-1.8784,-1.845,-1.8343,-1.7876,-1.7582,-1.7582,-1.7582,-1.7502,-1.7315,-1.7488,-1.7502,-1.7315,-1.7208,-1.7154,-1.7154,-1.6847,-1.6607,-1.6433,-1.662,-1.6446,-1.8651,-1.9613,-2.0508,-2.1363,-2.1977,-2.2539,-2.3166,-2.3287,-2.3247,-2.322,-2.2712,-2.2191,0.0,0.0,-2.1122,-2.1456,-2.179,-2.2218,-2.2806,-2.2899,-2.2899,0.0,0.0,0.0,0.0,0.0,0.0,-2.4115,0.0,-2.4997,-2.5892,-2.5945,-2.5959,-2.5972,-2.5678,-2.5518,-2.5531,-2.5073,-2.2928,-1.8723,-1.6382,-1.4027,-1.1843,-1.183,-1.1748,-1.1619,-1.1613,-1.1525,-1.1389,-1.1375,-1.1287,-1.1158,-1.1145,-1.1145,-1.1151,-1.1145,-1.105,-1.1049,-1.0905,-1.085,-1.085,-1.085,-1.085,-1.124,-1.2931,-1.3456,-1.384,-1.5394,-1.5913,-1.6431,-1.8116,-1.8512,-1.9024,-2.0716,-2.1109,-2.1109,-2.1109,-2.0895,-2.0695,-2.0695,-2.0468,-2.0267,-2.0254,-2.0241,-2.0134,-1.984,-1.9786,-1.9679,-1.9399,-1.9372,-1.9265,-1.8971,-1.8691,-1.8397,-1.8116,-1.7796,-1.7609,-1.7609,-1.7595,-1.7582,-1.7582,-1.7582,-1.7582,-1.7582,-1.7315,-1.7168,-1.7168,-1.6887,-1.674,-1.6727,-1.674,-1.658,-1.9439,-2.0374,-2.1323,-2.1764,-2.1817,-2.1977,-2.2792,-2.2645,-2.2205,-2.1764,-2.1029,-2.0241,0.0,0.0,0.0,-2.0788,-2.1697,0.0,-2.3126,-2.3394,0.0,-2.2913,0.0,-2.3086,-2.2779,-2.3033,0.0,0.0,-2.4155,-2.4703,-2.5585,-2.5838,-2.6052,-2.6279,-2.5785,-2.5625,-2.5838,-2.3769,-2.1486,-1.8958,-1.6319,-1.3987,-1.1999,-1.1775,-1.1653,-1.1613,-1.1497,-1.143,-1.1375,-1.1151,-1.1104,-1.1145,-1.0921,-1.09,-1.0989,-1.0873,-1.1599,-1.2732,-1.2692,-1.2676,-1.2676,-1.2676,-1.3587,-1.4614,-1.5135,-1.5265,-1.5265,-1.5784,-1.6818,-1.7988,-1.8372,-1.9419,-2.0589,-2.0982,-2.1109,-2.1109,-2.1109,-2.1056,-2.1002,-2.1002,-2.0935,-2.0815,-2.0601,-2.0374,-2.0134,-1.984,-1.9613,-1.9452,-1.9372,-1.9372,-1.9332,-1.9265,-1.8985,-1.8784,-1.8704,-1.8223,-1.7929,-1.7929,-1.7716,-1.7582,-1.7582,-1.7582,-1.7582,-1.7582,-1.7515,-1.7475,-1.7475,-1.7395,-1.7248,-1.7048,-1.7261,-1.6967,-2.0227,-2.0949,-2.159,-2.175,-2.1764,-2.1764,-2.1884,-2.1643,-2.1176,-2.0321,-1.9559,0.0,-1.821,0.0,0.0,0.0,0.0,0.0,-2.2405,-2.2699,-2.2819,0.0,-2.314,0.0,-2.3086,-2.334,-2.3647,0.0,-2.4115,-2.4583,-2.5464,-2.5678,-2.5892,-2.6186,-2.5745,-2.4993,-2.4125,-2.1534,-1.9317,-1.7256,-1.4761,-1.3088,-1.1864,-1.1694,-1.1619,-1.1613,0.0,-1.1769,-1.2373,-1.1309,-1.1354,-1.215,-1.1969,-1.1954,-1.2022,-1.2708,-1.3578,-1.4493,-1.4493,-1.4874,-1.5394,-1.4754,-1.5135,-1.6043,-1.6818,-1.7076,-1.7216,-1.7988,-1.8896,-1.9674,-1.9674,-2.0335,-2.1109,-2.1109,-2.1109,-2.1109,-2.1109,-2.1109,-2.1109,-2.1109,-2.1109,-2.1056,-2.0895,-2.0722,-2.0468,-2.0054,-1.9853,-1.9653,-1.9399,-1.9372,-1.9372,-1.9372,-1.9105,-1.8918,-1.8918,-1.8384,-1.805,-1.805,-1.7756,-1.7582,-1.7582,-1.7582,-1.7582,-1.7582,-1.7582,-1.7582,-1.7582,-1.7582,-1.7502,-1.7341,-1.7502,-1.7181,-2.0909,-2.1349,-2.1603,-2.1563,-2.1683,-2.1603,-2.0802,-2.0521,-2.0107,-1.8931,0.0,-1.7756,-1.7408,-1.7448,-1.7756,-1.8437,0.0,-1.9987,-2.1416,-2.1643,-2.1964,-2.2766,-2.314,-2.334,-2.338,-2.3621,-2.3888,-2.4182,-2.4209,-2.4569,-2.5411,-2.5451,-2.5571,-2.5838,-2.5238,-2.3896,-2.1554,-1.9043,-1.6916,-1.5138,-1.2919,-1.1769,-1.1647,-1.1626,-1.1619,-1.1606,-1.1712,0.0,-1.3721,-1.2187,-1.2422,-1.3709,-1.3709,-1.3709,-1.384,-1.5394,-1.6043,-1.6302,-1.6302,-1.7345,-1.8512,-1.6818,-1.6431,-1.6818,-1.8372,-1.8896,-1.9152,-2.0716,-2.1109,-2.1109,-2.1109,-2.1109,-2.1109,-2.1109,-2.1109,-2.1109,-2.1109,-2.1109,-2.1109,-2.1109,-2.1109,-2.1109,-2.1109,-2.1082,-2.0869,-2.0321,-2.0201,-1.9987,-1.9439,-1.9372,-1.9372,-1.9372,-1.9132,-1.8985,-1.8985,-1.8477,-1.8143,-1.8103,-1.7849,-1.7689,-1.7649,-1.7649,-1.7649,-1.7649,-1.7609,-1.7582,-1.7582,-1.7582,-1.7569,-1.7528,-1.7569,-1.7248,-2.1136,-2.1496,-2.1857,-2.1617,-2.1229,-2.0802,-2.0401,-1.9746,0.0,0.0,-1.7181,-1.6767,-1.6233,-1.6727,-1.7582,-1.8664,0.0,0.0,0.0,0.0,-2.2418,0.0,0.0,0.0,0.0,0.0,0.0,0.0,0.0,-2.4476,-2.5117,-2.5157,-2.5184,-2.5224,-2.3392,-2.2186,-2.142,-1.7635,-1.5467,-1.5138,-1.2919,-1.1816,-1.1789,-1.1674,-1.1619,-1.1606,-1.2835,0.0,-1.3849,-1.4695,-1.5173,-1.5394,-1.5394,-1.5394,-1.5524,-1.5784,-1.6818,-1.7988,-1.7988,-1.9152,-2.0322,-1.864,-1.9024,-2.0195,-2.0589,-2.0589,-2.0716,-2.0982,-2.1109,-2.1109,-2.1109,-2.1109,-2.1109,-2.1109,-2.1109,-2.1109,-2.1109,-2.1109,-2.1109,-2.1109,-2.1109,-2.1109,-2.1109,-2.0909,-2.0628,-2.0281,-2.0027,-1.976,-1.9412,-1.9372,-1.9372,-1.9372,-1.9319,-1.9292,-1.9292,-1.8971,-1.8664,-1.8424,-1.8357,-1.8223,-1.7969,-1.7969,-1.7969,-1.7969,-1.7716,-1.7582,-1.7582,-1.7582,-1.7462,-1.7235,-1.7475,-1.7141,-2.1296,-2.143,-2.1496,-2.1349,-2.0762,-2.0067,-1.9466,0.0,0.0,0.0,-1.6233,-1.5979,-1.5858,0.0,0.0,0.0,0.0,0.0,0.0,0.0,0.0,0.0,0.0,0.0,0.0,0.0,0.0,0.0,0.0,-2.4462,-2.505,-2.4147,-2.3064,-2.1977,-2.068,-1.9383,-1.8229,-1.5903,-1.4309,-1.339,-1.2135,-1.1647,-1.1714,-1.1653,-1.2187,-1.3151,-1.3628,0.0,-1.654,-1.6095,-1.6431,-1.7216,-1.7216,-1.7216,-1.7345,-1.8244,-1.9152,-1.9814,-1.9814,-2.0462,-2.0982,-2.0068,-2.0449,-2.1109,-2.1109,-2.1109,-2.1109,-2.1109,-2.1109,-2.1109,-2.1109,-2.1109,-2.1109,-2.1109,-2.1109,-2.1109,-2.1109,-2.1109,-2.1109,-2.1109,-2.1109,-2.1109,-2.1109,-2.0989,-2.0748,-2.0294,-2.0107,-1.9867,-1.9426,-1.9372,-1.9372,-1.9372,-1.9372,-1.9372,-1.9372,-1.9092,-1.8865,-1.8731,-1.8571,-1.8424,-1.829,-1.813,-1.805,-1.805,-1.7742,-1.7582,-1.7582,-1.7582,-1.7515,-1.7382,-1.7515,-1.7275,-2.1256,-2.1283,-2.1189,-2.1122,-2.0401,-1.9492,-1.8677,-1.7515,0.0,0.0,-1.5551,-1.5391,-1.5685,0.0,0.0,0.0,0.0,0.0,0.0,0.0,0.0,0.0,0.0,0.0,0.0,0.0,0.0,0.0,0.0,0.0,-2.4863,-2.2891,-2.1046,-1.9517,-1.8669,-1.7398,-1.5878,-1.5381,-1.434,-1.2872,-1.2656,-1.2604,-1.2693,-1.2731,-1.3571,-1.4912,-1.4973,0.0,0.0,-1.7651,-1.7859,-1.9024,-1.9024,-1.9024,-1.9164,-2.0589,-2.1109,-2.1109,-2.1109,-2.1109,-2.1109,-2.1109,-2.1109,-2.1109,-2.1109,-2.1109,-2.1109,-2.1109,-2.1109,-2.1109,-2.1109,-2.1109,-2.1109,-2.1109,-2.1109,-2.1109,-2.1109,-2.1109,-2.1096,-2.1029,-2.1069,-2.1096,-2.1029,-2.1069,-2.0935,-2.0401,-2.0267,-2.004,-1.9533,-1.9412,-1.9372,-1.9372,-1.9372,-1.9372,-1.9372,-1.9158,-1.8985,-1.8931,-1.8771,-1.8651,-1.8584,-1.8357,-1.8237,-1.8237,-1.7876,-1.7689,-1.7689,-1.7609,-1.7555,-1.7488,-1.7555,-1.7395,-2.0815,-2.1122,-2.1443,-2.1176,-2.0254,-1.9252,-1.8624,0.0,0.0,-1.5899,-1.5391,-1.5097,-1.5378,-1.5484,0.0,0.0,0.0,0.0,0.0,0.0,0.0,0.0,0.0,0.0,0.0,0.0,0.0,0.0,0.0,0.0,-2.4275,-2.2337,-2.1284,-2.1125,-1.9084,-1.7834,-1.7498,-1.7096,-1.6737,-1.6273,-1.6578,-1.6568,-1.6392,-1.6597,-1.6718,-1.6639,-1.8047,0.0,0.0,-2.0067,-2.0716,-2.0843,-2.0843,-2.0843,-2.0856,-2.0982,-2.1109,-2.1109,-2.1109,-2.1109,-2.1109,-2.1109,-2.1109,-2.1109,-2.1109,-2.1109,-2.1109,-2.1109,-2.1109,-2.1109,-2.1109,-2.1109,-2.1109,-2.1109,-2.1109,-2.1109,-2.1109,-2.1109,-2.1029,-2.0762,-2.0922,-2.1029,-2.0762,-2.0935,-2.1002,-2.0681,-2.0401,-2.012,-1.98,-1.9533,-1.9372,-1.9372,-1.9372,-1.9372,-1.9372,-1.9345,-1.9212,-1.8945,-1.9158,-1.9158,-1.8891,-1.8851,-1.8838,-1.8838,-1.829,-1.8009,-1.8009,-1.7716,-1.7448,-1.7194,-1.7462,-1.7288,-2.0561,-2.0975,-2.1256,-2.1136,-1.996,-1.8784,-1.8544,0.0,0.0,-1.5818,-1.5511,-1.5311,-1.5605,-1.5658,-1.5765,0.0,0.0,0.0,0.0,0.0,0.0,0.0,0.0,0.0,0.0,0.0,0.0,0.0,0.0,0.0,-2.3674,-2.1931,-2.0466,-1.9424,-1.8321,-1.7662,-1.7581,-1.7228,-1.6995,-1.6766,-1.7005,-1.6995,-1.6766,-1.7147,-1.7684,-1.855,-1.899,0.0,0.0,-2.0975,-2.1109,-2.1109,-2.1109,-2.1109,-2.1109,-2.1109,-2.1109,-2.1109,-2.1109,-2.1109,-2.1109,-2.1109,-2.1109,-2.1109,-2.1109,-2.1109,-2.1109,-2.1109,-2.1109,-2.1109,-2.1109,-2.1109,-2.1069,-2.0895,-2.0989,-2.1109,-2.1109,-2.1109,-2.1082,-2.0962,-2.1029,-2.1015,-2.0722,-2.0922,-2.0949,-2.0481,-2.0307,-2.0134,-1.984,-1.9546,-1.9372,-1.9372,-1.9372,-1.9372,-1.9372,-1.9372,-1.9319,-1.9199,-1.9305,-1.9319,-1.9199,-1.9025,-1.8838,-1.8664,-1.8263,-1.7956,-1.7769,-1.7649,-1.7528,-1.7408,-1.7528,-1.7462,-2.0067,-2.0628,-2.1002,-2.1082,-1.9786,-1.849,0.0,0.0,-1.5484,-1.5765,-1.5524,-1.5351,-1.5645,-1.5698,-1.5698,0.0,0.0,0.0,0.0,0.0,0.0,0.0,0.0,0.0,0.0,0.0,0.0,0.0,0.0,0.0,0.0,-2.2127,-2.0565,-1.8916,-1.8464,-1.8254,-1.8333,-1.856,-1.8627,-1.8413,-1.8638,-1.8627,-1.8424,-1.86,-1.9244,-2.0221,-2.0099,0.0,0.0,-2.1189,-2.1109,-2.1109,-2.1109,-2.1109,-2.1109,-2.1109,-2.1109,-2.1109,-2.1109,-2.1109,-2.1109,-2.1109,-2.1109,-2.1109,-2.1109,-2.1109,-2.1109,-2.1109,-2.1109,-2.1109,-2.1109,-2.1109,-2.1056,-2.0855,-2.0962,-2.1109,-2.1109,-2.1109,-2.1082,-2.1002,-2.0989,-2.0882,-2.0588,-2.0788,-2.0842,-2.0428,-2.0294,-2.016,-1.996,-1.9599,-1.9372,-1.9372,-1.9372,-1.9372,-1.9372,-1.9372,-1.9372,-1.9372,-1.9372,-1.9372,-1.9372,-1.9078,-1.8865,-1.8758,-1.829,-1.7983,-1.7849,-1.7675,-1.7582,-1.7582,-1.7582,-1.7582,-1.9225,-2.0013,-2.0748,-2.1042,-1.9786,-1.849,0.0,0.0,-1.5484,-1.5765,-1.5378,-1.5057,-1.5351,-1.5404,-1.5404,-1.5404,0.0,0.0,0.0,0.0,0.0,0.0,0.0,0.0,0.0,0.0,0.0,0.0,0.0,0.0,0.0,-2.3033,-2.2151,-2.058,-2.0309,-2.018,-2.0063,-2.1872,-2.2712,-2.2284,-2.2712,-2.2699,-2.2284,-2.2284,-2.2258,0.0,0.0,0.0,0.0,-2.1109,-2.1109,-2.1109,-2.1109,-2.1109,-2.1109,-2.1109,-2.1109,-2.1109,-2.1109,-2.1109,-2.1109,-2.1109,-2.1109,-2.1109,-2.1109,-2.1109,-2.1109,-2.1109,-2.1109,-2.1109,-2.1109,-2.1109,-2.1109,-2.1109,-2.1109,-2.1109,-2.1109,-2.1109,-2.1029,-2.0735,-2.0681,-2.0588,-2.0294,-2.0481,-2.0681,-2.0668,-2.0414,-2.0227,-2.0227,-1.972,-1.9372,-1.9372,-1.9372,-1.9372,-1.9372,-1.9372,-1.9372,-1.9372,-1.9372,-1.9372,-1.9372,-1.9078,-1.9065,-1.9359,-1.849,-1.8196,-1.8477,-1.7876,-1.7582,-1.7582,-1.7582,-1.7582,-1.7983,-1.8504,-1.8905,-1.8998,-1.8143,-1.7328,-1.7528,0.0,-1.5484,-1.5765,-1.5524,-1.5351,-1.5631,-1.5698,-1.5765,-1.5965,-1.6072,0.0,0.0,0.0,0.0,0.0,0.0,0.0,0.0,0.0,0.0,0.0,0.0,0.0,0.0,-2.2913,-2.2717,-2.2447,-2.2254,-2.2112,-2.2022,-2.2585,-2.2619,-2.2124,-2.2619,-2.2605,-2.2124,-2.2325,-2.2258,0.0,0.0,0.0,0.0,-2.1109,-2.1109,-2.1109,-2.1109,-2.1109,-2.1109,-2.1109,-2.1109,-2.1109,-2.1109,-2.1109,-2.1109,-2.1109,-2.1109,-2.1069,-2.0869,-2.0949,-2.1109,-2.1109,-2.0962,-2.0762,-2.0561,-2.0655,-2.0762,-2.0561,-2.0815,-2.1109,-2.1109,-2.1109,-2.1082,-2.0989,-2.0815,-2.0575,-2.0281,-2.0307,-2.0307,-2.0107,-2.0,-1.9933,-1.9933,-1.9599,-1.9372,-1.9372,-1.9372,-1.9372,-1.9372,-1.9372,-1.9372,-1.9372,-1.9372,-1.9372,-1.9372,-1.9279,-1.9172,-1.9065,-1.8784,-1.849,-1.8183,-1.8196,-1.8103,-1.7903,-1.7903,-1.7782,0.0,-1.7395,-1.7756,-1.7983,-1.7288,0.0,0.0,0.0,-1.5284,-1.5471,-1.5444,-1.5444,-1.5631,-1.5752,-1.5885,-1.6072,-1.6112,0.0,0.0,0.0,0.0,0.0,0.0,0.0,0.0,0.0,0.0,0.0,0.0,0.0,0.0,-2.2752,-2.2779,-2.2979,-2.2899,-2.2806,-2.2699,-2.2806,-2.2619,-2.2151,-2.2525,-2.2445,-2.1991,-2.2058,-2.1991,0.0,0.0,0.0,0.0,-2.1109,-2.1109,-2.1109,-2.1109,-2.1109,-2.1109,-2.1109,-2.1109,-2.1109,-2.1109,-2.1109,-2.1109,-2.1109,-2.1029,-2.0935,-2.0855,-2.0815,-2.0802,-2.0909,-2.0815,-2.0628,-2.0441,-2.0615,-2.0762,-2.0468,-2.0762,-2.1082,-2.0962,-2.1029,-2.1109,-2.1109,-2.0788,-2.0481,-2.0414,-2.0307,-2.0174,-1.9987,-1.996,-1.996,-1.996,-1.9613,-1.9412,-1.9519,-1.9439,-1.9372,-1.9372,-1.9372,-1.9372,-1.9372,-1.9372,-1.9372,-1.9372,-1.9265,-1.9158,-1.9092,-1.8758,-1.8517,-1.8384,-1.845,-1.8397,-1.821,-1.8103,-1.7943,0.0,0.0,0.0,0.0,0.0,0.0,0.0,0.0,0.0,-1.4963,-1.5164,-1.5351,-1.5391,-1.5618,-1.5805,-1.5858,0.0,0.0,0.0,0.0,0.0,0.0,0.0,0.0,0.0,0.0,0.0,0.0,0.0,0.0,0.0,-2.2552,-2.2392,-2.2392,-2.2659,-2.2672,-2.2418,-2.2672,-2.2659,-2.2392,-2.2392,-2.2231,-2.1951,-2.167,-2.155,0.0,0.0,0.0,0.0,-2.1109,-2.1109,-2.1109,-2.1109,-2.1109,-2.1109,-2.1109,-2.1096,-2.1082,-2.1082,-2.1069,-2.1056,-2.1069,-2.0882,-2.0695,-2.0989,-2.0681,-2.0294,-2.0588,-2.0655,-2.0641,-2.0641,-2.0855,-2.1015,-2.0735,-2.0895,-2.1029,-2.0735,-2.0895,-2.1069,-2.1056,-2.0588,-2.0294,-2.0601,-2.0374,-2.0174,-2.0201,-2.0187,-2.0174,-2.0174,-1.9693,-1.9466,-1.9733,-1.9533,-1.9372,-1.9372,-1.9372,-1.9372,-1.9372,-1.9372,-1.9372,-1.9372,-1.9105,-1.9092,-1.9359,-1.8517,-1.837,-1.8958,-1.8637,-1.849,-1.8477,-1.821,-1.805,-1.4522,0.0,-1.5164,-1.5311,-1.5137,0.0,0.0,0.0,0.0,0.0,0.0,0.0,-1.5311,-1.5444,0.0,0.0,0.0,0.0,0.0,0.0,0.0,0.0,0.0,0.0,0.0,0.0,0.0,0.0,0.0,0.0,0.0,-2.2245,-2.2084,-2.2084,-2.2151,-2.2271,-2.2418,-2.2271,-2.2151,-2.2084,-2.2084,-2.1937,-2.1657,-2.159,-2.155,0.0,0.0,0.0,-2.1109,-2.1109,-2.1109,-2.1109,-2.1109,-2.1109,-2.1109,-2.1109,-2.0962,-2.0775,-2.0775,-2.0628,-2.0481,-2.0708,-2.0575,-2.0388,-2.0695,-2.0521,-2.0294,-2.0588,-2.0508,-2.0334,-2.0334,-2.0561,-2.0762,-2.0695,-2.0895,-2.1029,-2.0735,-2.0735,-2.0708,-2.0481,-2.0147,-2.0,-2.0281,-1.9907,-1.9639,-1.9867,-1.972,-1.9573,-1.9573,-1.9452,-1.9399,-1.9466,-1.9412,-1.9372,-1.9372,-1.9372,-1.9372,-1.9372,-1.9372,-1.9372,-1.9372,-1.9305,-1.9292,-1.9372,-1.8718,-1.8677,-1.9265,-1.8744,-1.849,-1.849,-1.8424,-1.8143,-1.4082,-1.4202,-1.4349,-1.4482,-1.4416,-1.4402,0.0,0.0,0.0,0.0,0.0,0.0,0.0,0.0,0.0,0.0,0.0,0.0,0.0,0.0,0.0,0.0,0.0,0.0,0.0,0.0,0.0,0.0,0.0,0.0,0.0,-2.1951,-2.179,-2.179,-2.1657,-2.1724,-2.2017,-2.1991,-2.1924,-2.179,-2.179,-2.163,-2.1349,-2.1349,-2.1349,0.0,0.0,0.0,-2.1109,-2.1109,-2.1109,-2.1109,-2.1109,-2.1109,-2.1109,-2.1109,-2.0922,-2.0681,-2.0681,-2.0958,-2.1357,-2.1652,-2.1925,-2.2201,-2.2674,-2.2393,-2.173,-2.135,-2.1202,-2.118,-2.1891,-2.2467,-2.2793,-2.2645,-2.2956,-2.3177,-2.2704,-2.2837,-2.2833,-2.169,-2.1258,-2.1082,-2.0684,-2.0147,-1.9813,-1.9973,-1.9867,-1.972,-1.9586,-1.9452,-1.9412,-1.9546,-1.9452,-1.9372,-1.9372,-1.9372,-1.9372,-1.9372,-1.9372,-1.9372,-1.9372,-1.9372,-1.9305,-1.9172,-1.8985,-1.8985,-1.9158,-1.8985,-1.8891,-1.8891,-1.8758,-1.8517,-1.4082,-1.4122,-1.4202,-1.4402,-1.4269,-1.4148,0.0,0.0,0.0,0.0,0.0,0.0,0.0,0.0,0.0,0.0,0.0,0.0,0.0,0.0,0.0,0.0,0.0,0.0,0.0,0.0,0.0,0.0,0.0,0.0,0.0,-2.1643,-2.151,-2.155,-2.1269,-2.1229,-2.1483,-2.1724,-2.175,-2.155,-2.151,-2.1349,-2.1109,-2.1109,-2.1109,-2.1109,0.0,0.0,-2.1109,-2.1109,-2.1109,-2.1109,-2.1109,-2.1109,-2.1109,-2.1109,-2.0922,-2.0668,-2.0808,-2.1683,-2.2928,-2.3247,-2.3787,-2.445,-2.5058,-2.4565,-2.3729,-2.2835,-2.2482,-2.2659,-2.4089,-2.4828,-2.5255,-2.5126,-2.5539,-2.5803,-2.5126,-2.5304,-2.4996,-2.3097,-2.2423,-2.1944,-2.1118,-2.0521,-2.0201,-2.0294,-2.0227,-2.008,-1.9826,-1.9546,-1.9466,-1.9706,-1.9519,-1.9372,-1.9372,-1.9372,-1.9372,-1.9372,-1.9372,-1.9372,-1.9372,-1.9372,-1.9252,-1.8998,-1.9199,-1.9199,-1.8985,-1.9199,-1.9305,-1.9292,-1.9038,-1.8905,-1.4082,-1.4269,-1.4402,-1.4202,-1.4122,-1.4095,0.0,0.0,0.0,0.0,0.0,0.0,0.0,0.0,0.0,0.0,0.0,0.0,0.0,0.0,0.0,0.0,0.0,0.0,0.0,0.0,0.0,0.0,0.0,0.0,0.0,-2.1336,-2.1296,-2.155,-2.1269,-2.1136,-2.1176,-2.1229,-2.1349,-2.155,-2.1296,-2.1149,-2.1109,-2.1109,-2.1109,-2.1109,0.0,-2.1109,-2.1109,-2.1109,-2.1109,-2.1109,-2.1109,-2.1109,-2.1109,-2.1109,-2.0922,-2.0848,-2.1489,-2.2883,-2.4285,-2.4512,-2.4678,-2.4845,-2.4944,-2.4664,-2.4348,-2.5197,-2.4682,-2.4089,-2.463,-2.5008,-2.5386,-2.5753,-2.5902,-2.5869,-2.5575,-2.4277,-2.2989,-2.2406,-2.1059,-2.0033,-2.0267,-2.0094,-2.004,-2.0535,-2.0187,-1.9853,-1.9813,-1.9546,-1.9386,-1.9426,-1.9399,-1.9372,-1.9372,-1.9372,-1.9372,-1.9372,-1.9372,-1.9372,-1.9372,-1.9372,-1.9345,-1.9305,-1.9092,-1.9092,-1.9292,-1.9092,-1.8985,-1.8985,-1.8945,-1.8798,-1.4082,-1.4188,-1.4295,-1.4309,-1.4322,-1.4282,-1.4122,0.0,0.0,0.0,0.0,0.0,0.0,0.0,0.0,0.0,0.0,0.0,0.0,0.0,0.0,0.0,0.0,0.0,0.0,0.0,0.0,0.0,0.0,0.0,0.0,0.0,-2.1176,-2.1309,-2.1176,-2.1109,-2.1109,-2.1109,-2.1176,-2.1309,-2.1176,-2.1109,-2.1109,-2.1109,-2.1109,-2.1109,0.0,-2.1109,-2.1109,-2.1109,-2.1109,-2.1096,-2.0935,-2.0869,-2.098,-2.1656,-2.1868,-2.1804,-2.2944,-2.4367,-2.57,-2.6065,-2.6761,-2.7464,-2.7464,-2.7337,-2.7231,-2.7509,-2.6625,-2.5778,-2.6857,-2.7477,-2.7966,-2.8165,-2.8501,-2.8555,-2.8137,-2.7615,-2.6707,-2.5494,-2.3737,-2.2333,-2.2047,-2.0929,-2.0187,-2.0615,-2.0441,-2.016,-1.984,-1.9679,-1.9546,-1.9386,-1.9372,-1.9372,-1.9372,-1.9372,-1.9372,-1.9372,-1.9372,-1.9372,-1.9372,-1.9372,-1.9372,-1.9372,-1.9239,-1.9225,-1.9372,-1.9225,-1.9078,-1.8931,-1.9092,-1.9011,-1.4082,-1.4135,-1.4229,-1.4376,0.0,-1.4416,-1.4402,0.0,0.0,0.0,0.0,0.0,0.0,0.0,0.0,0.0,0.0,0.0,0.0,0.0,0.0,0.0,0.0,0.0,0.0,0.0,0.0,0.0,0.0,0.0,0.0,0.0,-2.1109,-2.1109,-2.1109,-2.1109,-2.1109,-2.1109,-2.1109,-2.1109,-2.1109,-2.1109,-2.1109,-2.1109,-2.1362,-2.1727,-2.1727,-2.1853,-2.2201,-2.2201,-2.1923,-2.1603,-2.1369,-2.1273,-2.1368,-2.2362,-2.3108,-2.3834,-2.4746,-2.6162,-2.7566,-2.786,-2.8786,-2.9726,-2.9726,-2.9648,-2.9473,-2.8584,-2.7939,-2.7735,-2.8868,-2.9629,-3.0078,-3.0176,-3.0238,-3.0142,-2.968,-2.9564,-2.9058,-2.7516,-2.5746,-2.4284,-2.3595,-2.1723,-2.0441,-2.0735,-2.0655,-2.0414,-1.996,-1.984,-1.972,-1.9492,-1.9466,-1.9439,-1.9372,-1.9372,-1.9372,-1.9372,-1.9372,-1.9372,-1.9372,-1.9372,-1.9372,-1.9372,-1.9372,-1.9372,-1.9372,-1.9372,-1.9252,-1.9025,-1.9185,-1.9185,-1.4082,-1.4282,-1.4429,-1.4175,0.0,0.0,-1.5124,-1.511,0.0,0.0,0.0,0.0,0.0,0.0,0.0,0.0,0.0,0.0,0.0,0.0,0.0,0.0,0.0,0.0,0.0,0.0,0.0,0.0,0.0,0.0,0.0,0.0,-2.1109,-2.1109,-2.1109,-2.1109,-2.1109,-2.1109,-2.1109,-2.1109,-2.1109,-2.1109,-2.1109,-2.1109,-2.1978,-2.345,-2.345,-2.4301,-2.5619,-2.5619,-2.459,-2.2989,-2.2959,-2.2959,-2.2914,-2.2602,-2.4553,-2.7392,-2.6982,-2.8254,-2.9984,-3.0023,-3.0042,-3.0156,-3.0156,-2.9883,-2.925,-2.7345,-2.8333,-2.9984,-3.0098,-2.9863,-2.9707,-3.0098,-2.9163,-2.8119,-2.7966,-2.6731,-2.5545,-2.5746,-2.4229,-2.2946,-2.3051,-2.1751,-2.0748,-2.1029,-2.0615,-2.0254,-2.0214,-1.996,-1.9786,-1.9773,-1.9773,-1.9653,-1.9386,-1.9372,-1.9372,-1.9372,-1.9372,-1.9372,-1.9372,-1.9372,-1.9372,-1.9372,-1.9372,-1.9372,-1.9372,-1.9372,-1.9359,-1.9332,-1.9078,-1.9092,-1.4082,-1.4295,-1.4496,-1.4389,0.0,0.0,0.0,0.0,0.0,0.0,0.0,0.0,0.0,0.0,0.0,0.0,0.0,0.0,0.0,0.0,0.0,0.0,0.0,0.0,0.0,0.0,0.0,0.0,0.0,0.0,0.0,0.0,-2.1109,-2.1109,-2.1109,-2.1109,-2.1109,-2.1109,-2.1109,-2.1109,-2.1109,-2.1109,-2.1109,-2.1109,-2.1475,-2.209,-2.209,-2.2352,-2.2661,-2.285,-2.2276,-2.132,-2.2067,-2.3027,-2.3981,-2.5111,-2.629,-2.7488,-2.8632,-2.9584,-3.0195,-3.0195,-3.0391,-3.0566,-3.0293,-2.9489,-2.8347,-2.7355,-2.7526,-2.8089,-2.8331,-2.9374,-3.043,-3.0586,-2.9404,-2.8491,-2.9181,-2.7222,-2.5747,-2.6741,-2.4703,-2.2886,-2.329,-2.1892,-2.0775,-2.1069,-2.0922,-2.0708,-2.0535,-2.0254,-2.0067,-2.0067,-1.9907,-1.9679,-1.9399,-1.9372,-1.9372,-1.9372,-1.9372,-1.9372,-1.9372,-1.9372,-1.9372,-1.9372,-1.9372,-1.9372,-1.9372,-1.9372,-1.9265,-1.9092,-1.8971,-1.8985,-1.3948,-1.4028,-1.4148,0.0,0.0,0.0,0.0,0.0,0.0,0.0,0.0,0.0,0.0,0.0,0.0,0.0,0.0,0.0,0.0,0.0,0.0,0.0,0.0,0.0,0.0,0.0,0.0,0.0,0.0,0.0,0.0,0.0,-2.2452,-2.1978,-2.1853,-2.156,-2.0975,-2.0975,-2.0975,-2.0975,-2.0975,-2.1015,-2.1109,-2.1015,-2.1213,-2.17,-2.1603,-2.1807,-2.2097,-2.2313,-2.2083,-2.1579,-2.2281,-2.3584,-2.5196,-2.6465,-2.7359,-2.8087,-2.9543,-3.0,-3.0039,-3.0332,-3.0527,-3.0644,-3.0469,-2.9604,-2.8455,-2.7591,-2.7395,-2.7567,-2.7246,-2.8653,-3.0332,-3.0605,-2.9348,-2.8093,-2.8514,-2.7285,-2.6116,-2.6234,-2.4622,-2.3438,-2.3307,-2.1751,-2.0628,-2.0922,-2.0895,-2.0762,-2.0561,-2.0361,-2.0201,-2.0107,-1.992,-1.9679,-1.9399,-1.9372,-1.9372,-1.9372,-1.9372,-1.9372,-1.9372,-1.9372,-1.9372,-1.9372,-1.9372,-1.9372,-1.9372,-1.9372,-1.9265,-1.9065,-1.8971,-1.8918,-1.3559,-1.344,-1.336,0.0,0.0,0.0,0.0,0.0,0.0,0.0,0.0,0.0,0.0,0.0,0.0,0.0,0.0,0.0,0.0,0.0,0.0,0.0,0.0,0.0,0.0,0.0,0.0,0.0,0.0,0.0,0.0,-2.5984,-2.5253,-2.3698,-2.3574,-2.2682,-2.0681,-2.0668,-2.0668,-2.0668,-2.0668,-2.0828,-2.1096,-2.0815,-2.1519,-2.3066,-2.2737,-2.3638,-2.5011,-2.5011,-2.4796,-2.4447,-2.397,-2.5061,-2.6716,-2.6299,-2.7584,-2.957,-2.957,-2.957,-2.9707,-3.0586,-3.0566,-3.0273,-3.0742,-3.0547,-2.9736,-2.782,-2.839,-2.9119,-2.7215,-2.7788,-2.9121,-3.0,-2.869,-2.6893,-2.5244,-2.6186,-2.6301,-2.3284,-2.3858,-2.4428,-2.2944,-2.13,-2.0334,-2.0628,-2.0428,-2.0241,-2.0227,-2.0227,-2.012,-1.9826,-1.98,-1.9679,-1.9399,-1.9372,-1.9372,-1.9372,-1.9372,-1.9372,-1.9372,-1.9372,-1.9372,-1.9372,-1.9372,-1.9372,-1.9372,-1.9372,-1.9372,-1.9359,-1.9065,-1.8918,-1.3948,-1.4041,0.0,0.0,0.0,0.0,0.0,0.0,0.0,0.0,0.0,0.0,0.0,0.0,0.0,0.0,0.0,0.0,0.0,0.0,0.0,0.0,0.0,0.0,0.0,0.0,0.0,0.0,0.0,0.0,0.0,-2.5984,-2.5253,-2.3698,-2.335,-2.2451,-2.0681,-2.0468,-2.0361,-2.0361,-2.0361,-2.0628,-2.1096,-2.0815,-2.0916,-2.1382,-2.1078,-2.1054,-2.1406,-2.2321,-2.3894,-2.5821,-2.5529,-2.6354,-2.7828,-2.7981,-2.8539,-2.916,-2.9473,-2.957,-2.9609,-2.9883,-2.9863,-2.9785,-2.9922,-2.8955,-2.7734,-2.7428,-2.7176,-2.7179,-2.706,-2.6993,-2.7509,-2.9676,-2.8576,-2.7007,-2.6664,-2.5043,-2.3247,-2.233,-2.1774,-2.127,-2.1018,-2.0767,-2.0508,-2.0388,-2.0468,-2.0401,-1.9987,-2.0107,-2.004,-1.9546,-1.9679,-1.9679,-1.9399,-1.9372,-1.9372,-1.9372,-1.9372,-1.9372,-1.9372,-1.9372,-1.9372,-1.9372,-1.9372,-1.9372,-1.9372,-1.9372,-1.9372,-1.9359,-1.9065,-1.9038,-1.3734,0.0,0.0,0.0,0.0,0.0,0.0,0.0,0.0,0.0,0.0,0.0,0.0,0.0,0.0,0.0,0.0,0.0,0.0,0.0,0.0,0.0,0.0,0.0,0.0,0.0,0.0,0.0,0.0,0.0,0.0,-2.7452,-2.6389,-2.4127,-2.3925,-2.2691,-2.0334,-2.0147,-2.0054,-2.0054,-2.0054,-2.0659,-2.1602,-2.0699,-2.0686,-2.125,-2.1522,-2.1496,-2.1538,-2.2796,-2.4513,-2.6388,-2.6809,-2.7511,-2.832,-2.8574,-2.8672,-2.873,-2.916,-2.9199,-2.9121,-2.9453,-2.9453,-2.9355,-2.9512,-2.8703,-2.7642,-2.8052,-2.7586,-2.7082,-2.7753,-2.7437,-2.7431,-2.9443,-2.7992,-2.6075,-2.6189,-2.4515,-2.2598,-2.1235,-2.0755,-2.0358,-1.9972,-2.004,-2.0134,-2.0067,-2.0214,-2.0201,-1.984,-1.9853,-1.976,-1.9399,-1.9519,-1.9559,-1.9386,-1.9372,-1.9372,-1.9372,-1.9372,-1.9372,-1.9372,-1.9372,-1.9372,-1.9372,-1.9372,-1.9372,-1.9372,-1.9372,-1.9372,-1.9359,-1.9185,-1.9132,0.0,0.0,0.0,0.0,0.0,0.0,0.0,0.0,0.0,0.0,0.0,0.0,0.0,0.0,0.0,0.0,0.0,0.0,0.0,0.0,0.0,0.0,0.0,0.0,0.0,0.0,0.0,0.0,0.0,0.0,0.0,-2.9346,-2.7937,-2.4778,-2.4629,-2.3083,-1.98,-1.9773,-1.976,0.0,-1.9878,-2.083,-2.2379,-2.0726,-2.0808,-2.2236,-2.3279,-2.3933,-2.4156,-2.548,-2.6155,-2.6372,-2.7726,-2.8301,-2.8301,-2.8301,-2.8301,-2.834,-2.873,-2.8613,-2.8418,-2.9199,-2.918,-2.8926,-2.9336,-2.918,-2.8945,-2.9394,-2.8926,-2.8398,-2.8809,-2.8486,-2.8261,-2.9036,-2.6857,-2.4561,-2.4367,-2.4236,-2.3324,-1.9979,-2.0472,-2.0916,-1.9591,-1.9386,-1.9492,-1.976,-1.9773,-1.976,-1.976,-1.9533,-1.9372,-1.9372,-1.9372,-1.9372,-1.9372,-1.9372,-1.9372,-1.9372,-1.9372,-1.9372,-1.9372,-1.9372,-1.9372,-1.9372,-1.9372,-1.9372,-1.9372,-1.9372,-1.9372,-1.9372,-1.9372,-1.9225,0.0,0.0,0.0,0.0,0.0,0.0,0.0,0.0,0.0,0.0,0.0,0.0,0.0,0.0,0.0,0.0,0.0,0.0,0.0,0.0,0.0,0.0,0.0,0.0,0.0,0.0,0.0,0.0,0.0,0.0,-2.7823,-2.7823,-2.6434,-2.3284,-2.2889,-2.1803,-1.98,-1.9573,-1.9466,0.0,-2.0686,-2.1391,-2.181,-2.1641,-2.2276,-2.3488,-2.3743,-2.4488,-2.559,-2.5936,-2.6825,-2.7833,-2.8174,-2.8301,-2.8301,-2.8301,-2.8301,-2.8301,-2.8398,-2.8359,-2.832,-2.8516,-2.8496,-2.8437,-2.8535,-2.8496,-2.8516,-2.8945,-2.8691,-2.8398,-2.8809,-2.7687,-2.6645,-2.6811,-2.6244,-2.5249,-2.3158,-2.2429,-2.1675,-1.972,-1.9707,-1.9809,-1.9475,-1.9559,-1.9733,-1.9786,-1.9599,-1.9466,-1.9466,-1.9412,-1.9372,-1.9372,-1.9372,-1.9372,-1.9372,-1.9372,-1.9372,-1.9372,-1.9372,-1.9372,-1.9372,-1.9372,-1.9372,-1.9372,-1.9372,-1.9372,-1.9372,-1.9372,-1.9372,-1.9372,-1.9372,-1.9332,0.0,0.0,0.0,0.0,0.0,0.0,0.0,0.0,0.0,0.0,0.0,0.0,0.0,0.0,0.0,0.0,0.0,0.0,0.0,0.0,0.0,0.0,0.0,0.0,0.0,0.0,0.0,0.0,0.0,-2.7994,-2.6336,-2.6209,-2.4872,-2.1873,-2.1579,-2.0714,-1.9172,-1.968,-1.9921,-1.9921,-2.1345,-2.2434,-2.3092,-2.3743,-2.4323,-2.4931,-2.5608,-2.6281,-2.6886,-2.7093,-2.7504,-2.8008,-2.8203,-2.8301,-2.8301,-2.8301,-2.8301,-2.8301,-2.8301,-2.8301,-2.8301,-2.8301,-2.8301,-2.8301,-2.8301,-2.8301,-2.8379,-2.8809,-2.8613,-2.8398,-2.8809,-2.8033,-2.6825,-2.5371,-2.4488,-2.3519,-2.2253,-2.1147,-2.0371,-1.9591,-1.9372,-1.9372,-1.9372,-1.9492,-1.9599,-1.9599,-1.9466,-1.9372,-1.9372,-1.9372,-1.9372,-1.9372,-1.9372,-1.9372,-1.9372,-1.9372,-1.9372,-1.9372,-1.9372,-1.9372,-1.9372,-1.9372,-1.9372,-1.9372,-1.9372,-1.9372,-1.9372,-1.9372,-1.9372,-1.9372,-1.9372,-1.9372,0.0,0.0,0.0,0.0,0.0,0.0,0.0,0.0,0.0,0.0,0.0,0.0,0.0,0.0,0.0,0.0,0.0,0.0,0.0,0.0,0.0,0.0,0.0,0.0,0.0,0.0,0.0,0.0,0.0,-2.6199,-2.4664,-2.4646,-2.3474,-2.114,-2.1032,-2.0397,-1.9236,-2.0288,-2.0816,-2.0816,-2.2215,-2.3702,-2.5203,-2.5986,-2.6316,-2.6389,-2.763,-2.8027,-2.7793,-2.8066,-2.8027,-2.7812,-2.8164,-2.8301,-2.8301,-2.8301,-2.8301,-2.8301,-2.8301,-2.8301,-2.8301,-2.8301,-2.8301,-2.8301,-2.8301,-2.8301,-2.8359,-2.8365,-2.8211,-2.793,-2.8038,-2.7758,-2.6844,-2.4044,-2.2476,-2.1586,-2.1259,-2.0256,-1.9372,-1.9372,-1.9372,-1.9372,-1.9372,-1.9372,-1.9372,-1.9372,-1.9372,-1.9372,-1.9372,-1.9372,-1.9372,-1.9372,-1.9372,-1.9372,-1.9372,-1.9372,-1.9372,-1.9372,-1.9372,-1.9372,-1.9372,-1.9372,-1.9372,-1.9372,-1.9372,-1.9372,-1.9372,-1.9372,-1.9372,-1.9372,-1.9319,-1.9319,0.0,0.0,0.0,0.0,0.0,0.0,0.0,0.0,0.0,0.0,0.0,0.0,0.0,0.0,0.0,0.0,0.0,0.0,0.0,0.0,0.0,0.0,0.0,0.0,0.0,0.0,0.0,0.0,-2.4193,-2.333,-2.3068,-2.3068,-2.2749,-2.2322,-2.2215,-2.2215,-2.2001,-2.2108,-2.2215,-2.2215,-2.3808,-2.5289,-2.6705,-2.6821,-2.7072,-2.7524,-2.7649,-2.793,-2.8184,-2.7871,-2.793,-2.8223,-2.8262,-2.8301,-2.8301,-2.8301,-2.8301,-2.8301,-2.8301,-2.8301,-2.8301,-2.8301,-2.8301,-2.8301,-2.8301,-2.8301,-2.8067,-2.6772,-2.6427,-2.6063,-2.4778,-2.4411,-2.3933,-2.2251,-2.1699,-2.1259,-1.9924,-1.9591,-1.9372,-1.9372,-1.9372,-1.9372,-1.9372,-1.9372,-1.9372,-1.9372,-1.9372,-1.9372,-1.9372,-1.9372,-1.9372,-1.9372,-1.9372,-1.9372,-1.9372,-1.9372,-1.9372,-1.9372,-1.9372,-1.9372,-1.9372,-1.9372,-1.9372,-1.9372,-1.9372,-1.9372,-1.9372,-1.9372,-1.9372,-1.9359,-1.9105,-1.9118,0.0,0.0,0.0,0.0,0.0,0.0,0.0,0.0,0.0,0.0,0.0,0.0,0.0,0.0,0.0,0.0,0.0,0.0,0.0,0.0,0.0,0.0,0.0,0.0,0.0,0.0,0.0,0.0,-2.4754,-2.3941,-2.1841,-2.2741,-2.2758,-2.1722,-2.1919,-2.2034,-2.2034,-2.2554,-2.316,-2.3981,-2.4839,-2.5672,-2.6309,-2.6562,-2.6894,-2.7305,-2.7305,-2.7402,-2.7578,-2.7637,-2.7773,-2.7969,-2.8203,-2.8301,-2.8301,-2.8301,-2.8301,-2.8301,-2.8301,-2.8301,-2.8301,-2.8301,-2.8301,-2.8301,-2.8301,-2.8301,-2.796,-2.6499,-2.6155,-2.5717,-2.4156,-2.3822,-2.3375,-2.1926,-2.1586,-2.1259,-1.9707,-1.9239,-1.9118,-1.9118,-1.9252,-1.9372,-1.9372,-1.9372,-1.9372,-1.9372,-1.9372,-1.9372,-1.9372,-2.0141,-2.0587,-2.0587,-2.0587,-2.0587,-2.0587,-1.9924,-1.9372,-1.9372,-1.9372,-1.9372,-1.9372,-1.9372,-1.9372,-1.9372,-1.9199,-1.9199,-1.9372,-1.9038,-1.8958,-1.9118,-1.8811,-1.8758,0.0,0.0,0.0,0.0,0.0,0.0,0.0,0.0,0.0,0.0,0.0,0.0,0.0,0.0,0.0,0.0,0.0,0.0,0.0,0.0,0.0,0.0,0.0,0.0,0.0,0.0,0.0,0.0,-2.4664,-2.4035,-2.1624,-2.2681,-2.2957,-2.1862,-2.2322,-2.2512,-2.2512,-2.334,-2.4237,-2.5234,-2.5586,-2.5742,-2.5742,-2.6074,-2.6387,-2.6699,-2.6914,-2.7012,-2.7031,-2.7363,-2.75,-2.7539,-2.7851,-2.8027,-2.8125,-2.8125,-2.8203,-2.8301,-2.8301,-2.8301,-2.8301,-2.8301,-2.8301,-2.8301,-2.8301,-2.8067,-2.7403,-2.5936,-2.5261,-2.4599,-2.3039,-2.2717,-2.2379,-2.1259,-2.0972,-2.0601,-1.9577,-1.9199,-1.9038,-1.9038,-1.9212,-1.9372,-1.9372,-1.9372,-1.9372,-1.9372,-1.9707,-1.9924,-1.9924,-2.1259,-2.204,-2.1699,-2.1586,-2.1472,-2.1031,-2.004,-1.9372,-1.9372,-1.9372,-1.9372,-1.9372,-1.9372,-1.9372,-1.9372,-1.8998,-1.8958,-1.9252,-1.8744,-1.8597,-1.8811,-1.8517,-1.8464,0.0,0.0,0.0,0.0,0.0,0.0,0.0,0.0,0.0,0.0,0.0,0.0,0.0,0.0,0.0,0.0,0.0,0.0,0.0,0.0,0.0,0.0,0.0,0.0,0.0,0.0,0.0,0.0,-2.2257,-2.1739,-2.2797,-2.2667,-2.3036,-2.4156,-2.4675,-2.4908,-2.4908,-2.5392,-2.5606,-2.5703,-2.5723,-2.5742,-2.5742,-2.5762,-2.5781,-2.584,-2.666,-2.7012,-2.7012,-2.7031,-2.7051,-2.7051,-2.707,-2.7324,-2.7695,-2.7695,-2.7949,-2.8301,-2.8301,-2.8301,-2.8301,-2.8301,-2.8301,-2.8301,-2.8301,-2.7276,-2.5936,-2.4378,-2.2927,-2.1472,-2.004,-1.9591,-1.9591,-1.9475,-1.926,-1.9139,-1.9305,-1.9359,-1.9345,-1.9345,-1.9359,-1.9372,-1.9372,-1.9372,-1.9372,-1.9372,-2.0587,-2.1472,-2.1472,-2.2814,-2.3151,-2.1699,-2.1586,-2.1031,-1.9591,-1.9488,-1.9372,-1.9372,-1.9372,-1.9372,-1.9372,-1.9372,-1.9372,-1.9372,-1.8811,-1.8651,-1.8945,-1.8637,-1.8504,-1.8504,-1.821,-1.837,0.0,0.0,0.0,0.0,0.0,0.0,0.0,0.0,0.0,0.0,0.0,0.0,0.0,0.0,0.0,0.0,0.0,0.0,0.0,0.0,0.0,0.0,0.0,0.0,0.0,0.0,0.0,0.0,0.0,-2.3363,-2.2631,-2.3261,-2.3817,-2.4023,-2.4434,-2.4531,-2.4258,-2.4668,-2.4766,-2.4492,-2.4766,-2.5039,-2.5312,-2.5312,-2.5469,-2.5762,-2.6367,-2.6602,-2.6602,-2.6602,-2.6777,-2.7012,-2.7012,-2.7109,-2.7285,-2.7559,-2.7754,-2.793,-2.8203,-2.8301,-2.8242,-2.7988,-2.8066,-2.8009,-2.6849,-2.6096,-2.5271,-2.3087,-2.1872,-2.0994,-1.9768,-1.9372,-1.9372,-1.9372,-1.9145,-1.9226,-2.0516,-1.9873,-1.9078,-1.9078,-1.9239,-1.9372,-1.9372,-1.9372,-1.9707,-2.0702,-2.1259,-2.1911,-2.2927,-2.3487,-2.3599,-2.3039,-2.2138,-2.1358,-2.0802,-1.9924,-1.9372,-1.9372,-1.9372,-1.9372,-1.9372,-1.9372,-1.9372,-1.9372,-1.8784,-1.8637,-1.8918,-1.8237,-1.8009,-1.8196,-1.7889,-1.7862,-2.0937,0.0,0.0,0.0,0.0,0.0,0.0,0.0,0.0,0.0,0.0,0.0,0.0,0.0,0.0,0.0,0.0,0.0,0.0,0.0,0.0,0.0,0.0,0.0,0.0,0.0,0.0,0.0,0.0,0.0,-2.2908,-2.3606,-2.3926,-2.3789,-2.4062,-2.4141,-2.4004,-2.4277,-2.4277,-2.4004,-2.4277,-2.457,-2.4844,-2.4844,-2.5019,-2.5312,-2.5762,-2.6035,-2.6191,-2.6328,-2.6465,-2.6582,-2.6582,-2.668,-2.6855,-2.7285,-2.7441,-2.7519,-2.8105,-2.8105,-2.7851,-2.7715,-2.7419,-2.693,-2.566,-2.4597,-2.3577,-2.185,-2.0847,-2.0286,-1.9388,-1.974,-2.0228,-2.0687,-2.0612,-2.0706,-2.1785,-2.0735,-1.9709,-1.9821,-2.0002,-2.004,-1.9475,-1.9809,-2.0472,-2.1472,-2.2476,-2.3263,-2.371,-2.4267,-2.4156,-2.3151,-2.2138,-2.1358,-2.0916,-1.9924,-1.9372,-1.9372,-1.9372,-1.9372,-1.9372,-1.9372,-1.9372,-1.9372,-1.8784,-1.8584,-1.8771,-1.7969,-1.7689,-1.7889,-1.7675,-1.7689,0.0,0.0,0.0,0.0,0.0,0.0,0.0,0.0,0.0,0.0,0.0,0.0,0.0,0.0,0.0,0.0,0.0,0.0,0.0,0.0,0.0,0.0,0.0,0.0,0.0,0.0,0.0,0.0,-2.4023,-2.3789,-2.3789,-2.3379,-2.334,-2.375,-2.3769,-2.3965,-2.4375,-2.4375,-2.4375,-2.4375,-2.4375,-2.4394,-2.4394,-2.4394,-2.4414,-2.4434,-2.4863,-2.5293,-2.5742,-2.6191,-2.6113,-2.5742,-2.5742,-2.5996,-2.6426,-2.6836,-2.6992,-2.7109,-2.7969,-2.7715,-2.709,-2.75,-2.6371,-2.4959,-2.4855,-2.2928,-2.0693,-2.0599,-1.975,-1.8905,-1.8918,-2.0359,-2.1948,-2.3173,-2.3402,-2.3303,-2.2848,-2.1962,-2.1294,-2.1511,-2.1586,-2.1145,-1.9707,-2.0587,-2.1586,-2.1586,-2.4156,-2.548,-2.4044,-2.5041,-2.482,-2.1911,-2.1586,-2.0916,-1.9475,-1.9372,-1.9372,-1.9372,-1.9372,-1.9372,-1.9372,-1.9372,-1.9359,-1.9359,-1.8784,-1.849,-1.8477,-1.7876,-1.7582,-1.7582,-1.7582,-1.7903,-2.0566,0.0,0.0,0.0,0.0,0.0,0.0,0.0,0.0,0.0,0.0,0.0,0.0,0.0,0.0,0.0,0.0,0.0,0.0,0.0,0.0,0.0,0.0,0.0,0.0,0.0,0.0,0.0,-2.4023,-2.3789,-2.3789,-2.3379,-2.3184,-2.332,-2.332,-2.3379,-2.3496,-2.3496,-2.3496,-2.3496,-2.3496,-2.3652,-2.3965,-2.3965,-2.4121,-2.4414,-2.4551,-2.4668,-2.4844,-2.5605,-2.584,-2.5742,-2.5742,-2.5801,-2.5977,-2.6406,-2.6562,-2.6641,-2.7187,-2.7207,-2.6768,-2.5619,-2.5142,-2.4593,-2.2225,-2.1,-2.0208,-1.9386,-1.8714,-1.8604,-2.01,-2.178,-2.3231,-2.3595,-2.3585,-2.3762,-2.4911,-2.4698,-2.3729,-2.1532,-2.1421,-2.1145,-1.9707,-2.0587,-2.1586,-2.1586,-2.3263,-2.4267,-2.3822,-2.3263,-2.2476,-2.1699,-2.0702,-1.9809,-1.9475,-1.9372,-1.9372,-1.9372,-1.9372,-1.9372,-1.9372,-1.9372,-1.9265,-1.9052,-1.8677,-1.8384,-1.8143,-1.7769,-1.7582,-1.7582,-1.7582,-1.7675,-2.0566,-2.0566,0.0,0.0,0.0,0.0,-1.9961,-2.0254,0.0,0.0,0.0,0.0,0.0,0.0,0.0,0.0,0.0,0.0,0.0,0.0,0.0,0.0,0.0,0.0,0.0,-2.3516,-2.3613,-2.3867,-2.3652,-2.3516,-2.3516,-2.3281,-2.3144,-2.3144,-2.3144,-2.3299,-2.38,-2.38,-2.4059,-2.4467,-2.4059,-2.3941,-2.4183,-2.3693,-2.3652,-2.3887,-2.4082,-2.416,-2.4199,-2.4902,-2.5293,-2.5469,-2.5664,-2.5742,-2.5801,-2.623,-2.6269,-2.6211,-2.6797,-2.6777,-2.6365,-2.5447,-2.4434,-2.3289,-2.1315,-2.0016,-1.9021,-1.8266,-1.8591,-1.9708,-2.2259,-2.3871,-2.4931,-2.5498,-2.5557,-2.5739,-2.6565,-2.6742,-2.6025,-2.3492,-2.2784,-2.204,-2.0587,-2.1031,-2.1586,-2.1586,-2.2814,-2.3599,-2.2927,-2.2138,-2.1358,-2.0702,-1.9814,-1.9239,-1.9359,-1.9252,-1.9239,-1.9359,-1.9372,-1.9372,-1.9372,-1.9372,-1.9225,-1.8931,-1.8637,-1.8277,-1.7836,-1.7662,-1.7582,-1.7582,-1.7582,-1.7649,-2.0566,-2.0566,-2.0664,-2.1055,0.0,0.0,-2.0019,-2.0254,-2.0449,0.0,0.0,0.0,0.0,0.0,0.0,0.0,0.0,0.0,0.0,0.0,0.0,0.0,0.0,0.0,-2.3144,-2.3144,-2.3144,-2.3144,-2.3144,-2.3144,-2.3144,-2.3144,-2.3144,-2.3144,-2.3212,-2.38,-2.4787,-2.4957,-2.5462,-2.6483,-2.5378,-2.4787,-2.4787,-2.3627,-2.3144,-2.3164,-2.3555,-2.3711,-2.375,-2.418,-2.4609,-2.5039,-2.5488,-2.5664,-2.5723,-2.6152,-2.6074,-2.584,-2.6602,-2.6348,-2.5723,-2.5916,-2.3981,-2.1544,-2.1476,-1.9671,-1.7843,-1.7975,-1.9575,-2.185,-2.4632,-2.5829,-2.6717,-2.796,-2.8301,-2.8184,-2.7602,-2.7796,-2.7618,-2.6155,-2.471,-2.3263,-2.1586,-2.1472,-2.1586,-2.1358,-2.2589,-2.3039,-2.1586,-2.1358,-2.0802,-1.9591,-1.9105,-1.9025,-1.9292,-1.9078,-1.9038,-1.9305,-1.9345,-1.9372,-1.9372,-1.9332,-1.9185,-1.8878,-1.8557,-1.8143,-1.7635,-1.7595,-1.7582,-1.7582,-1.7582,-1.7729,0.0,0.0,0.0,0.0,0.0,0.0,-2.0019,-2.0254,-2.0449,0.0,0.0,0.0,0.0,0.0,0.0,0.0,0.0,0.0,0.0,0.0,0.0,0.0,0.0,0.0,-2.3144,-2.3144,-2.3144,-2.3144,-2.3144,-2.3144,-2.3144,-2.3144,-2.3144,-2.3144,-2.3953,-2.4532,-2.4787,-2.5714,-2.6318,-2.6483,-2.5378,-2.4787,-2.4787,-2.3627,-2.3144,-2.3144,-2.3223,-2.3262,-2.3301,-2.373,-2.416,-2.459,-2.5019,-2.5195,-2.5254,-2.5703,-2.5801,-2.5762,-2.5937,-2.5644,-2.5024,-2.4003,-2.2372,-2.0639,-1.9753,-1.9239,-1.9197,-2.0562,-2.2482,-2.435,-2.4963,-2.6499,-2.796,-2.8174,-2.8301,-2.7941,-2.6732,-2.6444,-2.6045,-2.4599,-2.4044,-2.2927,-2.0256,-2.0802,-2.1259,-2.004,-2.1031,-2.1487,-2.004,-1.9809,-1.9707,-1.9475,-1.9105,-1.8945,-1.8998,-1.8958,-1.8945,-1.8998,-1.9239,-1.9372,-1.9372,-1.9132,-1.8878,-1.8584,-1.8036,-1.7822,-1.7956,-1.7702,-1.7582,-1.7582,-1.7582,-1.7609,0.0,0.0,0.0,-2.084,0.0,0.0,0.0,-2.0586,-2.0723,0.0,0.0,0.0,0.0,0.0,0.0,0.0,0.0,0.0,0.0,0.0,0.0,0.0,0.0,0.0,-2.2519,-2.2519,-2.2598,-2.2812,-2.2832,-2.2832,-2.2832,-2.2617,-2.2519,-2.2519,-2.3072,-2.3741,-2.4451,-2.5035,-2.5744,-2.6483,-2.5378,-2.4787,-2.4787,-2.3627,-2.3144,-2.3144,-2.3144,-2.3144,-2.3164,-2.3379,-2.3594,-2.3848,-2.4492,-2.4746,-2.4766,-2.5,-2.5078,-2.5078,-2.5078,-2.4941,-2.4652,-2.3956,-2.2799,-2.1662,-2.1163,-2.0748,-2.0724,-2.2315,-2.3591,-2.4827,-2.5769,-2.694,-2.8027,-2.8242,-2.7726,-2.7041,-2.6264,-2.548,-2.471,-2.3933,-2.3822,-2.3039,-2.0931,-2.0472,-2.0256,-1.9475,-2.004,-2.0256,-1.9475,-1.9372,-1.9372,-1.9372,-1.8971,-1.8771,-1.8918,-1.8651,-1.8611,-1.8905,-1.9065,-1.9212,-1.9359,-1.9078,-1.8718,-1.8277,-1.7969,-1.7889,-1.805,-1.8036,-1.7956,-1.7809,-1.7649,-1.7582,0.0,0.0,0.0,0.0,0.0,-2.1348,0.0,0.0,0.0,0.0,0.0,0.0,0.0,0.0,0.0,0.0,0.0,0.0,0.0,0.0,0.0,0.0,0.0,0.0,0.0,-2.1934,-2.2031,-2.2363,-2.2383,-2.2383,-2.2383,-2.2217,-2.2185,-2.2185,-2.2349,-2.3104,-2.4445,-2.4527,-2.5174,-2.6483,-2.5378,-2.4787,-2.4787,-2.3627,-2.3144,-2.3144,-2.3144,-2.3144,-2.3144,-2.3144,-2.3144,-2.3223,-2.3984,-2.4297,-2.4316,-2.4394,-2.4414,-2.4414,-2.4414,-2.4355,-2.4297,-2.4297,-2.3429,-2.2593,-2.2973,-2.2472,-2.2047,-2.3683,-2.439,-2.5099,-2.6589,-2.7344,-2.7773,-2.7863,-2.6952,-2.5936,-2.5371,-2.4437,-2.3628,-2.3471,-2.355,-2.3294,-2.2251,-2.0816,-1.9809,-1.9809,-1.9591,-1.9372,-1.9372,-1.9372,-1.9372,-1.9372,-1.8838,-1.8584,-1.8824,-1.8357,-1.825,-1.8731,-1.8811,-1.8945,-1.9185,-1.8918,-1.8504,-1.7969,-1.7956,-1.7983,-1.805,-1.8223,-1.8223,-1.8036,-1.7796,-1.7635,0.0,0.0,0.0,0.0,-2.1797,0.0,0.0,0.0,-2.168,-2.1191,0.0,0.0,0.0,0.0,0.0,0.0,0.0,0.0,0.0,0.0,0.0,0.0,0.0,0.0,0.0,-2.2109,-2.1894,-2.1953,-2.1953,-2.1953,-2.1953,-2.2757,-2.3161,-2.3161,-2.414,-2.4913,-2.548,-2.5561,-2.5887,-2.6483,-2.5378,-2.4787,-2.4787,-2.3627,-2.3144,-2.3144,-2.3144,-2.3144,-2.3144,-2.3144,-2.3144,-2.3184,-2.3672,-2.3867,-2.3906,-2.4277,-2.4414,-2.4414,-2.4414,-2.418,-2.3867,-2.3867,-2.2426,-2.0992,-2.2708,-2.2571,-2.2265,-2.4707,-2.5838,-2.6265,-2.6793,-2.7344,-2.7439,-2.6624,-2.6264,-2.5371,-2.2702,-2.2688,-2.3002,-2.2091,-2.2577,-2.3349,-2.355,-2.2379,-2.1358,-2.1358,-2.0256,-1.9372,-1.9372,-1.9372,-1.9372,-1.9372,-1.8838,-1.8504,-1.8544,-1.8237,-1.8076,-1.8143,-1.8397,-1.8557,-1.8584,-1.8303,-1.7983,-1.7649,-1.7635,-1.7769,-1.805,-1.7809,-1.7809,-1.805,-1.8009,-1.7849,0.0,0.0,0.0,0.0,0.0,0.0,-2.2051,0.0,-2.1758,0.0,0.0,0.0,0.0,0.0,0.0,0.0,-2.0566,0.0,0.0,0.0,0.0,0.0,0.0,0.0,0.0,0.0,0.0,0.0,-2.0977,-2.1352,-2.1944,-2.2143,-2.256,-2.3351,-2.3297,-2.3587,-2.4239,-2.3798,-2.3846,-2.4553,-2.4059,-2.38,-2.38,-2.3299,-2.3144,-2.3144,-2.3144,-2.3144,-2.3144,-2.3144,-2.3144,-2.3164,-2.334,-2.3418,-2.3437,-2.3613,-2.3672,-2.3672,-2.3672,-2.3555,-2.3496,-2.3984,-2.2945,-2.1952,-2.4063,-2.3852,-2.3285,-2.5118,-2.5859,-2.6113,-2.6543,-2.6973,-2.7279,-2.7055,-2.5721,-2.4453,-2.4216,-2.31,-2.2513,-2.3961,-2.4573,-2.4977,-2.5133,-2.3151,-2.1586,-2.1586,-2.0371,-1.9372,-1.9372,-1.9212,-1.9105,-1.9105,-1.8584,-1.8237,-1.8237,-1.7956,-1.7849,-1.8036,-1.833,-1.841,-1.8237,-1.8116,-1.7903,-1.7595,-1.7756,-1.7916,-1.805,-1.809,-1.809,-1.805,-1.7862,-1.7809,-2.2051,0.0,0.0,0.0,0.0,0.0,0.0,0.0,0.0,0.0,0.0,0.0,0.0,0.0,0.0,0.0,0.0,-2.043,0.0,0.0,0.0,0.0,0.0,0.0,0.0,0.0,0.0,-2.0137,-2.0503,-2.104,-2.1774,-2.2048,-2.2723,-2.3868,-2.3045,-2.299,-2.37,-2.2613,-2.2422,-2.3144,-2.3144,-2.3144,-2.3144,-2.3144,-2.3144,-2.3144,-2.3144,-2.3144,-2.3144,-2.3144,-2.3144,-2.3144,-2.3144,-2.3144,-2.3144,-2.3144,-2.3144,-2.3144,-2.3144,-2.3223,-2.3437,-2.418,-2.3542,-2.299,-2.5102,-2.4707,-2.3998,-2.5333,-2.5742,-2.5859,-2.6426,-2.6699,-2.6871,-2.6979,-2.5058,-2.3428,-2.4333,-2.2654,-2.168,-2.4132,-2.4946,-2.5216,-2.5322,-2.3645,-2.204,-2.1699,-2.0301,-1.9239,-1.9239,-1.8985,-1.8811,-1.8811,-1.8357,-1.805,-1.805,-1.7756,-1.7675,-1.7903,-1.8116,-1.8183,-1.805,-1.7969,-1.7849,-1.7716,-1.7849,-1.7916,-1.7916,-1.813,-1.817,-1.8036,-1.7809,-1.7782,0.0,0.0,0.0,-2.2617,0.0,0.0,0.0,0.0,-2.2383,0.0,0.0,0.0,0.0,0.0,0.0,-2.0566,0.0,0.0,0.0,0.0,0.0,0.0,0.0,0.0,0.0,0.0,0.0,-2.0586,-2.0968,-2.1219,-2.1387,-2.3163,-2.44,-2.4921,-2.4443,-2.4314,-2.4748,-2.3247,-2.2715,-2.3144,-2.3144,-2.3144,-2.3144,-2.3144,-2.3144,-2.3144,-2.3144,-2.3144,-2.3144,-2.3144,-2.3144,-2.3144,-2.3144,-2.3144,-2.3144,-2.3144,-2.3144,-2.3144,-2.3144,-2.3418,-2.3848,-2.4277,-2.373,-2.3353,-2.5198,-2.4707,-2.3998,-2.5333,-2.5742,-2.5937,-2.6777,-2.6699,-2.6299,-2.5587,-2.4084,-2.2338,-2.0954,-2.0629,-2.0629,-2.0846,-2.1926,-2.3004,-2.3353,-2.3591,-2.3263,-2.1813,-2.0104,-1.8945,-1.8945,-1.8691,-1.8504,-1.8504,-1.8237,-1.805,-1.805,-1.7756,-1.7582,-1.7595,-1.7609,-1.7742,-1.8036,-1.7756,-1.7729,-1.8023,-1.7742,-1.7595,-1.7595,-1.7609,-1.7756,-1.805,-1.8009,-1.7849,0.0,0.0,-2.3105,-2.2969,0.0,0.0,0.0,0.0,0.0,0.0,0.0,0.0,0.0,0.0,-2.0566,-2.0566,-2.0449,0.0,0.0,0.0,0.0,0.0,0.0,0.0,0.0,0.0,0.0,-1.9336,-1.991,-2.0652,-2.1344,-2.2889,-2.4218,-2.5364,-2.4325,-2.3944,-2.4435,-2.29,-2.2305,-2.2734,-2.3008,-2.3144,-2.3144,-2.3144,-2.3144,-2.3144,-2.3144,-2.3144,-2.3144,-2.3144,-2.3144,-2.3144,-2.3144,-2.3144,-2.3144,-2.3144,-2.3144,-2.3144,-2.3144,-2.3418,-2.3867,-2.4277,-2.373,-2.3372,-2.5198,-2.4707,-2.3998,-2.5333,-2.5742,-2.5801,-2.6094,-2.6269,-2.6345,-2.6111,-2.4171,-2.2661,-2.3317,-2.1985,-2.0985,-2.2304,-2.2895,-2.2928,-2.2057,-2.1775,-2.1742,-2.1624,-2.0104,-1.8918,-1.8918,-1.849,-1.8196,-1.8196,-1.7929,-1.7742,-1.7742,-1.7649,-1.7582,-1.7582,-1.7582,-1.7622,-1.7729,-1.7836,-1.7836,-1.7742,-1.7836,-1.7796,-1.7582,-1.7582,-1.7635,-1.7742,-1.7729,-1.7782,-2.2891,-2.3027,0.0,-2.3144,-2.293,0.0,-2.2539,0.0,0.0,0.0,0.0,0.0,0.0,0.0,0.0,-2.0781,-2.0547,-2.0039,0.0,-1.9453,0.0,0.0,0.0,0.0,0.0,0.0,-1.9863,-1.9141,-1.9893,-2.0725,0.0,0.0,-2.4583,-2.5887,-2.4826,-2.4226,-2.4189,-2.314,-2.2812,-2.3072,-2.3513,-2.3887,-2.4317,-2.4317,-2.4059,-2.3714,-2.3714,-2.3474,-2.3144,-2.3144,-2.3144,-2.3144,-2.3144,-2.3144,-2.3144,-2.3144,-2.3144,-2.3164,-2.332,-2.3652,-2.4082,-2.4512,-2.4355,-2.4156,-2.5353,-2.5118,-2.4646,-2.5624,-2.5859,-2.5801,-2.6113,-2.6172,-2.6092,-2.571,-2.3865,-2.2278,-2.2927,-2.129,-2.0047,-2.1094,-2.1434,-2.1185,-2.0215,-1.9823,-1.9866,-2.0399,-1.9444,-1.8611,-1.8611,-1.8183,-1.7876,-1.7876,-1.7702,-1.7582,-1.7582,-1.7582,-1.7582,-1.7582,-1.7582,-1.7635,-1.7742,-1.7943,-1.805,-1.8063,-1.805,-1.7996,-1.7903,-1.7689,-1.7582,-1.7582,-1.7582,-1.7689]},{"header":{"parameterUnit":"m.s-1","parameterCategory":1,"la1":30.6,"la2":29.2853,"lo1":-89.7004,"lo2":-87.6739,"dy":0.0162,"dx":0.0183,"nx":112,"ny":82,"refTime":"2023-08-06T06:00:00:Z","depth":0,"parameterNumber":3,"parameterNumberName":"V-component_of_WINDS"},"data":[0.0,0.0,0.0,0.0,0.0,0.0,0.0,0.0,0.0,0.0,0.0,0.0,0.0,0.0,0.0,0.0,0.0,0.0,0.0,0.0,0.0,0.0,0.0,0.0,0.0,0.0,0.0,0.0,0.0,0.0,0.0,0.0,0.0,0.0,0.0,0.0,0.0,0.0,0.0,0.0,0.0,0.0,0.0,0.0,0.0,0.0,0.0,0.0,0.0,0.0,0.0,0.0,0.0,0.0,0.0,0.0,0.0,0.0,0.0,0.0,0.0,0.0,0.0,0.0,0.0,0.0,0.0,0.0,0.0,0.0,0.0,0.0,0.0,0.0,0.0,0.0,0.0,0.0,0.0,0.0,0.0,0.0,0.0,0.0,0.0,0.0,0.0,0.0,0.0,0.0,-4.1293,-4.2452,-4.5686,-4.7878,-4.8258,-4.872,-4.7428,-4.3715,0.0,0.0,0.0,0.0,0.0,0.0,0.0,0.0,0.0,0.0,0.0,0.0,0.0,0.0,0.0,0.0,0.0,0.0,0.0,0.0,0.0,0.0,0.0,0.0,0.0,0.0,0.0,0.0,0.0,0.0,0.0,0.0,0.0,0.0,0.0,0.0,0.0,0.0,0.0,0.0,0.0,0.0,0.0,0.0,0.0,0.0,0.0,0.0,0.0,0.0,0.0,0.0,0.0,0.0,0.0,0.0,0.0,0.0,0.0,0.0,0.0,0.0,0.0,0.0,0.0,0.0,0.0,0.0,0.0,0.0,0.0,0.0,0.0,0.0,0.0,0.0,0.0,0.0,0.0,0.0,0.0,0.0,0.0,0.0,0.0,0.0,0.0,0.0,0.0,0.0,0.0,0.0,0.0,0.0,0.0,0.0,0.0,0.0,0.0,0.0,0.0,0.0,0.0,0.0,-4.1646,-4.4955,-4.6743,-4.7841,-4.8164,-4.7692,-4.6455,-4.4268,0.0,0.0,0.0,0.0,0.0,0.0,0.0,0.0,0.0,0.0,0.0,0.0,0.0,0.0,0.0,0.0,0.0,0.0,0.0,0.0,0.0,0.0,0.0,0.0,0.0,0.0,0.0,0.0,0.0,0.0,0.0,0.0,0.0,0.0,0.0,0.0,0.0,0.0,0.0,0.0,0.0,0.0,0.0,0.0,0.0,0.0,0.0,0.0,0.0,0.0,0.0,0.0,0.0,0.0,0.0,0.0,0.0,0.0,0.0,0.0,0.0,0.0,0.0,0.0,0.0,0.0,0.0,0.0,0.0,0.0,0.0,0.0,0.0,0.0,0.0,0.0,0.0,0.0,0.0,0.0,0.0,0.0,0.0,0.0,0.0,0.0,0.0,0.0,0.0,0.0,0.0,0.0,0.0,0.0,0.0,0.0,0.0,0.0,0.0,0.0,0.0,0.0,0.0,-4.0971,-4.2804,-4.5897,-4.726,-4.8106,-4.8503,-4.7562,-4.6007,-4.3799,-4.2891,0.0,0.0,0.0,0.0,0.0,0.0,0.0,0.0,0.0,0.0,0.0,0.0,0.0,0.0,0.0,0.0,0.0,0.0,0.0,0.0,0.0,0.0,0.0,0.0,0.0,0.0,0.0,0.0,0.0,0.0,0.0,0.0,0.0,0.0,0.0,0.0,0.0,0.0,0.0,0.0,0.0,0.0,0.0,0.0,0.0,0.0,0.0,0.0,0.0,0.0,0.0,0.0,0.0,0.0,0.0,0.0,0.0,0.0,0.0,0.0,0.0,0.0,0.0,0.0,0.0,0.0,0.0,0.0,0.0,0.0,0.0,0.0,0.0,0.0,0.0,0.0,0.0,0.0,0.0,0.0,0.0,0.0,0.0,0.0,0.0,0.0,0.0,0.0,0.0,0.0,0.0,0.0,0.0,0.0,0.0,0.0,0.0,0.0,0.0,0.0,0.0,0.0,-4.218,-4.3738,-4.5935,-4.7237,-4.8018,-4.8196,-4.7049,-4.5355,-4.3239,-4.2085,0.0,0.0,0.0,0.0,0.0,0.0,0.0,0.0,0.0,0.0,0.0,0.0,0.0,0.0,0.0,0.0,0.0,0.0,0.0,0.0,0.0,0.0,0.0,0.0,0.0,0.0,0.0,0.0,0.0,0.0,0.0,0.0,0.0,0.0,0.0,0.0,0.0,0.0,0.0,0.0,0.0,0.0,0.0,0.0,0.0,0.0,0.0,0.0,0.0,0.0,0.0,0.0,0.0,0.0,0.0,0.0,0.0,0.0,0.0,0.0,0.0,0.0,0.0,0.0,0.0,0.0,0.0,0.0,0.0,0.0,0.0,0.0,0.0,0.0,0.0,0.0,0.0,0.0,0.0,0.0,0.0,0.0,0.0,0.0,0.0,0.0,0.0,0.0,0.0,0.0,0.0,0.0,0.0,0.0,0.0,0.0,0.0,0.0,0.0,0.0,0.0,0.0,-4.1989,-4.3922,-4.5164,-4.6373,-4.6921,-4.6519,-4.5247,-4.4085,-4.3162,-4.1508,0.0,0.0,0.0,0.0,0.0,0.0,0.0,0.0,0.0,0.0,0.0,0.0,0.0,0.0,0.0,0.0,0.0,0.0,0.0,0.0,0.0,0.0,0.0,0.0,0.0,0.0,0.0,0.0,0.0,0.0,0.0,0.0,0.0,0.0,0.0,0.0,0.0,0.0,0.0,0.0,0.0,0.0,0.0,0.0,0.0,0.0,0.0,0.0,0.0,0.0,0.0,0.0,0.0,0.0,0.0,0.0,0.0,0.0,0.0,0.0,0.0,0.0,0.0,0.0,0.0,0.0,0.0,0.0,0.0,0.0,0.0,0.0,0.0,0.0,0.0,0.0,0.0,0.0,0.0,0.0,0.0,0.0,0.0,0.0,0.0,0.0,0.0,0.0,0.0,0.0,0.0,0.0,0.0,0.0,0.0,0.0,0.0,0.0,0.0,0.0,0.0,0.0,-4.1699,-4.386,0.0,-4.5739,-4.6172,-4.6001,-4.5454,-4.4316,-4.2431,0.0,0.0,0.0,0.0,0.0,0.0,0.0,0.0,0.0,0.0,0.0,0.0,0.0,0.0,0.0,0.0,0.0,0.0,0.0,0.0,0.0,0.0,0.0,0.0,0.0,0.0,0.0,0.0,0.0,0.0,0.0,0.0,0.0,0.0,0.0,0.0,0.0,0.0,0.0,0.0,0.0,0.0,0.0,0.0,0.0,0.0,0.0,0.0,0.0,0.0,0.0,0.0,0.0,0.0,0.0,0.0,0.0,0.0,0.0,0.0,0.0,0.0,0.0,0.0,0.0,0.0,0.0,0.0,0.0,0.0,0.0,0.0,0.0,0.0,0.0,0.0,0.0,0.0,0.0,0.0,0.0,0.0,0.0,0.0,0.0,0.0,0.0,0.0,0.0,0.0,0.0,0.0,0.0,0.0,0.0,0.0,0.0,0.0,0.0,0.0,0.0,0.0,-3.8689,-4.1609,-4.3915,0.0,-4.5209,-4.5609,-4.5708,-4.492,-4.3778,-4.2316,0.0,0.0,0.0,0.0,0.0,0.0,0.0,0.0,0.0,0.0,0.0,0.0,0.0,0.0,0.0,0.0,0.0,0.0,0.0,0.0,0.0,0.0,0.0,0.0,0.0,0.0,0.0,0.0,0.0,0.0,0.0,0.0,0.0,0.0,0.0,0.0,0.0,0.0,0.0,0.0,0.0,0.0,0.0,0.0,0.0,0.0,0.0,0.0,0.0,0.0,0.0,0.0,0.0,0.0,0.0,0.0,0.0,0.0,0.0,0.0,0.0,0.0,0.0,0.0,0.0,0.0,0.0,0.0,0.0,0.0,0.0,0.0,0.0,0.0,0.0,0.0,0.0,0.0,0.0,0.0,0.0,0.0,0.0,0.0,0.0,0.0,0.0,0.0,0.0,0.0,0.0,0.0,0.0,0.0,0.0,0.0,0.0,0.0,0.0,0.0,0.0,0.0,-3.8689,-4.1822,-4.4146,-4.4572,-4.4896,-4.5222,-4.5568,-4.3278,-4.22,0.0,0.0,0.0,0.0,0.0,0.0,0.0,0.0,0.0,0.0,0.0,0.0,0.0,0.0,0.0,0.0,0.0,0.0,0.0,0.0,0.0,0.0,0.0,0.0,0.0,0.0,0.0,0.0,0.0,0.0,0.0,0.0,0.0,0.0,0.0,0.0,0.0,0.0,0.0,0.0,0.0,0.0,0.0,0.0,0.0,0.0,0.0,0.0,0.0,0.0,0.0,0.0,0.0,0.0,0.0,0.0,0.0,0.0,0.0,0.0,0.0,0.0,0.0,0.0,0.0,0.0,0.0,0.0,0.0,0.0,0.0,0.0,0.0,0.0,0.0,0.0,0.0,0.0,0.0,0.0,0.0,0.0,0.0,0.0,0.0,0.0,0.0,0.0,0.0,0.0,0.0,0.0,0.0,0.0,0.0,0.0,0.0,0.0,0.0,0.0,0.0,0.0,0.0,-3.8793,-4.1609,-4.3693,-4.3823,-4.4373,-4.48,-4.4896,-4.4078,-4.3431,-4.3124,0.0,0.0,0.0,0.0,0.0,0.0,0.0,0.0,0.0,0.0,0.0,0.0,0.0,0.0,0.0,0.0,0.0,0.0,0.0,0.0,0.0,0.0,0.0,0.0,0.0,0.0,0.0,0.0,0.0,0.0,0.0,0.0,0.0,0.0,0.0,0.0,0.0,0.0,0.0,0.0,0.0,0.0,0.0,0.0,0.0,0.0,0.0,0.0,0.0,0.0,0.0,0.0,0.0,0.0,0.0,0.0,0.0,0.0,0.0,0.0,0.0,0.0,0.0,0.0,0.0,0.0,0.0,0.0,0.0,0.0,0.0,0.0,0.0,0.0,0.0,0.0,0.0,0.0,0.0,0.0,0.0,0.0,0.0,0.0,0.0,0.0,0.0,0.0,0.0,0.0,0.0,0.0,0.0,0.0,0.0,0.0,0.0,0.0,0.0,0.0,0.0,0.0,-3.927,-4.1825,-4.3693,-4.3693,-4.4346,-4.48,-4.48,-4.4211,-4.3624,-4.3124,0.0,0.0,0.0,0.0,0.0,0.0,0.0,0.0,0.0,0.0,0.0,0.0,0.0,0.0,0.0,0.0,0.0,0.0,0.0,0.0,0.0,0.0,0.0,0.0,0.0,0.0,0.0,0.0,0.0,0.0,0.0,0.0,0.0,0.0,0.0,0.0,0.0,0.0,0.0,0.0,0.0,0.0,0.0,0.0,0.0,0.0,0.0,0.0,0.0,0.0,0.0,0.0,0.0,0.0,0.0,0.0,0.0,0.0,0.0,0.0,0.0,0.0,0.0,0.0,0.0,0.0,0.0,0.0,0.0,0.0,0.0,0.0,0.0,0.0,0.0,0.0,0.0,0.0,0.0,0.0,0.0,0.0,0.0,0.0,0.0,0.0,0.0,0.0,0.0,0.0,0.0,0.0,0.0,0.0,0.0,0.0,0.0,0.0,0.0,0.0,0.0,0.0,-3.99,-4.2273,-4.3937,-4.3937,-4.4612,-4.5033,-4.5033,-4.3924,-4.3162,-4.3085,0.0,0.0,0.0,0.0,0.0,0.0,0.0,0.0,0.0,0.0,0.0,0.0,0.0,0.0,0.0,0.0,0.0,0.0,0.0,0.0,0.0,0.0,0.0,0.0,0.0,0.0,0.0,0.0,0.0,0.0,0.0,0.0,0.0,0.0,0.0,0.0,0.0,0.0,0.0,0.0,0.0,0.0,0.0,0.0,0.0,0.0,0.0,0.0,0.0,0.0,0.0,0.0,0.0,0.0,0.0,0.0,0.0,0.0,0.0,0.0,-4.296,0.0,0.0,0.0,0.0,0.0,0.0,0.0,0.0,0.0,0.0,0.0,0.0,0.0,0.0,0.0,0.0,0.0,0.0,0.0,0.0,0.0,0.0,0.0,0.0,0.0,0.0,0.0,0.0,0.0,0.0,0.0,0.0,0.0,0.0,0.0,0.0,0.0,0.0,0.0,0.0,0.0,-4.0079,-4.2092,-4.3597,-4.3597,-4.4299,-4.4726,-4.4726,-4.4286,-4.3778,-4.3124,-4.2277,0.0,0.0,0.0,0.0,0.0,0.0,0.0,0.0,0.0,0.0,0.0,0.0,0.0,0.0,0.0,0.0,0.0,0.0,0.0,0.0,0.0,0.0,0.0,0.0,0.0,0.0,0.0,0.0,0.0,0.0,0.0,0.0,0.0,0.0,0.0,0.0,0.0,0.0,0.0,0.0,0.0,0.0,0.0,0.0,0.0,0.0,0.0,0.0,0.0,0.0,0.0,0.0,0.0,0.0,0.0,0.0,0.0,0.0,0.0,0.0,-4.4987,0.0,0.0,0.0,0.0,0.0,0.0,0.0,0.0,0.0,0.0,0.0,0.0,0.0,0.0,0.0,0.0,0.0,0.0,0.0,0.0,0.0,0.0,0.0,0.0,0.0,0.0,0.0,0.0,0.0,0.0,0.0,0.0,0.0,0.0,0.0,0.0,0.0,0.0,0.0,0.0,-4.1695,-4.2727,-4.3644,-4.4048,-4.4569,-4.4824,-4.4636,-4.4614,-4.4365,-4.3739,-4.2893,0.0,0.0,0.0,0.0,0.0,0.0,0.0,0.0,0.0,0.0,0.0,0.0,0.0,0.0,0.0,0.0,0.0,0.0,0.0,0.0,0.0,0.0,0.0,0.0,0.0,0.0,0.0,0.0,0.0,0.0,0.0,0.0,0.0,0.0,0.0,0.0,0.0,0.0,0.0,0.0,0.0,0.0,0.0,0.0,0.0,0.0,0.0,0.0,0.0,0.0,0.0,0.0,0.0,-5.2044,-5.2957,-5.3489,-5.382,-5.3656,-5.296,-5.0821,-4.8795,-4.7089,-4.7226,0.0,0.0,0.0,0.0,0.0,0.0,0.0,0.0,0.0,0.0,0.0,0.0,0.0,0.0,0.0,0.0,0.0,0.0,0.0,0.0,0.0,0.0,0.0,0.0,-4.6324,-4.5734,0.0,0.0,0.0,0.0,0.0,0.0,0.0,0.0,0.0,0.0,0.0,0.0,-4.3402,-4.3697,-4.4214,-4.5026,-4.527,-4.5256,-4.4903,-4.4957,-4.4819,-4.4338,-4.3593,-4.2829,0.0,0.0,0.0,0.0,0.0,0.0,0.0,0.0,0.0,0.0,0.0,0.0,0.0,0.0,0.0,0.0,0.0,0.0,0.0,0.0,0.0,0.0,0.0,0.0,0.0,0.0,0.0,0.0,0.0,0.0,0.0,0.0,-4.1075,-4.1882,0.0,0.0,0.0,0.0,0.0,0.0,0.0,0.0,0.0,0.0,0.0,0.0,0.0,-5.0176,-5.1551,-5.3677,-5.4655,-5.4485,-5.6813,-5.7392,-5.6428,-5.6792,-5.7281,-5.7815,-5.6311,0.0,-5.0008,-4.8758,0.0,0.0,0.0,0.0,0.0,0.0,0.0,0.0,0.0,0.0,0.0,0.0,0.0,0.0,0.0,0.0,0.0,0.0,0.0,0.0,0.0,0.0,-4.815,-4.8015,-4.7976,-4.82,0.0,-4.6382,-4.3707,-4.2746,-4.2408,0.0,0.0,0.0,0.0,0.0,0.0,0.0,-4.3412,-4.4605,-4.5848,-4.6676,-4.643,-4.613,-4.61,-4.5475,-4.484,-4.4338,-4.3662,-4.3346,-4.3535,-4.3255,0.0,0.0,0.0,0.0,0.0,0.0,0.0,0.0,0.0,0.0,0.0,0.0,0.0,0.0,0.0,0.0,0.0,0.0,0.0,0.0,0.0,0.0,0.0,0.0,0.0,0.0,0.0,0.0,0.0,-4.1552,-4.2947,-4.2359,-4.3497,-4.3791,0.0,0.0,0.0,0.0,0.0,0.0,0.0,0.0,0.0,-5.1566,-5.2975,-5.4747,-5.6967,-5.8296,-5.9512,-6.0495,-6.1287,-6.1611,-6.1486,-6.0881,-6.0804,-6.1107,-6.0068,-5.8483,-5.641,-5.3389,-5.1863,-5.1413,0.0,0.0,0.0,0.0,-4.9356,-4.9433,-5.0841,-5.0592,0.0,-5.0664,0.0,0.0,0.0,0.0,0.0,0.0,0.0,0.0,0.0,0.0,0.0,-5.1899,-5.1935,-5.1921,-5.2531,-5.0614,-4.8249,0.0,-4.5725,-4.524,-4.4322,0.0,0.0,0.0,0.0,-4.5304,-4.5353,-4.6059,-4.6852,-4.771,-4.7363,-4.6814,-4.6076,-4.6361,-4.5972,-4.4554,-4.4159,-4.3832,-4.3549,-4.3366,-4.3133,0.0,0.0,0.0,0.0,0.0,0.0,0.0,0.0,0.0,0.0,0.0,0.0,0.0,0.0,0.0,0.0,0.0,0.0,0.0,0.0,0.0,0.0,0.0,0.0,0.0,0.0,0.0,0.0,-4.3167,-4.4745,-4.313,-4.5406,-4.6214,0.0,0.0,0.0,0.0,0.0,0.0,-5.1343,-5.2678,-5.4577,-5.719,-5.8198,-5.9786,-6.2166,-6.271,-6.3751,-6.5356,-6.4955,-6.5003,-6.5403,-6.4068,-6.346,-6.3423,-6.2253,-6.1695,-6.1283,-5.7519,-5.5402,-5.4434,-5.378,-5.3366,-5.3145,-5.3034,-5.2779,-5.2672,-5.4327,-5.4129,-5.3147,-5.3478,0.0,-5.1714,-4.9637,0.0,0.0,0.0,0.0,-5.0718,-5.2305,-5.2929,-5.3596,-5.5465,-5.5307,-5.4893,-5.5208,-5.404,-5.217,0.0,-4.8806,-4.8112,-4.6922,0.0,0.0,0.0,0.0,-4.6922,-4.7543,-4.7859,-4.8213,-4.8715,-4.8286,-4.7567,-4.6523,-4.6824,-4.6464,-4.4987,-4.4496,-4.4027,-4.3498,-4.3417,-4.3278,-4.3111,0.0,0.0,0.0,0.0,0.0,0.0,0.0,0.0,0.0,0.0,0.0,0.0,0.0,0.0,0.0,0.0,0.0,0.0,0.0,0.0,0.0,0.0,0.0,0.0,0.0,0.0,0.0,0.0,0.0,-4.4782,-4.8122,0.0,0.0,0.0,0.0,-5.0996,-5.2634,-5.4525,-5.6689,-5.9105,-6.1149,-6.2816,-6.4101,-6.5581,-6.7299,-6.7006,-6.7016,-6.7425,-6.7425,-6.7154,-6.6632,-6.5309,-6.4674,-6.4599,-6.253,-6.1837,-6.2081,-5.9625,-5.8386,-5.7819,-5.5395,-5.4434,-5.4353,-5.4,-5.4306,-5.4988,-5.5541,-5.5221,-5.485,-5.7159,-5.6852,-5.5372,-5.4503,-5.3366,0.0,0.0,-5.3315,-5.4309,-5.4816,-5.5565,-5.6483,-5.7753,-5.6786,-5.5971,-5.7206,-5.55,-5.3213,0.0,-5.0167,-4.9317,-4.924,0.0,-4.7933,-4.7933,-4.8664,-4.924,-4.9279,-5.0009,-5.0389,-5.0059,-4.9262,-4.8542,-4.8108,-4.6375,-4.5455,-4.5714,-4.4358,-4.3693,-4.396,-4.3652,-4.3656,-4.393,-4.3482,0.0,0.0,0.0,0.0,0.0,0.0,0.0,0.0,0.0,0.0,0.0,0.0,0.0,0.0,0.0,0.0,0.0,0.0,0.0,0.0,0.0,0.0,0.0,0.0,0.0,0.0,0.0,0.0,-4.871,-5.1756,0.0,-5.0508,-5.2044,-5.3609,-5.4576,-5.7484,-6.0217,-6.2549,-6.4516,-6.6333,-6.7957,-6.8452,-6.9209,-7.027,-7.0156,-6.989,-6.9474,-6.9641,-6.9085,-6.7853,-6.7061,-6.6395,-6.5804,-6.397,-6.3442,-6.3817,-6.2476,-6.1561,-6.1027,-6.0378,-6.0165,-6.0142,-6.0008,-5.9599,-5.9216,-5.9699,-5.8748,-5.7291,-5.7401,-5.6639,-5.5593,-5.479,-5.4556,-5.461,-5.461,-5.533,-5.6329,-5.7248,-5.7557,-5.7927,-5.9147,-5.8387,-5.7506,-5.7977,-5.6889,-5.5508,-5.438,-5.2448,-5.101,-5.101,-5.0317,-4.9779,-4.9779,-5.0471,-5.101,-5.101,-5.1279,-5.1331,-5.0923,-4.991,-4.8692,-4.7222,-4.6702,-4.5833,-4.4406,-4.4294,-4.4081,-4.3697,-4.3085,-4.3015,-4.366,-4.2731,-4.2135,0.0,0.0,0.0,0.0,0.0,0.0,0.0,0.0,0.0,0.0,0.0,0.0,0.0,0.0,0.0,0.0,0.0,0.0,0.0,0.0,0.0,0.0,0.0,0.0,0.0,0.0,-5.2307,-5.205,-5.5317,-5.6785,-5.462,-5.6651,-5.8576,-5.9853,-6.3003,-6.5741,-6.7783,-6.9319,-7.0612,-7.1672,-7.1549,-7.1652,-7.2138,-7.1874,-7.1223,-7.0261,-7.0415,-6.9669,-6.821,-6.7568,-6.699,-6.6402,-6.4787,-6.4267,-6.4503,-6.3877,-6.3341,-6.2959,-6.3332,-6.3412,-6.3281,-6.3012,-6.2388,-6.1655,-6.167,-6.0674,-5.9331,-5.8519,-5.7896,-5.7319,-5.678,-5.7011,-5.7434,-5.7434,-5.7857,-5.8466,-5.9281,-5.9306,-5.935,-6.0162,-5.9498,-5.8704,-5.8704,-5.7819,-5.6819,-5.6242,-5.4549,-5.3087,-5.2818,-5.2356,-5.1972,-5.1972,-5.2433,-5.2664,-5.2395,-5.2356,-5.1902,-5.0812,-4.9986,-4.8732,-4.6851,-4.6689,-4.5773,-4.3644,-4.3754,-4.3534,-4.2727,-4.2433,-4.261,-4.3254,-4.2433,-4.2284,-4.2885,0.0,0.0,0.0,0.0,0.0,0.0,0.0,0.0,0.0,0.0,0.0,0.0,0.0,0.0,0.0,0.0,0.0,0.0,0.0,0.0,0.0,0.0,0.0,-4.7388,-5.2197,-5.5464,-5.4766,-5.8877,-6.1153,-5.9612,-6.2138,-6.4758,-6.6822,-6.9049,-7.086,-7.215,-7.3275,-7.3911,-7.3911,-7.3336,-7.3,-7.3,-7.2127,-7.1074,-6.9729,-6.9729,-6.9063,-6.7687,-6.6916,-6.6549,-6.6439,-6.4824,-6.4127,-6.4104,-6.3734,-6.355,-6.3606,-6.3786,-6.3657,-6.3257,-6.2512,-6.2166,-6.2012,-6.1089,-6.0781,-6.0781,-6.0781,-6.0781,-6.0781,-6.0781,-6.0781,-6.0781,-6.0781,-6.0781,-6.0781,-6.0781,-6.0781,-6.0781,-6.0781,-6.0165,-5.9511,-5.9473,-5.8204,-5.7011,-5.6973,-5.628,-5.5434,-5.4664,-5.4549,-5.4549,-5.4549,-5.4549,0.0,-5.3395,-5.3241,-5.2273,-4.9892,-4.9512,-4.8802,-4.7243,-4.6361,-4.5186,-4.3534,-4.2727,-4.1919,-4.1148,-4.1809,-4.2373,-4.2731,-4.2805,-4.3178,-4.393,0.0,0.0,0.0,0.0,0.0,0.0,0.0,0.0,0.0,0.0,0.0,0.0,0.0,0.0,0.0,0.0,0.0,0.0,0.0,0.0,0.0,0.0,-5.2601,-5.3188,-5.6124,-5.9024,-6.119,-6.3613,-6.5191,-6.5338,-6.6987,-6.8306,-6.8892,-7.0964,-7.2391,-7.2775,-7.3679,-7.3997,-7.355,-7.3362,-7.3106,-7.2664,-7.2388,-7.1763,-7.0863,-7.0863,-7.0054,-6.8568,-6.8348,-6.7907,-6.7283,-6.5668,-6.4971,-6.4861,-6.3591,-6.3262,-6.368,-6.4431,-6.4665,-6.4623,-6.4821,-6.4051,-6.2781,-6.1281,-6.0781,-6.0781,-6.0781,-6.0781,-6.0781,-6.0781,-6.0781,-6.0781,-6.0781,-6.0781,-6.0781,-6.0781,-6.0781,-6.0781,-6.0781,-6.0627,-6.0127,-5.8896,-5.828,-5.7588,-5.628,-5.5857,-5.5626,-5.5395,-5.5357,-5.5357,-5.5357,-5.5357,0.0,-5.5049,-5.3683,-5.2628,-5.2205,-5.0316,-4.8546,-4.7205,-4.5847,-4.4342,-4.2727,-4.1882,-4.1332,-4.1111,-4.0744,-4.0882,-4.1562,-4.2705,-4.3148,0.0,0.0,0.0,0.0,0.0,0.0,0.0,0.0,0.0,0.0,0.0,0.0,0.0,0.0,0.0,0.0,0.0,0.0,0.0,0.0,0.0,0.0,-5.4142,-5.7409,-6.0272,-6.13,-6.2732,-6.5301,-6.7026,-6.8458,-6.9596,-7.0643,-7.1529,-7.2199,-7.3709,-7.4551,-7.4551,-7.4778,-7.4608,-7.3913,-7.3972,-7.3536,-7.2496,-7.2826,-7.2275,-7.0807,-7.0807,-6.9963,-6.8385,-6.8385,-6.7944,0.0,-6.5852,-6.5118,-6.4677,-6.3356,-6.2965,0.0,0.0,0.0,0.0,0.0,-6.3974,-6.2627,-6.1243,-6.0781,-6.0781,-6.0781,-6.0781,-6.0781,-6.0781,-6.0781,-6.0781,-6.0781,-6.0781,-6.0781,-6.0781,-6.0781,-6.0781,-6.0781,-6.0512,-5.9973,-5.9011,-5.8242,-5.7473,-5.6434,-5.5934,0.0,-5.547,-5.5577,-5.5621,-5.547,-5.5446,-5.5284,-5.4715,-5.3312,-5.2238,-5.1925,-4.9791,-4.7927,-4.6691,-4.5443,0.0,0.0,0.0,-4.1625,-4.1625,-4.1148,0.0,0.0,0.0,-4.3277,-4.28,0.0,0.0,0.0,-4.258,-4.2359,0.0,0.0,0.0,0.0,0.0,0.0,0.0,0.0,0.0,0.0,0.0,0.0,0.0,0.0,0.0,0.0,-5.8961,-6.2022,-6.71,-6.6786,-6.6581,-6.7907,-6.9449,-7.0954,-7.2496,-7.3219,-7.4183,-7.558,-7.6219,-7.6432,-7.6357,0.0,0.0,0.0,0.0,-7.4001,-7.2642,-7.323,-7.2496,-7.0367,-7.0183,-6.9302,-6.7834,-6.765,-6.721,-6.6586,-6.5705,-6.4897,-6.4163,-6.3319,-6.2928,-6.2917,-6.3498,-6.4332,-6.5031,-6.377,-6.2858,-6.2089,-6.1127,0.0,0.0,-6.0781,-6.0781,-6.0781,-6.0781,-6.0781,-6.0781,-6.0781,-6.0781,-6.0781,-6.0781,-6.0781,-6.0781,-6.0781,-6.0127,-5.9473,-5.9396,-5.8066,-5.689,-5.6813,-5.6137,-5.5446,-5.5107,-5.5375,-5.5508,-5.5107,-5.5015,-5.461,-5.3497,-5.2498,-5.1512,-5.0514,0.0,0.0,-4.614,-4.5223,-4.4011,-4.2396,-4.2213,-4.2176,-4.2176,-4.2249,-4.2653,-4.3351,-4.3424,-4.3497,-4.3497,-4.3497,-4.3497,-4.3461,-4.2029,-4.2139,0.0,0.0,0.0,0.0,0.0,0.0,0.0,0.0,0.0,0.0,0.0,0.0,0.0,0.0,0.0,-6.0162,-6.4066,-6.7135,-6.8492,-6.9947,-7.0791,-7.0606,-7.1468,-7.2422,-7.3377,-7.4154,-7.4748,-7.508,-7.5195,-7.492,-7.4312,-7.4143,-7.3754,-7.2944,-7.292,-7.312,-7.345,-7.2973,-7.2496,-7.2018,0.0,0.0,-6.8641,-6.732,-6.699,-6.7393,-6.5925,-6.5228,-6.5007,-6.42,-6.3689,-6.3498,-6.4056,-6.4871,-6.5551,-6.3911,-6.3205,-6.2858,-6.132,-6.0781,-6.0781,-6.0781,-6.0781,-6.0781,-6.0781,-6.0781,0.0,-6.0781,-6.0781,-6.0781,-6.0781,-6.0781,-6.0781,-6.0781,-6.0127,-5.9319,-5.8665,-5.7479,-5.6308,-5.5594,-5.5047,-5.4701,-5.4609,-5.4933,-5.508,-5.4671,-5.4609,-5.4541,-5.4258,-5.2648,-5.1665,-5.208,-4.9787,-4.7831,-4.6948,-4.5553,-4.4011,-4.2396,-4.1699,-4.1332,-4.1332,-4.1956,-4.2359,-4.2543,-4.3167,-4.3497,-4.3497,-4.3497,-4.3497,-4.3497,-4.3167,-4.3204,0.0,0.0,0.0,0.0,0.0,0.0,0.0,0.0,0.0,0.0,0.0,-5.3335,0.0,0.0,-6.1592,-6.5138,-6.7625,-6.9655,-7.0961,-7.1738,-7.1984,-7.1341,-7.2386,-7.3413,-7.4221,-7.5028,-7.5506,-7.5506,-7.5506,-7.5139,-7.4331,-7.4294,-7.3927,-7.312,-7.3487,-7.3523,-7.3083,-7.3083,-7.2716,-7.1872,-7.066,-6.9576,-6.8601,-6.7382,-6.6605,-6.6248,-6.5841,-6.5053,-6.4016,-6.3885,-6.4053,-6.4407,-6.4661,-6.5035,-6.5312,-6.3822,-6.332,-6.3051,-6.1396,-6.0781,-6.0781,-6.0781,-6.0781,-6.0781,-6.0781,-6.0781,-6.0781,-6.0781,-6.0781,-6.0781,-6.0781,-6.0781,-6.0781,-6.0781,-6.0127,-5.9196,-5.8169,-5.7454,-5.6577,-5.5084,-5.529,-5.5367,-5.4337,-5.4999,-5.5329,-5.43,-5.4153,-5.4048,-5.3907,-5.2567,-5.1674,-5.1674,-4.9636,-4.7976,-4.7205,-4.5626,-4.4195,-4.2983,-4.2506,-4.2286,-4.2286,-4.269,-4.291,-4.291,-4.3277,-4.3497,-4.3497,-4.3497,-4.3497,-4.3497,-4.3497,-4.3497,0.0,0.0,0.0,0.0,0.0,0.0,0.0,0.0,-4.9897,-5.3422,-5.5138,-5.7116,-6.0713,-6.2805,-6.5359,-6.9422,-7.0325,-7.1156,-7.2978,-7.2782,-7.2206,-7.1561,-7.2936,-7.4147,-7.4625,-7.5542,-7.6056,-7.5873,-7.5873,-7.5542,-7.4735,-7.4661,-7.4221,-7.3266,-7.4001,-7.3817,-7.2496,-7.312,-7.2753,-7.1321,-7.0551,-6.9599,-6.8389,-6.7523,-6.6486,-6.5447,-6.5776,-6.4911,-6.339,-6.3755,-6.437,-6.513,-6.5192,-6.5146,-6.487,-6.3719,-6.332,-6.3051,-6.1396,-6.0781,-6.0781,-6.0781,-6.0781,-6.0781,-6.0781,-6.0781,-6.0781,-6.0781,-6.0781,-6.0781,-6.0781,-6.0781,-6.0742,-6.0589,-5.9811,-5.8846,-5.7821,-5.7206,-5.6429,-5.4872,-5.5457,-5.5656,-5.3981,-5.4758,-5.5166,-5.3905,-5.3831,-5.3751,-5.3267,-5.2491,-5.1756,-5.1096,-4.9554,-4.8159,-4.7205,-4.5626,-4.4415,-4.3754,-4.3571,-4.3497,-4.3497,-4.3497,-4.3497,-4.3497,-4.3497,-4.3497,-4.3497,-4.3497,-4.3497,-4.3497,-4.3497,-4.3497,-4.628,-4.5552,-4.6112,-4.8457,-4.8936,-5.0152,0.0,0.0,-5.6097,-5.8952,-6.0798,-6.2475,-6.4383,-6.6659,-6.8825,-7.0809,-7.2161,-7.2889,-7.265,-7.2992,-7.3023,-7.2463,-7.378,-7.4515,-7.3891,-7.5212,-7.5799,-7.5102,-7.5028,-7.4698,-7.3891,-7.3817,-7.3156,-7.1651,-7.2349,-7.2679,-7.2496,-7.2606,-7.2202,-7.1321,-7.0961,-7.0016,-6.8436,-6.7363,-6.7158,-6.757,-6.6214,-6.5497,-6.5271,-6.5034,-6.5003,-6.513,-6.5597,-6.5346,-6.4539,-6.3641,-6.332,-6.3051,-6.1396,-6.0781,-6.0781,-6.0781,-6.0781,-6.0781,-6.0781,-6.0781,-6.0781,-6.0781,-6.0781,-6.0781,-6.0781,-6.0781,-6.0589,-5.9819,-5.8719,-5.7756,-5.7624,-5.5799,-5.439,-5.4839,-5.4195,-5.3539,-5.3309,-5.3419,-5.3456,-5.3309,-5.386,-5.4081,-5.3298,-5.2491,-5.1977,-5.1867,-5.0398,-4.882,-4.7241,-4.5626,-4.4672,-4.4562,-4.3901,-4.3497,-4.3497,-4.3497,-4.3497,-4.3497,-4.3497,-4.3497,-4.3497,-4.3497,-4.3497,-4.3497,-4.3497,-4.3497,-4.7847,-4.7527,-4.7941,0.0,-5.0522,-5.2895,-5.5636,-5.6779,-5.8215,-6.1513,-6.4033,-6.6145,-6.7797,-6.9669,-7.1342,0.0,-7.3052,-7.3141,-7.2436,-7.2569,-7.1947,-6.9963,-7.1138,-7.2532,-7.3597,-7.4735,-7.5065,-7.4258,-7.4184,-7.3854,-7.3046,-7.301,-7.2496,-7.1358,-7.1651,-7.1798,-7.1798,-7.1798,-7.1872,-7.1982,-7.125,-7.048,-6.961,-6.8489,-6.7878,-6.7688,-6.5729,-6.5312,-6.5942,-6.5378,-6.5291,-6.5569,-6.5808,-6.5667,-6.5205,-6.382,-6.3012,-6.2435,-6.1204,-6.0781,-6.0781,-6.0781,-6.0781,-6.0781,-6.0781,-6.0781,-6.0781,-6.0781,-6.0781,-6.0781,-6.0781,-6.0597,-6.02,-5.9357,-5.8549,-5.7618,-5.6413,-5.6031,-5.5581,-5.4226,-5.4717,-5.4876,-5.3445,-5.3995,-5.4289,-5.3335,-5.3482,-5.3592,-5.3261,-5.2931,-5.2527,-5.205,-5.0545,-4.9114,-4.7902,-4.6764,-4.592,-4.5443,-4.5076,-4.4672,-4.4232,-4.4635,-4.4672,-4.4195,-4.4195,-4.4195,-4.4195,-4.3718,-4.3497,-4.3497,-4.3497,-4.3497,-4.8016,0.0,0.0,-4.963,-5.2467,-5.5507,-5.6607,-5.8215,-6.0453,-6.3669,-6.616,-6.8091,-6.9522,-7.0917,-7.1968,-7.2399,-7.2689,-7.2541,-7.1724,-7.1612,-7.0628,-6.7998,-6.8531,-6.9779,-7.1541,-7.2826,-7.345,-7.3083,-7.3046,-7.2899,-7.2532,-7.2496,-7.2018,-7.0991,-7.1211,-7.1211,-7.0991,-7.1211,-7.1505,-7.1835,-7.1379,-7.0758,-7.0139,-6.9154,-6.8119,-6.7018,-6.547,-6.5313,-6.617,-6.5558,-6.5542,-6.5897,-6.5897,-6.5743,-6.5397,-6.4128,-6.3128,-6.2281,-6.1166,-6.0781,-6.0781,-6.0781,-6.0781,-6.0781,-6.0781,-6.0781,-6.0781,-6.0781,-6.0781,-6.0757,-6.0647,-6.0338,-5.9845,-5.8919,-5.8348,-5.7563,-5.6071,-5.6214,-5.6084,-5.4228,-5.4913,-5.5244,-5.3518,-5.4179,-5.4546,-5.3408,-5.3225,-5.3225,-5.3225,-5.3225,-5.2821,-5.1756,-5.0618,-4.9481,-4.8379,-4.7572,-4.6874,-4.6287,-4.603,-4.5626,-4.5076,-4.559,-4.5626,-4.5039,-4.4819,-4.4709,-4.4709,-4.3901,-4.3497,-4.3497,-4.3497,-4.3497,0.0,0.0,-4.9598,-5.2394,-5.5262,-5.8103,-6.0783,-6.2438,-6.3919,-6.6007,-6.7063,-6.7944,-6.8788,-6.9596,-7.0183,-7.0202,-7.0807,-7.1064,-7.0312,-7.0165,-6.9577,-6.7871,-6.7063,-6.6623,0.0,-6.8862,-7.055,-7.1321,-7.1394,-7.1725,-7.2459,-7.2496,-7.1762,-7.0183,-7.0881,-7.0954,-7.0146,-7.0917,-7.0917,-7.0146,-7.1182,-7.0856,-6.9353,-6.8679,-6.7487,-6.5949,-6.5872,-6.5872,-6.591,-6.5897,-6.5897,-6.5897,-6.5897,-6.5397,-6.4628,-6.4589,-6.4012,-6.3051,-6.1358,-6.0781,-6.0781,-6.0781,-6.0781,-6.0781,-6.0781,-6.0781,-6.0781,-6.0781,-6.0781,-6.071,-6.0217,-6.0103,-5.9786,-5.8434,-5.7828,-5.7484,-5.737,-5.5812,-5.4699,-5.539,-5.4326,-5.3298,-5.3225,-5.3261,-5.3261,-5.3225,-5.3225,-5.3225,-5.3225,-5.3225,-5.2601,-5.1022,-5.0802,-5.0105,-4.8453,-4.7572,-4.7057,-4.7095,-4.6324,-4.5883,-4.5847,-4.5883,-4.5883,-4.5847,-4.5112,-4.4709,-4.4709,-4.3901,-4.3497,-4.3497,-4.3497,-4.3497,-4.6507,0.0,-5.2254,-5.4295,-5.6698,-5.9292,-6.1826,-6.3579,-6.4893,-6.5573,-6.5925,-6.6035,-6.5742,-6.5925,-6.6476,-6.754,-6.8385,-6.8825,-6.8531,-6.8972,-6.7907,-6.409,-6.4383,0.0,0.0,0.0,0.0,-6.9633,-7.022,-7.0844,-7.1688,-7.2202,-7.2018,-7.0954,-7.066,-7.0624,-7.0881,-7.066,-7.066,-7.0881,-7.0321,-6.9854,-6.952,-6.8175,-6.7244,-6.6667,-6.6128,-6.5897,-6.5859,-6.5282,-6.5397,-6.5782,-6.4628,-6.4359,-6.4474,-6.3358,-6.2743,-6.2397,-6.1858,-6.1281,-6.0781,-6.0781,-6.0781,-6.0781,-6.0781,-6.0781,-6.0781,-6.0781,-6.0597,-6.0311,-6.0132,-5.9625,-5.8915,-5.7941,-5.736,-5.691,-5.6356,-5.6073,-5.5904,-5.5647,-5.5574,-5.5427,-5.4876,-5.4363,-5.3812,-5.3298,-5.3225,-5.3225,-5.3225,-5.3225,-5.3004,-5.2454,-5.1463,-5.0582,-4.9994,-4.871,-4.7902,-4.7902,-4.7645,-4.7241,-4.6728,-4.7205,-4.7241,-4.6728,-4.6434,-4.6324,-4.6324,-4.548,-4.4819,-4.4305,-4.4819,-4.4525,-4.8416,-5.1389,-5.4509,-5.6418,-5.8474,-6.0639,-6.2768,-6.409,-6.4861,-6.4861,-6.4383,-6.3723,-6.2915,-6.2291,-6.2328,-6.3686,-6.4567,-6.5301,-6.5852,-6.6402,-6.5558,-6.2401,-6.2989,-6.2915,0.0,0.0,0.0,-6.7907,-6.8788,-6.9853,-7.1248,-7.1798,-7.1835,-7.1321,-7.0513,-7.033,-7.0881,-7.0073,-6.9962,-7.0509,-6.952,-6.896,-6.8744,-6.759,-6.6936,-6.6628,-6.6128,-6.5705,-6.5397,-6.482,-6.4743,-6.4859,-6.3743,-6.3628,-6.4012,-6.2935,-6.2358,-6.205,-6.1743,-6.1281,-6.0781,-6.0781,-6.0781,-6.0757,-6.0597,-6.0533,-6.0508,-6.0338,-6.0103,-5.9823,-5.9625,-5.9139,-5.8524,-5.7835,-5.7457,-5.7079,-5.6565,-5.6638,-5.6638,-5.6124,-5.6198,-5.6198,-5.5684,-5.517,-5.4546,-5.3739,-5.3628,-5.3518,-5.3261,-5.3225,-5.3115,-5.2821,-5.161,-5.0692,-5.0398,-4.9114,-4.8306,-4.8306,-4.8306,-4.8086,-4.7572,-4.8049,-4.8086,-4.7572,-4.7278,-4.7131,-4.7131,-4.6287,-4.5626,-4.5149,-4.5663,-4.5186,-5.1242,-5.3885,-5.6345,-5.8694,-6.0382,-6.1924,-6.3649,-6.398,-6.387,-6.3796,-6.2401,-6.097,0.0,0.0,-5.8033,-5.8951,-5.9869,-6.1043,-6.2658,-6.2915,-6.2915,0.0,0.0,0.0,0.0,0.0,0.0,-6.6256,0.0,-6.8678,-7.1138,-7.1284,-7.1321,-7.1358,-7.055,-7.011,-7.0146,-6.9357,-6.9026,-6.9272,-6.8899,-6.8181,-6.7167,-6.709,-6.6628,-6.5897,-6.5859,-6.5359,-6.4589,-6.4512,-6.4012,-6.3281,-6.3205,-6.3205,-6.3243,-6.3205,-6.2666,-6.1873,-6.1065,-6.0757,-6.0757,-6.0757,-6.0757,-6.0647,-6.0189,-6.0074,-5.9946,-5.9526,-5.9389,-5.9248,-5.8796,-5.8713,-5.8549,-5.8097,-5.7997,-5.7997,-5.7997,-5.7409,-5.6859,-5.6859,-5.6235,-5.5684,-5.5647,-5.5611,-5.5317,-5.4509,-5.4363,-5.4069,-5.3298,-5.3225,-5.2931,-5.2123,-5.1353,-5.0545,-4.9774,-4.8893,-4.8379,-4.8379,-4.8343,-4.8306,-4.8306,-4.8306,-4.8306,-4.8306,-4.7572,-4.7168,-4.7168,-4.6397,-4.5993,-4.5957,-4.5993,-4.5553,-5.3408,-5.5978,-5.8584,-5.9795,-5.9942,-6.0382,-6.2622,-6.2218,-6.1006,-5.9795,-5.7776,-5.5611,0.0,0.0,0.0,-5.7116,-5.9612,0.0,-6.3539,-6.4273,0.0,-6.2952,0.0,-6.3429,-6.2585,-6.3282,0.0,0.0,-6.6366,-6.7871,-7.0293,-7.0991,-7.1578,-7.2202,-7.0844,-7.0403,-7.0991,-7.0021,-6.9733,-7.0139,-6.8633,-6.799,-6.8052,-6.6782,-6.609,-6.5859,-6.5205,-6.482,-6.4512,-6.3243,-6.2974,-6.3205,-6.1935,-6.182,-6.232,-6.1666,-6.1096,-6.0551,-6.036,-6.0283,-6.0283,-6.0283,-6.0044,-5.9722,-5.9592,-5.9559,-5.9559,-5.9424,-5.9139,-5.8835,-5.8716,-5.8461,-5.8142,-5.8042,-5.7997,-5.7997,-5.7997,-5.785,-5.7703,-5.7703,-5.7519,-5.7189,-5.6602,-5.5978,-5.5317,-5.4509,-5.3885,-5.3445,-5.3225,-5.3225,-5.3115,-5.2931,-5.216,-5.161,-5.1389,-5.0068,-4.926,-4.926,-4.8673,-4.8306,-4.8306,-4.8306,-4.8306,-4.8306,-4.8122,-4.8012,-4.8012,-4.7792,-4.7388,-4.6838,-4.7425,-4.6617,-5.5574,-5.7556,-5.9318,-5.9758,-5.9795,-5.9795,-6.0126,-5.9465,-5.818,-5.5831,-5.3739,0.0,-5.0031,0.0,0.0,0.0,0.0,0.0,-6.1557,-6.2365,-6.2695,0.0,-6.3576,0.0,-6.3429,-6.4127,-6.4971,0.0,-6.6256,-6.754,-6.9963,-7.055,-7.1138,-7.1945,-7.0734,-7.0091,-7.0064,-6.9351,-6.9068,-6.9209,-6.7986,-6.7333,-6.7282,-6.632,-6.5897,-6.5859,0.0,-6.4283,-6.3652,-6.254,-6.2016,-6.1785,-6.0865,-6.0789,-6.1134,-6.0436,-6.0006,-5.9792,-5.9792,-5.9658,-5.9526,-5.9728,-5.9592,-5.9354,-5.9139,-5.9065,-5.9065,-5.8835,-5.8591,-5.8375,-5.8375,-5.8231,-5.7997,-5.7997,-5.7997,-5.7997,-5.7997,-5.7997,-5.7997,-5.7997,-5.7997,-5.785,-5.7409,-5.6932,-5.6235,-5.5097,-5.4546,-5.3995,-5.3298,-5.3225,-5.3225,-5.3225,-5.2491,-5.1977,-5.1977,-5.0508,-4.9591,-4.9591,-4.8783,-4.8306,-4.8306,-4.8306,-4.8306,-4.8306,-4.8306,-4.8306,-4.8306,-4.8306,-4.8086,-4.7645,-4.8086,-4.7205,-5.7446,-5.8657,-5.9355,-5.9245,-5.9575,-5.9355,-5.7152,-5.6381,-5.5244,-5.2013,0.0,-4.8783,-4.7829,-4.7939,-4.8783,-5.0655,0.0,-5.4913,-5.8841,-5.9465,-6.0346,-6.2548,-6.3576,-6.4127,-6.4237,-6.4897,-6.5632,-6.6439,-6.6512,-6.7504,-6.9816,-6.9926,-7.0257,-7.0991,-7.0294,-6.9399,-6.8362,-6.809,-6.7845,-6.7583,-6.7247,-6.6744,-6.6051,-6.5936,-6.5897,-6.582,-6.477,0.0,-6.2536,-6.1977,-6.1054,-5.9977,-5.9977,-5.9977,-5.9946,-5.9526,-5.9354,-5.9284,-5.9284,-5.9028,-5.8713,-5.9139,-5.9248,-5.9139,-5.8716,-5.8591,-5.8508,-5.8097,-5.7997,-5.7997,-5.7997,-5.7997,-5.7997,-5.7997,-5.7997,-5.7997,-5.7997,-5.7997,-5.7997,-5.7997,-5.7997,-5.7997,-5.7997,-5.7923,-5.7336,-5.5831,-5.55,-5.4913,-5.3408,-5.3225,-5.3225,-5.3225,-5.2564,-5.216,-5.216,-5.0765,-4.9848,-4.9738,-4.904,-4.86,-4.8489,-4.8489,-4.8489,-4.8489,-4.8379,-4.8306,-4.8306,-4.8306,-4.8269,-4.8159,-4.8269,-4.7388,-5.807,-5.9061,-6.0052,-5.9391,-5.8327,-5.7152,-5.6051,-5.4252,0.0,0.0,-4.7205,-4.6067,-4.4599,-4.5957,-4.8306,-5.1279,0.0,0.0,0.0,0.0,-6.1594,0.0,0.0,0.0,0.0,0.0,0.0,0.0,0.0,-6.7247,-6.9009,-6.9119,-6.9192,-6.9302,-6.8911,-6.8283,-6.7421,-6.7581,-6.7669,-6.7583,-6.7247,-6.7013,-6.6859,-6.6205,-6.5897,-6.582,-6.38,0.0,-6.2468,-6.0627,-5.9744,-5.9526,-5.9526,-5.9526,-5.9492,-5.9424,-5.9139,-5.8835,-5.8835,-5.8508,-5.8194,-5.8673,-5.8549,-5.8238,-5.8142,-5.8142,-5.8097,-5.8042,-5.7997,-5.7997,-5.7997,-5.7997,-5.7997,-5.7997,-5.7997,-5.7997,-5.7997,-5.7997,-5.7997,-5.7997,-5.7997,-5.7997,-5.7997,-5.7446,-5.6675,-5.5721,-5.5023,-5.4289,-5.3335,-5.3225,-5.3225,-5.3225,-5.3078,-5.3004,-5.3004,-5.2123,-5.1279,-5.0618,-5.0435,-5.0068,-4.937,-4.937,-4.937,-4.937,-4.8673,-4.8306,-4.8306,-4.8306,-4.7976,-4.7352,-4.8012,-4.7095,-5.851,-5.8877,-5.9061,-5.8657,-5.7042,-5.5133,-5.3482,0.0,0.0,0.0,-4.4599,-4.3901,-4.3571,0.0,0.0,0.0,0.0,0.0,0.0,0.0,0.0,0.0,0.0,0.0,0.0,0.0,0.0,0.0,0.0,-6.721,-6.8825,-6.9147,-6.9434,-6.9703,-6.8713,-6.8157,-6.803,-6.6885,-6.6605,-6.7314,-6.6281,-6.6051,-6.6436,-6.609,-6.5755,-6.537,-6.3435,0.0,-6.1729,-6.0068,-5.9248,-5.9065,-5.9065,-5.9065,-5.9028,-5.8756,-5.8508,-5.8369,-5.8369,-5.8186,-5.8042,-5.8282,-5.815,-5.7997,-5.7997,-5.7997,-5.7997,-5.7997,-5.7997,-5.7997,-5.7997,-5.7997,-5.7997,-5.7997,-5.7997,-5.7997,-5.7997,-5.7997,-5.7997,-5.7997,-5.7997,-5.7997,-5.7997,-5.7666,-5.7005,-5.5757,-5.5244,-5.4583,-5.3371,-5.3225,-5.3225,-5.3225,-5.3225,-5.3225,-5.3225,-5.2454,-5.183,-5.1463,-5.1022,-5.0618,-5.0251,-4.9811,-4.9591,-4.9591,-4.8746,-4.8306,-4.8306,-4.8306,-4.8122,-4.7755,-4.8122,-4.7462,-5.84,-5.8474,-5.8217,-5.8033,-5.6051,-5.3555,-5.1316,-4.8122,0.0,0.0,-4.2727,-4.2286,-4.3094,0.0,0.0,0.0,0.0,0.0,0.0,0.0,0.0,0.0,0.0,0.0,0.0,0.0,0.0,0.0,0.0,0.0,-6.8311,-6.8915,-6.9378,-6.9783,-6.8477,-6.7884,-6.8095,-6.5965,-6.5359,-6.6221,-6.5109,-6.4841,-6.5301,-6.5493,-6.5244,-6.459,-6.2971,0.0,0.0,-5.9589,-5.8874,-5.8549,-5.8549,-5.8549,-5.8545,-5.8142,-5.7997,-5.7997,-5.7997,-5.7997,-5.7997,-5.7997,-5.7997,-5.7997,-5.7997,-5.7997,-5.7997,-5.7997,-5.7997,-5.7997,-5.7997,-5.7997,-5.7997,-5.7997,-5.7997,-5.7997,-5.7997,-5.7997,-5.796,-5.7776,-5.7886,-5.796,-5.7776,-5.7886,-5.7519,-5.6051,-5.5684,-5.506,-5.3665,-5.3335,-5.3225,-5.3225,-5.3225,-5.3225,-5.3225,-5.2637,-5.216,-5.2013,-5.1573,-5.1242,-5.1059,-5.0435,-5.0105,-5.0105,-4.9114,-4.86,-4.86,-4.8379,-4.8233,-4.8049,-4.8233,-4.7792,-5.7189,-5.8033,-5.8914,-5.818,-5.5647,-5.2894,-5.1169,0.0,0.0,-4.3681,-4.2286,-4.1479,-4.2249,-4.2543,0.0,0.0,0.0,0.0,0.0,0.0,0.0,0.0,0.0,0.0,0.0,0.0,0.0,0.0,0.0,0.0,-6.6696,-6.7246,-6.7505,-6.7514,-6.7105,-6.6558,-6.588,-6.4935,-6.4141,-6.3495,-6.4102,-6.4064,-6.3383,-6.4177,-6.4065,-6.3198,-6.1916,0.0,0.0,-5.8695,-5.8097,-5.8051,-5.8051,-5.8051,-5.8088,-5.8042,-5.7997,-5.7997,-5.7997,-5.7997,-5.7997,-5.7997,-5.7997,-5.7997,-5.7997,-5.7997,-5.7997,-5.7997,-5.7997,-5.7997,-5.7997,-5.7997,-5.7997,-5.7997,-5.7997,-5.7997,-5.7997,-5.7997,-5.7776,-5.7042,-5.7483,-5.7776,-5.7042,-5.7519,-5.7703,-5.6822,-5.6051,-5.528,-5.4399,-5.3665,-5.3225,-5.3225,-5.3225,-5.3225,-5.3225,-5.3151,-5.2784,-5.205,-5.2637,-5.2637,-5.1903,-5.1793,-5.1756,-5.1756,-5.0251,-4.9481,-4.9481,-4.8673,-4.7939,-4.7241,-4.7976,-4.7498,-5.6492,-5.7629,-5.84,-5.807,-5.484,-5.161,-5.0949,0.0,0.0,-4.3461,-4.2616,-4.2066,-4.2873,-4.302,-4.3314,0.0,0.0,0.0,0.0,0.0,0.0,0.0,0.0,0.0,0.0,0.0,0.0,0.0,0.0,0.0,-6.5044,-6.6023,-6.6941,-6.7739,-6.6628,-6.5917,-6.5615,-6.4294,-6.3426,-6.3124,-6.3464,-6.3426,-6.3124,-6.3992,-6.3765,-6.2623,-6.1633,0.0,0.0,-5.8419,-5.7997,-5.7997,-5.7997,-5.7997,-5.7997,-5.7997,-5.7997,-5.7997,-5.7997,-5.7997,-5.7997,-5.7997,-5.7997,-5.7997,-5.7997,-5.7997,-5.7997,-5.7997,-5.7997,-5.7997,-5.7997,-5.7997,-5.7886,-5.7409,-5.7666,-5.7997,-5.7997,-5.7997,-5.7923,-5.7593,-5.7776,-5.774,-5.6932,-5.7483,-5.7556,-5.6271,-5.5794,-5.5317,-5.4509,-5.3702,-5.3225,-5.3225,-5.3225,-5.3225,-5.3225,-5.3225,-5.3078,-5.2747,-5.3041,-5.3078,-5.2747,-5.227,-5.1756,-5.1279,-5.0178,-4.9334,-4.882,-4.8489,-4.8159,-4.7829,-4.8159,-4.7976,-5.5133,-5.6675,-5.7703,-5.7923,-5.4363,-5.0802,0.0,0.0,-4.2543,-4.3314,-4.2653,-4.2176,-4.2983,-4.313,-4.313,0.0,0.0,0.0,0.0,0.0,0.0,0.0,0.0,0.0,0.0,0.0,0.0,0.0,0.0,0.0,0.0,-6.472,-6.5725,-6.7071,-6.6021,-6.5269,-6.5003,-6.3678,-6.2885,-6.2663,-6.2922,-6.2885,-6.2701,-6.33,-6.2944,-6.1775,-6.0951,0.0,0.0,-5.8217,-5.7997,-5.7997,-5.7997,-5.7997,-5.7997,-5.7997,-5.7997,-5.7997,-5.7997,-5.7997,-5.7997,-5.7997,-5.7997,-5.7997,-5.7997,-5.7997,-5.7997,-5.7997,-5.7997,-5.7997,-5.7997,-5.7997,-5.785,-5.7299,-5.7593,-5.7997,-5.7997,-5.7997,-5.7923,-5.7703,-5.7666,-5.7373,-5.6565,-5.7116,-5.7262,-5.6124,-5.5757,-5.539,-5.484,-5.3849,-5.3225,-5.3225,-5.3225,-5.3225,-5.3225,-5.3225,-5.3225,-5.3225,-5.3225,-5.3225,-5.3225,-5.2417,-5.183,-5.1536,-5.0251,-4.9407,-4.904,-4.8563,-4.8306,-4.8306,-4.8306,-4.8306,-5.2821,-5.4987,-5.7005,-5.7813,-5.4363,-5.0802,0.0,0.0,-4.2543,-4.3314,-4.2249,-4.1368,-4.2176,-4.2323,-4.2323,-4.2323,0.0,0.0,0.0,0.0,0.0,0.0,0.0,0.0,0.0,0.0,0.0,0.0,0.0,0.0,0.0,-6.3282,-6.3431,-6.4778,-6.4905,-6.4494,-6.3631,-6.3073,-6.2401,-6.1643,-6.2401,-6.2365,-6.1643,-6.1643,-6.1153,0.0,0.0,0.0,0.0,-5.7997,-5.7997,-5.7997,-5.7997,-5.7997,-5.7997,-5.7997,-5.7997,-5.7997,-5.7997,-5.7997,-5.7997,-5.7997,-5.7997,-5.7997,-5.7997,-5.7997,-5.7997,-5.7997,-5.7997,-5.7997,-5.7997,-5.7997,-5.7997,-5.7997,-5.7997,-5.7997,-5.7997,-5.7997,-5.7776,-5.6969,-5.6822,-5.6565,-5.5757,-5.6271,-5.6822,-5.6785,-5.6088,-5.5574,-5.5574,-5.4179,-5.3225,-5.3225,-5.3225,-5.3225,-5.3225,-5.3225,-5.3225,-5.3225,-5.3225,-5.3225,-5.3225,-5.2417,-5.238,-5.3188,-5.0802,-4.9994,-5.0765,-4.9114,-4.8306,-4.8306,-4.8306,-4.8306,-4.9407,-5.0839,-5.194,-5.2197,-4.9848,-4.7609,-4.8159,0.0,-4.2543,-4.3314,-4.2653,-4.2176,-4.2947,-4.313,-4.3314,-4.3864,-4.4158,0.0,0.0,0.0,0.0,0.0,0.0,0.0,0.0,0.0,0.0,0.0,0.0,0.0,0.0,-6.2952,-6.3272,-6.4279,-6.3726,-6.332,-6.3062,-6.2904,-6.2144,-6.0786,-6.2144,-6.2108,-6.0786,-6.1337,-6.1153,0.0,0.0,0.0,0.0,-5.7997,-5.7997,-5.7997,-5.7997,-5.7997,-5.7997,-5.7997,-5.7997,-5.7997,-5.7997,-5.7997,-5.7997,-5.7997,-5.7997,-5.7886,-5.7336,-5.7556,-5.7997,-5.7997,-5.7593,-5.7042,-5.6492,-5.6748,-5.7042,-5.6492,-5.7189,-5.7997,-5.7997,-5.7997,-5.7923,-5.7666,-5.7189,-5.6528,-5.5721,-5.5794,-5.5794,-5.5244,-5.495,-5.4766,-5.4766,-5.3849,-5.3225,-5.3225,-5.3225,-5.3225,-5.3225,-5.3225,-5.3225,-5.3225,-5.3225,-5.3225,-5.3225,-5.2968,-5.2674,-5.238,-5.161,-5.0802,-4.9958,-4.9994,-4.9738,-4.9187,-4.9187,-4.8857,0.0,-4.7792,-4.8783,-4.9407,-4.7498,0.0,0.0,0.0,-4.1992,-4.2506,-4.2433,-4.2433,-4.2947,-4.3277,-4.3644,-4.4158,-4.4268,0.0,0.0,0.0,0.0,0.0,0.0,0.0,0.0,0.0,0.0,0.0,0.0,0.0,0.0,-6.2511,-6.2585,-6.3135,-6.2915,-6.2658,-6.2365,-6.2658,-6.2144,-6.086,-6.1887,-6.1667,-6.0419,-6.0603,-6.0419,0.0,0.0,0.0,0.0,-5.7997,-5.7997,-5.7997,-5.7997,-5.7997,-5.7997,-5.7997,-5.7997,-5.7997,-5.7997,-5.7997,-5.7997,-5.7997,-5.7776,-5.7519,-5.7299,-5.7189,-5.7152,-5.7446,-5.7189,-5.6675,-5.6161,-5.6638,-5.7042,-5.6235,-5.7042,-5.7923,-5.7593,-5.7776,-5.7997,-5.7997,-5.7116,-5.6271,-5.6088,-5.5794,-5.5427,-5.4913,-5.484,-5.484,-5.484,-5.3885,-5.3335,-5.3628,-5.3408,-5.3225,-5.3225,-5.3225,-5.3225,-5.3225,-5.3225,-5.3225,-5.3225,-5.2931,-5.2637,-5.2454,-5.1536,-5.0875,-5.0508,-5.0692,-5.0545,-5.0031,-4.9738,-4.9297,0.0,0.0,0.0,0.0,0.0,0.0,0.0,0.0,0.0,-4.1111,-4.1662,-4.2176,-4.2286,-4.291,-4.3424,-4.3571,0.0,0.0,0.0,0.0,0.0,0.0,0.0,0.0,0.0,0.0,0.0,0.0,0.0,0.0,0.0,-6.1961,-6.152,-6.152,-6.2254,-6.2291,-6.1594,-6.2291,-6.2254,-6.152,-6.152,-6.108,-6.0309,-5.9538,-5.9208,0.0,0.0,0.0,0.0,-5.7997,-5.7997,-5.7997,-5.7997,-5.7997,-5.7997,-5.7997,-5.796,-5.7923,-5.7923,-5.7886,-5.785,-5.7886,-5.7373,-5.6859,-5.7666,-5.6822,-5.5757,-5.6565,-5.6748,-5.6712,-5.6712,-5.7299,-5.774,-5.6969,-5.7409,-5.7776,-5.6969,-5.7409,-5.7886,-5.785,-5.6565,-5.5757,-5.6602,-5.5978,-5.5427,-5.55,-5.5464,-5.5427,-5.5427,-5.4106,-5.3482,-5.4216,-5.3665,-5.3225,-5.3225,-5.3225,-5.3225,-5.3225,-5.3225,-5.3225,-5.3225,-5.2491,-5.2454,-5.3188,-5.0875,-5.0472,-5.2087,-5.1206,-5.0802,-5.0765,-5.0031,-4.9591,-3.99,0.0,-4.1662,-4.2066,-4.1589,0.0,0.0,0.0,0.0,0.0,0.0,0.0,-4.2066,-4.2433,0.0,0.0,0.0,0.0,0.0,0.0,0.0,0.0,0.0,0.0,0.0,0.0,0.0,0.0,0.0,0.0,0.0,-6.1117,-6.0676,-6.0676,-6.086,-6.119,-6.1594,-6.119,-6.086,-6.0676,-6.0676,-6.0272,-5.9501,-5.9318,-5.9208,0.0,0.0,0.0,-5.7997,-5.7997,-5.7997,-5.7997,-5.7997,-5.7997,-5.7997,-5.7997,-5.7593,-5.7079,-5.7079,-5.6675,-5.6271,-5.6895,-5.6528,-5.6014,-5.6859,-5.6381,-5.5757,-5.6565,-5.6345,-5.5868,-5.5868,-5.6492,-5.7042,-5.6859,-5.7409,-5.7776,-5.6969,-5.6969,-5.6895,-5.6271,-5.5354,-5.495,-5.5721,-5.4693,-5.3959,-5.4583,-5.4179,-5.3775,-5.3775,-5.3445,-5.3298,-5.3482,-5.3335,-5.3225,-5.3225,-5.3225,-5.3225,-5.3225,-5.3225,-5.3225,-5.3225,-5.3041,-5.3004,-5.3225,-5.1426,-5.1316,-5.2931,-5.1499,-5.0802,-5.0802,-5.0618,-4.9848,-3.8689,-3.9019,-3.9423,-3.979,-3.9606,-3.957,0.0,0.0,0.0,0.0,0.0,0.0,0.0,0.0,0.0,0.0,0.0,0.0,0.0,0.0,0.0,0.0,0.0,0.0,0.0,0.0,0.0,0.0,0.0,0.0,0.0,-6.0309,-5.9869,-5.9869,-5.9501,-5.9685,-6.0493,-6.0419,-6.0236,-5.9869,-5.9869,-5.9428,-5.8657,-5.8657,-5.8657,0.0,0.0,0.0,-5.7997,-5.7997,-5.7997,-5.7997,-5.7997,-5.7997,-5.7997,-5.7997,-5.7483,-5.6822,-5.6822,-5.6054,-5.5275,-5.6041,-5.5305,-5.4267,-5.5424,-5.4737,-5.3784,-5.4901,-5.4875,-5.4464,-5.4182,-5.4918,-5.5713,-5.5352,-5.6111,-5.6653,-5.5496,-5.5822,-5.6161,-5.5775,-5.502,-5.4921,-5.6447,-5.5354,-5.4436,-5.4876,-5.4583,-5.4179,-5.3812,-5.3445,-5.3335,-5.3702,-5.3445,-5.3225,-5.3225,-5.3225,-5.3225,-5.3225,-5.3225,-5.3225,-5.3225,-5.3225,-5.3041,-5.2674,-5.216,-5.216,-5.2637,-5.216,-5.1903,-5.1903,-5.1536,-5.0875,-3.8689,-3.8799,-3.9019,-3.957,-3.9203,-3.8872,0.0,0.0,0.0,0.0,0.0,0.0,0.0,0.0,0.0,0.0,0.0,0.0,0.0,0.0,0.0,0.0,0.0,0.0,0.0,0.0,0.0,0.0,0.0,0.0,0.0,-5.9465,-5.9098,-5.9208,-5.8437,-5.8327,-5.9024,-5.9685,-5.9758,-5.9208,-5.9098,-5.8657,-5.7997,-5.7997,-5.7997,-5.7997,0.0,0.0,-5.7997,-5.7997,-5.7997,-5.7997,-5.7997,-5.7997,-5.7997,-5.7997,-5.7483,-5.6785,-5.6401,-5.54,-5.4345,-5.5101,-5.406,-5.2732,-5.4044,-5.2981,-5.1473,-5.2516,-5.2965,-5.3059,-5.2555,-5.3548,-5.4469,-5.3883,-5.4768,-5.5334,-5.3883,-5.4575,-5.5489,-5.5418,-5.4809,-5.5003,-5.7244,-5.6381,-5.55,-5.5757,-5.5574,-5.517,-5.4473,-5.3702,-5.3482,-5.4142,-5.3628,-5.3225,-5.3225,-5.3225,-5.3225,-5.3225,-5.3225,-5.3225,-5.3225,-5.3225,-5.2894,-5.2197,-5.2747,-5.2747,-5.216,-5.2747,-5.3041,-5.3004,-5.2307,-5.194,-3.8689,-3.9203,-3.957,-3.9019,-3.8799,-3.8726,0.0,0.0,0.0,0.0,0.0,0.0,0.0,0.0,0.0,0.0,0.0,0.0,0.0,0.0,0.0,0.0,0.0,0.0,0.0,0.0,0.0,0.0,0.0,0.0,0.0,-5.8621,-5.851,-5.9208,-5.8437,-5.807,-5.818,-5.8327,-5.8657,-5.9208,-5.851,-5.8107,-5.7997,-5.7997,-5.7997,-5.7997,0.0,-5.7997,-5.7997,-5.7997,-5.7997,-5.7997,-5.7997,-5.7997,-5.7997,-5.7997,-5.7483,-5.6511,-5.4553,-5.3261,-5.2679,-5.3478,-5.3531,-5.3281,-5.3493,-5.2891,-5.1918,-5.0815,-5.1457,-5.2555,-5.3122,-5.3937,-5.4752,-5.5228,-5.5547,-5.5476,-5.4535,-5.4527,-5.4489,-5.376,-5.3463,-5.3939,-5.5684,-5.5207,-5.506,-5.6418,-5.5464,-5.4546,-5.4436,-5.3702,-5.3261,-5.3371,-5.3298,-5.3225,-5.3225,-5.3225,-5.3225,-5.3225,-5.3225,-5.3225,-5.3225,-5.3225,-5.3151,-5.3041,-5.2454,-5.2454,-5.3004,-5.2454,-5.216,-5.216,-5.205,-5.1646,-3.8689,-3.8982,-3.9276,-3.9313,-3.935,-3.9239,-3.8799,0.0,0.0,0.0,0.0,0.0,0.0,0.0,0.0,0.0,0.0,0.0,0.0,0.0,0.0,0.0,0.0,0.0,0.0,0.0,0.0,0.0,0.0,0.0,0.0,0.0,-5.818,-5.8547,-5.818,-5.7997,-5.7997,-5.7997,-5.818,-5.8547,-5.818,-5.7997,-5.7997,-5.7997,-5.7997,-5.7997,0.0,-5.7997,-5.7997,-5.7997,-5.7997,-5.796,-5.7519,-5.7336,-5.7253,-5.6416,-5.5873,-5.5352,-5.3405,-5.2254,-5.1829,-5.2564,-5.2521,-5.22,-5.22,-5.1958,-5.1484,-5.0403,-5.0876,-5.1703,-5.1592,-5.2502,-5.3437,-5.3818,-5.4171,-5.4275,-5.3479,-5.3619,-5.3859,-5.345,-5.3314,-5.3917,-5.597,-5.5606,-5.5464,-5.6638,-5.6161,-5.539,-5.4509,-5.4069,-5.3702,-5.3261,-5.3225,-5.3225,-5.3225,-5.3225,-5.3225,-5.3225,-5.3225,-5.3225,-5.3225,-5.3225,-5.3225,-5.3225,-5.2858,-5.2821,-5.3225,-5.2821,-5.2417,-5.2013,-5.2454,-5.2234,-3.8689,-3.8836,-3.9093,-3.9496,0.0,-3.9606,-3.957,0.0,0.0,0.0,0.0,0.0,0.0,0.0,0.0,0.0,0.0,0.0,0.0,0.0,0.0,0.0,0.0,0.0,0.0,0.0,0.0,0.0,0.0,0.0,0.0,0.0,-5.7997,-5.7997,-5.7997,-5.7997,-5.7997,-5.7997,-5.7997,-5.7997,-5.7997,-5.7997,-5.7997,-5.7997,-5.7904,-5.7726,-5.7726,-5.7679,-5.7462,-5.7462,-5.7485,-5.7397,-5.6776,-5.652,-5.64,-5.5003,-5.4439,-5.4168,-5.2767,-5.1904,-5.1572,-5.2123,-5.193,-5.1488,-5.1488,-5.1352,-5.1048,-5.0521,-5.0925,-5.1348,-5.0764,-5.1319,-5.2097,-5.2266,-5.2906,-5.3275,-5.2728,-5.3062,-5.3518,-5.3714,-5.3676,-5.4224,-5.6269,-5.6223,-5.6161,-5.6969,-5.6748,-5.6088,-5.484,-5.4509,-5.4179,-5.3555,-5.3482,-5.3408,-5.3225,-5.3225,-5.3225,-5.3225,-5.3225,-5.3225,-5.3225,-5.3225,-5.3225,-5.3225,-5.3225,-5.3225,-5.3225,-5.3225,-5.2894,-5.227,-5.2711,-5.2711,-3.8689,-3.9239,-3.9643,-3.8946,0.0,0.0,-4.1552,-4.1515,0.0,0.0,0.0,0.0,0.0,0.0,0.0,0.0,0.0,0.0,0.0,0.0,0.0,0.0,0.0,0.0,0.0,0.0,0.0,0.0,0.0,0.0,0.0,0.0,-5.7997,-5.7997,-5.7997,-5.7997,-5.7997,-5.7997,-5.7997,-5.7997,-5.7997,-5.7997,-5.7997,-5.7997,-5.7631,-5.6964,-5.6964,-5.6563,-5.5893,-5.5893,-5.5884,-5.5844,-5.5772,-5.5772,-5.5663,-5.4905,-5.4189,-5.347,-5.2671,-5.231,-5.2196,-5.2264,-5.2298,-5.2232,-5.2232,-5.1758,-5.1176,-5.1158,-5.1645,-5.2196,-5.2131,-5.1725,-5.1454,-5.2131,-5.2882,-5.3445,-5.3437,-5.3323,-5.3556,-5.4282,-5.442,-5.472,-5.5649,-5.6296,-5.7005,-5.7776,-5.6638,-5.5647,-5.5537,-5.484,-5.4363,-5.4326,-5.4326,-5.3995,-5.3261,-5.3225,-5.3225,-5.3225,-5.3225,-5.3225,-5.3225,-5.3225,-5.3225,-5.3225,-5.3225,-5.3225,-5.3225,-5.3225,-5.3188,-5.3115,-5.2417,-5.2454,-3.8689,-3.9276,-3.9827,-3.9533,0.0,0.0,0.0,0.0,0.0,0.0,0.0,0.0,0.0,0.0,0.0,0.0,0.0,0.0,0.0,0.0,0.0,0.0,0.0,0.0,0.0,0.0,0.0,0.0,0.0,0.0,0.0,0.0,-5.7997,-5.7997,-5.7997,-5.7997,-5.7997,-5.7997,-5.7997,-5.7997,-5.7997,-5.7997,-5.7997,-5.7997,-5.7821,-5.7546,-5.7546,-5.711,-5.6441,-5.6912,-5.6552,-5.5541,-5.4617,-5.3922,-5.3547,-5.3243,-5.3019,-5.2805,-5.2461,-5.2289,-5.23,-5.23,-5.2638,-5.2942,-5.2469,-5.2388,-5.2482,-5.1993,-5.177,-5.1733,-5.218,-5.2452,-5.2706,-5.2976,-5.3597,-5.3867,-5.2917,-5.3425,-5.3979,-5.3929,-5.4207,-5.4914,-5.6227,-5.666,-5.7079,-5.7886,-5.7483,-5.6895,-5.6418,-5.5647,-5.5133,-5.5133,-5.4693,-5.4069,-5.3298,-5.3225,-5.3225,-5.3225,-5.3225,-5.3225,-5.3225,-5.3225,-5.3225,-5.3225,-5.3225,-5.3225,-5.3225,-5.3225,-5.2931,-5.2454,-5.2123,-5.216,-3.8322,-3.8542,-3.8872,0.0,0.0,0.0,0.0,0.0,0.0,0.0,0.0,0.0,0.0,0.0,0.0,0.0,0.0,0.0,0.0,0.0,0.0,0.0,0.0,0.0,0.0,0.0,0.0,0.0,0.0,0.0,0.0,0.0,-5.7364,-5.7631,-5.7679,-5.7664,-5.7629,-5.7629,-5.7629,-5.7629,-5.7629,-5.774,-5.7997,-5.774,-5.7501,-5.7277,-5.7021,-5.6441,-5.5741,-5.6285,-5.5704,-5.4433,-5.3135,-5.2355,-5.1946,-5.1662,-5.1726,-5.2001,-5.1953,-5.1961,-5.2029,-5.2536,-5.2875,-5.3078,-5.2773,-5.2861,-5.2957,-5.2442,-5.1795,-5.1305,-5.1785,-5.2227,-5.2536,-5.301,-5.3494,-5.3679,-5.2791,-5.3262,-5.3844,-5.3787,-5.4029,-5.4553,-5.5923,-5.6296,-5.6675,-5.7483,-5.7409,-5.7042,-5.6492,-5.5941,-5.55,-5.5244,-5.473,-5.4069,-5.3298,-5.3225,-5.3225,-5.3225,-5.3225,-5.3225,-5.3225,-5.3225,-5.3225,-5.3225,-5.3225,-5.3225,-5.3225,-5.3225,-5.2931,-5.238,-5.2123,-5.1977,-3.7507,-3.6927,-3.6707,0.0,0.0,0.0,0.0,0.0,0.0,0.0,0.0,0.0,0.0,0.0,0.0,0.0,0.0,0.0,0.0,0.0,0.0,0.0,0.0,0.0,0.0,0.0,0.0,0.0,0.0,0.0,0.0,-5.5724,-5.6059,-5.6861,-5.6912,-5.6853,-5.6822,-5.6785,-5.6785,-5.6785,-5.6785,-5.7226,-5.796,-5.7189,-5.6426,-5.5685,-5.4891,-5.4041,-5.3333,-5.3333,-5.2873,-5.213,-5.1405,-5.1099,-5.1049,-5.0253,-5.054,-5.1217,-5.1217,-5.1217,-5.1454,-5.2976,-5.2942,-5.2435,-5.3247,-5.2909,-5.2292,-5.2321,-5.1747,-5.1206,-5.1183,-5.0651,-5.0439,-5.1961,-5.2295,-5.2497,-5.3223,-5.2809,-5.2752,-5.4194,-5.3901,-5.3602,-5.4381,-5.513,-5.5868,-5.6675,-5.6124,-5.5611,-5.5574,-5.5574,-5.528,-5.4473,-5.4399,-5.4069,-5.3298,-5.3225,-5.3225,-5.3225,-5.3225,-5.3225,-5.3225,-5.3225,-5.3225,-5.3225,-5.3225,-5.3225,-5.3225,-5.3225,-5.3225,-5.3188,-5.238,-5.1977,-3.8322,-3.8579,0.0,0.0,0.0,0.0,0.0,0.0,0.0,0.0,0.0,0.0,0.0,0.0,0.0,0.0,0.0,0.0,0.0,0.0,0.0,0.0,0.0,0.0,0.0,0.0,0.0,0.0,0.0,0.0,0.0,-5.5724,-5.6059,-5.6861,-5.6371,-5.6273,-5.6822,-5.6235,-5.5941,-5.5941,-5.5941,-5.6675,-5.796,-5.7189,-5.6694,-5.6437,-5.5633,-5.4848,-5.3997,-5.2906,-5.2128,-5.1507,-5.0649,-5.0092,-4.9691,-4.9964,-5.0187,-5.0507,-5.1048,-5.1217,-5.1285,-5.1758,-5.1725,-5.1589,-5.1826,-5.1702,-5.1615,-5.2131,-5.1381,-5.0582,-5.1706,-5.1035,-5.0403,-5.1922,-5.2358,-5.2438,-5.2614,-5.2799,-5.3146,-5.358,-5.3892,-5.4345,-5.5113,-5.5916,-5.6345,-5.6014,-5.6235,-5.6051,-5.4913,-5.5244,-5.506,-5.3702,-5.4069,-5.4069,-5.3298,-5.3225,-5.3225,-5.3225,-5.3225,-5.3225,-5.3225,-5.3225,-5.3225,-5.3225,-5.3225,-5.3225,-5.3225,-5.3225,-5.3225,-5.3188,-5.238,-5.2307,-3.7734,0.0,0.0,0.0,0.0,0.0,0.0,0.0,0.0,0.0,0.0,0.0,0.0,0.0,0.0,0.0,0.0,0.0,0.0,0.0,0.0,0.0,0.0,0.0,0.0,0.0,0.0,0.0,0.0,0.0,0.0,-5.3878,-5.4407,-5.5489,-5.5023,-5.5121,-5.5868,-5.5354,-5.5097,-5.5097,-5.5097,-5.5623,-5.6645,-5.6108,-5.5697,-5.5358,-5.4288,-5.3541,-5.2976,-5.1808,-5.1105,-5.0691,-4.9894,-4.9376,-4.9052,-4.9492,-4.9661,-4.9763,-5.0507,-5.0574,-5.0439,-5.1014,-5.1014,-5.0845,-5.1116,-5.0992,-5.0909,-5.1665,-5.0807,-4.988,-5.1115,-5.0532,-5.0001,-5.1515,-5.2096,-5.2298,-5.2241,-5.2573,-5.2916,-5.3225,-5.3372,-5.3734,-5.4503,-5.506,-5.5317,-5.5133,-5.5537,-5.55,-5.4509,-5.4546,-5.4289,-5.3298,-5.3628,-5.3739,-5.3261,-5.3225,-5.3225,-5.3225,-5.3225,-5.3225,-5.3225,-5.3225,-5.3225,-5.3225,-5.3225,-5.3225,-5.3225,-5.3225,-5.3225,-5.3188,-5.2711,-5.2564,0.0,0.0,0.0,0.0,0.0,0.0,0.0,0.0,0.0,0.0,0.0,0.0,0.0,0.0,0.0,0.0,0.0,0.0,0.0,0.0,0.0,0.0,0.0,0.0,0.0,0.0,0.0,0.0,0.0,0.0,0.0,-5.1346,-5.1993,-5.3441,-5.3424,-5.3728,-5.4399,-5.4326,-5.4289,0.0,-5.4246,-5.4264,-5.4363,-5.4346,-5.3854,-5.3026,-5.1678,-5.1034,-5.0929,-5.0279,-4.9976,-4.9861,-4.9256,-4.9018,-4.9018,-4.9018,-4.9018,-4.9086,-4.9763,-4.956,-4.9221,-5.0574,-5.0541,-5.0101,-5.0811,-5.0541,-5.0135,-5.0913,-5.0101,-4.9187,-4.9898,-4.9588,-4.9447,-5.0803,-5.1592,-5.2077,-5.2254,-5.2272,-5.2386,-5.3083,-5.2644,-5.2427,-5.3103,-5.3261,-5.3555,-5.4289,-5.4326,-5.4289,-5.4289,-5.3665,-5.3225,-5.3225,-5.3225,-5.3225,-5.3225,-5.3225,-5.3225,-5.3225,-5.3225,-5.3225,-5.3225,-5.3225,-5.3225,-5.3225,-5.3225,-5.3225,-5.3225,-5.3225,-5.3225,-5.3225,-5.3225,-5.2821,0.0,0.0,0.0,0.0,0.0,0.0,0.0,0.0,0.0,0.0,0.0,0.0,0.0,0.0,0.0,0.0,0.0,0.0,0.0,0.0,0.0,0.0,0.0,0.0,0.0,0.0,0.0,0.0,0.0,0.0,-5.2054,-5.2054,-5.2729,-5.4194,-5.3598,-5.3628,-5.4399,-5.3775,-5.3482,0.0,-5.2854,-5.2614,-5.2654,-5.323,-5.2798,-5.1541,-5.1209,-5.077,-5.0223,-5.009,-4.9664,-4.9195,-4.9046,-4.9018,-4.9018,-4.9018,-4.9018,-4.9018,-4.9187,-4.912,-4.9052,-4.939,-4.9357,-4.9255,-4.9424,-4.9357,-4.939,-5.0135,-4.9695,-4.9187,-4.9898,-4.9949,-4.9849,-5.0159,-5.0414,-5.092,-5.263,-5.2521,-5.2329,-5.3097,-5.306,-5.298,-5.3146,-5.3739,-5.4216,-5.4363,-5.3849,-5.3482,-5.3482,-5.3335,-5.3225,-5.3225,-5.3225,-5.3225,-5.3225,-5.3225,-5.3225,-5.3225,-5.3225,-5.3225,-5.3225,-5.3225,-5.3225,-5.3225,-5.3225,-5.3225,-5.3225,-5.3225,-5.3225,-5.3225,-5.3225,-5.3115,0.0,0.0,0.0,0.0,0.0,0.0,0.0,0.0,0.0,0.0,0.0,0.0,0.0,0.0,0.0,0.0,0.0,0.0,0.0,0.0,0.0,0.0,0.0,0.0,0.0,0.0,0.0,0.0,0.0,-4.9733,-5.0057,-5.008,-5.0714,-5.2162,-5.1777,-5.1919,-5.2674,-5.1944,-5.1559,-5.1559,-5.0901,-5.0388,-5.009,-5.1209,-5.1282,-5.0554,-5.0258,-4.9689,-4.9008,-4.9384,-4.9112,-4.8511,-4.8849,-4.9018,-4.9018,-4.9018,-4.9018,-4.9018,-4.9018,-4.9018,-4.9018,-4.9018,-4.9018,-4.9018,-4.9018,-4.9018,-4.9154,-4.9898,-4.956,-4.9187,-4.9898,-4.9801,-4.9664,-5.0335,-5.077,-5.1312,-5.2426,-5.2671,-5.2725,-5.3103,-5.3225,-5.3225,-5.3225,-5.3555,-5.3849,-5.3849,-5.3482,-5.3225,-5.3225,-5.3225,-5.3225,-5.3225,-5.3225,-5.3225,-5.3225,-5.3225,-5.3225,-5.3225,-5.3225,-5.3225,-5.3225,-5.3225,-5.3225,-5.3225,-5.3225,-5.3225,-5.3225,-5.3225,-5.3225,-5.3225,-5.3225,-5.3225,0.0,0.0,0.0,0.0,0.0,0.0,0.0,0.0,0.0,0.0,0.0,0.0,0.0,0.0,0.0,0.0,0.0,0.0,0.0,0.0,0.0,0.0,0.0,0.0,0.0,0.0,0.0,0.0,0.0,-4.8003,-4.7889,-4.7854,-4.8397,-4.9503,-4.9549,-4.9856,-5.0441,-4.9901,-4.964,-4.964,-4.903,-4.8329,-4.7651,-4.8872,-4.9493,-4.9631,-4.9086,-4.8545,-4.8139,-4.8612,-4.8545,-4.8173,-4.8781,-4.9018,-4.9018,-4.9018,-4.9018,-4.9018,-4.9018,-4.9018,-4.9018,-4.9018,-4.9018,-4.9018,-4.9018,-4.9018,-4.912,-4.9882,-4.961,-4.9365,-5.0066,-4.982,-4.9698,-5.0981,-5.1692,-5.2112,-5.2289,-5.2769,-5.3225,-5.3225,-5.3225,-5.3225,-5.3225,-5.3225,-5.3225,-5.3225,-5.3225,-5.3225,-5.3225,-5.3225,-5.3225,-5.3225,-5.3225,-5.3225,-5.3225,-5.3225,-5.3225,-5.3225,-5.3225,-5.3225,-5.3225,-5.3225,-5.3225,-5.3225,-5.3225,-5.3225,-5.3225,-5.3225,-5.3225,-5.3225,-5.3078,-5.3078,0.0,0.0,0.0,0.0,0.0,0.0,0.0,0.0,0.0,0.0,0.0,0.0,0.0,0.0,0.0,0.0,0.0,0.0,0.0,0.0,0.0,0.0,0.0,0.0,0.0,0.0,0.0,0.0,-4.826,-4.8639,-4.8635,-4.8635,-4.8785,-4.8981,-4.903,-4.903,-4.9126,-4.9078,-4.903,-4.903,-4.8277,-4.7562,-4.6961,-4.7165,-4.7607,-4.8158,-4.8132,-4.8376,-4.8815,-4.8274,-4.8376,-4.8883,-4.8951,-4.9018,-4.9018,-4.9018,-4.9018,-4.9018,-4.9018,-4.9018,-4.9018,-4.9018,-4.9018,-4.9018,-4.9018,-4.9018,-4.9107,-4.9825,-4.9965,-5.0067,-5.0803,-5.0893,-5.1034,-5.179,-5.2065,-5.2289,-5.2937,-5.3103,-5.3225,-5.3225,-5.3225,-5.3225,-5.3225,-5.3225,-5.3225,-5.3225,-5.3225,-5.3225,-5.3225,-5.3225,-5.3225,-5.3225,-5.3225,-5.3225,-5.3225,-5.3225,-5.3225,-5.3225,-5.3225,-5.3225,-5.3225,-5.3225,-5.3225,-5.3225,-5.3225,-5.3225,-5.3225,-5.3225,-5.3225,-5.3188,-5.2491,-5.2527,0.0,0.0,0.0,0.0,0.0,0.0,0.0,0.0,0.0,0.0,0.0,0.0,0.0,0.0,0.0,0.0,0.0,0.0,0.0,0.0,0.0,0.0,0.0,0.0,0.0,0.0,0.0,0.0,-4.7049,-4.6987,-4.6838,-4.6885,-4.692,-4.685,-4.7275,-4.7523,-4.7523,-4.6759,-4.6199,-4.5823,-4.5986,-4.584,-4.5568,-4.6007,-4.6583,-4.7293,-4.7293,-4.7462,-4.7767,-4.7868,-4.8105,-4.8443,-4.8849,-4.9018,-4.9018,-4.9018,-4.9018,-4.9018,-4.9018,-4.9018,-4.9018,-4.9018,-4.9018,-4.9018,-4.9018,-4.9018,-4.9168,-4.9838,-4.9976,-5.0202,-5.0929,-5.1086,-5.1292,-5.197,-5.2112,-5.2289,-5.306,-5.2858,-5.2527,-5.2527,-5.2894,-5.3225,-5.3225,-5.3225,-5.3225,-5.3225,-5.3225,-5.3225,-5.3225,-5.2813,-5.2599,-5.2599,-5.2599,-5.2599,-5.2599,-5.2937,-5.3225,-5.3225,-5.3225,-5.3225,-5.3225,-5.3225,-5.3225,-5.3225,-5.2747,-5.2747,-5.3225,-5.2307,-5.2087,-5.2527,-5.1683,-5.1536,0.0,0.0,0.0,0.0,0.0,0.0,0.0,0.0,0.0,0.0,0.0,0.0,0.0,0.0,0.0,0.0,0.0,0.0,0.0,0.0,0.0,0.0,0.0,0.0,0.0,0.0,0.0,0.0,-4.5903,-4.5441,-4.5082,-4.4998,-4.4813,-4.4576,-4.5264,-4.5649,-4.5649,-4.4836,-4.4179,-4.3707,-4.4316,-4.4587,-4.4587,-4.5162,-4.5703,-4.6244,-4.6616,-4.6786,-4.6819,-4.7394,-4.7631,-4.7699,-4.824,-4.8545,-4.8714,-4.8714,-4.8849,-4.9018,-4.9018,-4.9018,-4.9018,-4.9018,-4.9018,-4.9018,-4.9018,-4.9107,-4.9436,-5.009,-5.039,-5.0716,-5.1444,-5.1629,-5.1777,-5.2289,-5.2236,-5.23,-5.3066,-5.2747,-5.2307,-5.2307,-5.2784,-5.3225,-5.3225,-5.3225,-5.3225,-5.3225,-5.306,-5.2937,-5.2937,-5.2289,-5.1922,-5.2065,-5.2112,-5.2159,-5.2381,-5.2893,-5.3225,-5.3225,-5.3225,-5.3225,-5.3225,-5.3225,-5.3225,-5.3225,-5.2197,-5.2087,-5.2894,-5.1499,-5.1096,-5.1683,-5.0875,-5.0729,0.0,0.0,0.0,0.0,0.0,0.0,0.0,0.0,0.0,0.0,0.0,0.0,0.0,0.0,0.0,0.0,0.0,0.0,0.0,0.0,0.0,0.0,0.0,0.0,0.0,0.0,0.0,0.0,-4.5383,-4.507,-4.4501,-4.3776,-4.3097,-4.2479,-4.3172,-4.3579,-4.3579,-4.4202,-4.4575,-4.4519,-4.4553,-4.4587,-4.4587,-4.4621,-4.4654,-4.4756,-4.6177,-4.6786,-4.6786,-4.6819,-4.6853,-4.6853,-4.6887,-4.7327,-4.797,-4.797,-4.8409,-4.9018,-4.9018,-4.9018,-4.9018,-4.9018,-4.9018,-4.9018,-4.9018,-4.9462,-5.009,-5.0823,-5.1494,-5.2159,-5.2893,-5.3103,-5.3103,-5.3146,-5.2559,-5.2229,-5.3041,-5.3188,-5.3151,-5.3151,-5.3188,-5.3225,-5.3225,-5.3225,-5.3225,-5.3225,-5.2599,-5.2159,-5.2159,-5.1544,-5.1393,-5.2065,-5.2112,-5.2381,-5.3103,-5.3182,-5.3225,-5.3225,-5.3225,-5.3225,-5.3225,-5.3225,-5.3225,-5.3225,-5.1683,-5.1242,-5.205,-5.1206,-5.0839,-5.0839,-5.0031,-5.0472,0.0,0.0,0.0,0.0,0.0,0.0,0.0,0.0,0.0,0.0,0.0,0.0,0.0,0.0,0.0,0.0,0.0,0.0,0.0,0.0,0.0,0.0,0.0,0.0,0.0,0.0,0.0,0.0,0.0,-4.394,-4.3707,-4.3065,-4.2312,-4.161,-4.232,-4.2489,-4.2016,-4.2726,-4.2895,-4.2422,-4.2895,-4.3369,-4.3842,-4.3842,-4.4113,-4.4621,-4.5669,-4.6075,-4.6075,-4.6075,-4.638,-4.6786,-4.6786,-4.6955,-4.7259,-4.7733,-4.8071,-4.8376,-4.8849,-4.9018,-4.8917,-4.8477,-4.8612,-4.9006,-4.8939,-4.9079,-4.9597,-5.1251,-5.1527,-5.1637,-5.2871,-5.3225,-5.3225,-5.3225,-5.2601,-5.2113,-5.2417,-5.2455,-5.2417,-5.2417,-5.2858,-5.3225,-5.3225,-5.3225,-5.306,-5.2554,-5.2289,-5.1934,-5.1494,-5.1241,-5.1189,-5.1444,-5.1838,-5.2206,-5.2472,-5.2937,-5.3225,-5.3225,-5.3225,-5.3225,-5.3225,-5.3225,-5.3225,-5.3225,-5.161,-5.1206,-5.1977,-5.0105,-4.9481,-4.9994,-4.915,-4.9077,-3.6265,0.0,0.0,0.0,0.0,0.0,0.0,0.0,0.0,0.0,0.0,0.0,0.0,0.0,0.0,0.0,0.0,0.0,0.0,0.0,0.0,0.0,0.0,0.0,0.0,0.0,0.0,0.0,0.0,0.0,-4.2634,-4.1937,-4.1441,-4.1204,-4.1677,-4.1813,-4.1576,-4.2049,-4.2049,-4.1576,-4.2049,-4.2557,-4.3031,-4.3031,-4.3335,-4.3842,-4.4621,-4.5094,-4.5365,-4.5602,-4.5838,-4.6041,-4.6041,-4.621,-4.6515,-4.7259,-4.753,-4.7665,-4.868,-4.868,-4.824,-4.8003,-4.8218,-4.8582,-4.8515,-4.88,-4.9431,-5.0856,-5.1276,-5.15,-5.2553,-5.2797,-5.2696,-5.2182,-5.1665,-5.1249,-5.1012,-5.1321,-5.1682,-5.1974,-5.2448,-5.2893,-5.3146,-5.298,-5.2644,-5.2159,-5.1692,-5.1343,-5.1138,-5.0876,-5.0929,-5.1393,-5.1838,-5.2206,-5.2427,-5.2937,-5.3225,-5.3225,-5.3225,-5.3225,-5.3225,-5.3225,-5.3225,-5.3225,-5.161,-5.1059,-5.1573,-4.937,-4.86,-4.915,-4.8563,-4.86,0.0,0.0,0.0,0.0,0.0,0.0,0.0,0.0,0.0,0.0,0.0,0.0,0.0,0.0,0.0,0.0,0.0,0.0,0.0,0.0,0.0,0.0,0.0,0.0,0.0,0.0,0.0,0.0,-4.161,-4.1204,-4.1204,-4.0493,-4.0426,-4.1136,-4.117,-4.1508,-4.2219,-4.2219,-4.2219,-4.2219,-4.2219,-4.2252,-4.2252,-4.2252,-4.2286,-4.232,-4.3064,-4.3809,-4.4587,-4.5365,-4.5229,-4.4587,-4.4587,-4.5026,-4.5771,-4.6481,-4.6752,-4.6955,-4.8443,-4.8003,-4.6921,-4.7631,-4.782,-4.7692,-4.7746,-4.8614,-4.9649,-4.9731,-5.0787,-5.194,-5.1977,-5.2017,-5.1706,-5.0267,-4.9902,-4.969,-4.8997,-4.9913,-5.1092,-5.1932,-5.2112,-5.2335,-5.306,-5.2599,-5.2112,-5.2112,-5.0929,-5.0279,-5.0981,-5.05,-5.0608,-5.1934,-5.2112,-5.2427,-5.3146,-5.3225,-5.3225,-5.3225,-5.3225,-5.3225,-5.3225,-5.3225,-5.3188,-5.3188,-5.161,-5.0802,-5.0765,-4.9114,-4.8306,-4.8306,-4.8306,-4.9187,-3.5622,0.0,0.0,0.0,0.0,0.0,0.0,0.0,0.0,0.0,0.0,0.0,0.0,0.0,0.0,0.0,0.0,0.0,0.0,0.0,0.0,0.0,0.0,0.0,0.0,0.0,0.0,0.0,-4.161,-4.1204,-4.1204,-4.0493,-4.0155,-4.0392,-4.0392,-4.0493,-4.0696,-4.0696,-4.0696,-4.0696,-4.0696,-4.0967,-4.1508,-4.1508,-4.1779,-4.2286,-4.2523,-4.2726,-4.3031,-4.435,-4.4756,-4.4587,-4.4587,-4.4688,-4.4993,-4.5737,-4.6007,-4.6143,-4.709,-4.7124,-4.6835,-4.694,-4.7286,-4.775,-4.821,-4.8586,-4.9089,-5.0174,-5.0387,-5.0428,-5.1027,-5.1311,-5.1272,-5.089,-5.0291,-4.9818,-4.9691,-4.9536,-4.9748,-5.1034,-5.1715,-5.2335,-5.306,-5.2599,-5.2112,-5.2112,-5.1343,-5.0876,-5.1086,-5.1343,-5.1692,-5.2065,-5.2554,-5.298,-5.3146,-5.3225,-5.3225,-5.3225,-5.3225,-5.3225,-5.3225,-5.3225,-5.2931,-5.2344,-5.1316,-5.0508,-4.9848,-4.882,-4.8306,-4.8306,-4.8306,-4.8563,-3.5622,-3.5622,0.0,0.0,0.0,0.0,-3.4573,-3.5081,0.0,0.0,0.0,0.0,0.0,0.0,0.0,0.0,0.0,0.0,0.0,0.0,0.0,0.0,0.0,0.0,0.0,-4.073,-4.0899,-4.1339,-4.0967,-4.073,-4.073,-4.0324,-4.0087,-4.0087,-4.0087,-3.9952,-3.961,-3.961,-3.9454,-3.9156,-3.9454,-3.9845,-4.0247,-4.0627,-4.0967,-4.1373,-4.1711,-4.1847,-4.1914,-4.3132,-4.3809,-4.4113,-4.4451,-4.4587,-4.4688,-4.5432,-4.55,-4.5399,-4.6413,-4.638,-4.5896,-4.6144,-4.6688,-4.7226,-4.7593,-4.8027,-4.8598,-4.9511,-4.9724,-4.9713,-4.9995,-5.0329,-5.0554,-5.0314,-4.9889,-4.9444,-4.9182,-4.8998,-4.9205,-5.0378,-5.1173,-5.1922,-5.2599,-5.2381,-5.2112,-5.2112,-5.1544,-5.1189,-5.1494,-5.1838,-5.2206,-5.2554,-5.2645,-5.2858,-5.3188,-5.2894,-5.2858,-5.3188,-5.3225,-5.3225,-5.3225,-5.3225,-5.2821,-5.2013,-5.1206,-5.0215,-4.9003,-4.8526,-4.8306,-4.8306,-4.8306,-4.8489,-3.5622,-3.5622,-3.5791,-3.6468,0.0,0.0,-3.4675,-3.5081,-3.5419,0.0,0.0,0.0,0.0,0.0,0.0,0.0,0.0,0.0,0.0,0.0,0.0,0.0,0.0,0.0,-4.0087,-4.0087,-4.0087,-4.0087,-4.0087,-4.0087,-4.0087,-4.0087,-4.0087,-4.0087,-4.0003,-3.961,-3.8908,-3.8799,-3.8469,-3.7822,-3.8525,-3.8908,-3.8908,-3.9714,-4.0087,-4.0121,-4.0798,-4.1068,-4.1136,-4.188,-4.2625,-4.3369,-4.4147,-4.4451,-4.4553,-4.5297,-4.5162,-4.4756,-4.6075,-4.5635,-4.4553,-4.5343,-4.5823,-4.62,-4.6318,-4.7198,-4.8043,-4.8078,-4.8756,-4.9365,-4.887,-4.9353,-4.9722,-4.9168,-4.9018,-4.8815,-4.8293,-4.8633,-4.9316,-4.9976,-5.0662,-5.1343,-5.2112,-5.2159,-5.2112,-5.2206,-5.1643,-5.1444,-5.2112,-5.2206,-5.2472,-5.3103,-5.2491,-5.227,-5.3004,-5.2417,-5.2307,-5.3041,-5.3151,-5.3225,-5.3225,-5.3115,-5.2711,-5.1867,-5.0986,-4.9848,-4.8453,-4.8343,-4.8306,-4.8306,-4.8306,-4.871,0.0,0.0,0.0,0.0,0.0,0.0,-3.4675,-3.5081,-3.5419,0.0,0.0,0.0,0.0,0.0,0.0,0.0,0.0,0.0,0.0,0.0,0.0,0.0,0.0,0.0,-4.0087,-4.0087,-4.0087,-4.0087,-4.0087,-4.0087,-4.0087,-4.0087,-4.0087,-4.0087,-3.9473,-3.9069,-3.8908,-3.8302,-3.7937,-3.7822,-3.8525,-3.8908,-3.8908,-3.9714,-4.0087,-4.0087,-4.0223,-4.029,-4.0358,-4.1102,-4.1847,-4.2591,-4.3335,-4.3639,-4.3741,-4.4519,-4.4688,-4.4621,-4.4925,-4.4418,-4.3783,-4.4439,-4.4628,-4.4769,-4.5975,-4.6446,-4.6633,-4.6731,-4.74,-4.8049,-4.7954,-4.8552,-4.9168,-4.9046,-4.9018,-4.9135,-4.9492,-4.9735,-5.0033,-5.0716,-5.0981,-5.1494,-5.2769,-5.2472,-5.2289,-5.2893,-5.2381,-5.2196,-5.2893,-5.298,-5.306,-5.3146,-5.2491,-5.205,-5.2197,-5.2087,-5.205,-5.2197,-5.2858,-5.3225,-5.3225,-5.2564,-5.1867,-5.1059,-4.9554,-4.8967,-4.9334,-4.8636,-4.8306,-4.8306,-4.8306,-4.8379,0.0,0.0,0.0,-3.6096,0.0,0.0,0.0,-3.5656,-3.5893,0.0,0.0,0.0,0.0,0.0,0.0,0.0,0.0,0.0,0.0,0.0,0.0,0.0,0.0,0.0,-3.9005,-3.9005,-3.914,-3.9512,-3.9546,-3.9546,-3.9546,-3.9174,-3.9005,-3.9005,-3.8589,-3.8365,-3.8381,-3.8003,-3.781,-3.7822,-3.8525,-3.8908,-3.8908,-3.9714,-4.0087,-4.0087,-4.0087,-4.0087,-4.0121,-4.0493,-4.0865,-4.1305,-4.2422,-4.2861,-4.2895,-4.3301,-4.3436,-4.3436,-4.3436,-4.32,-4.2915,-4.3218,-4.3796,-4.4413,-4.5128,-4.5792,-4.6274,-4.6007,-4.6551,-4.7188,-4.7215,-4.786,-4.8545,-4.8917,-4.9256,-4.9546,-4.9919,-5.0279,-5.0662,-5.1034,-5.1086,-5.1444,-5.2463,-5.2644,-5.2769,-5.3146,-5.2893,-5.2769,-5.3146,-5.3225,-5.3225,-5.3225,-5.2123,-5.1573,-5.1977,-5.1242,-5.1132,-5.194,-5.238,-5.2784,-5.3188,-5.2417,-5.1426,-5.0215,-4.937,-4.915,-4.9591,-4.9554,-4.9334,-4.893,-4.8489,-4.8306,0.0,0.0,0.0,0.0,0.0,-3.6975,0.0,0.0,0.0,0.0,0.0,0.0,0.0,0.0,0.0,0.0,0.0,0.0,0.0,0.0,0.0,0.0,0.0,0.0,0.0,-3.799,-3.8159,-3.8734,-3.8768,-3.8768,-3.8768,-3.8096,-3.7663,-3.7663,-3.7565,-3.7519,-3.7642,-3.7588,-3.7676,-3.7822,-3.8525,-3.8908,-3.8908,-3.9714,-4.0087,-4.0087,-4.0087,-4.0087,-4.0087,-4.0087,-4.0087,-4.0223,-4.1542,-4.2083,-4.2117,-4.2252,-4.2286,-4.2286,-4.2286,-4.2185,-4.2083,-4.2083,-4.3151,-4.4341,-4.4366,-4.532,-4.6222,-4.5494,-4.5872,-4.6467,-4.6758,-4.7361,-4.8105,-4.8999,-4.9639,-5.009,-5.0335,-5.0664,-5.0961,-5.1205,-5.1083,-5.1114,-5.179,-5.2509,-5.298,-5.298,-5.3103,-5.3225,-5.3225,-5.3225,-5.3225,-5.3225,-5.1756,-5.1059,-5.172,-5.0435,-5.0141,-5.1463,-5.1683,-5.205,-5.2711,-5.1977,-5.0839,-4.937,-4.9334,-4.9407,-4.9591,-5.0068,-5.0068,-4.9554,-4.8893,-4.8453,0.0,0.0,0.0,0.0,-3.7753,0.0,0.0,0.0,-3.755,-3.6705,0.0,0.0,0.0,0.0,0.0,0.0,0.0,0.0,0.0,0.0,0.0,0.0,0.0,0.0,0.0,-3.8294,-3.7922,-3.8024,-3.8024,-3.8024,-3.8024,-3.7319,-3.6886,-3.6886,-3.63,-3.6249,-3.6901,-3.6846,-3.7142,-3.7822,-3.8525,-3.8908,-3.8908,-3.9714,-4.0087,-4.0087,-4.0087,-4.0087,-4.0087,-4.0087,-4.0087,-4.0155,-4.1001,-4.1339,-4.1407,-4.2049,-4.2286,-4.2286,-4.2286,-4.188,-4.1339,-4.1339,-4.2624,-4.4258,-4.4327,-4.5271,-4.6161,-4.5035,-4.5207,-4.5953,-4.6641,-4.7361,-4.8252,-4.955,-4.9919,-5.0335,-5.1593,-5.0959,-5.0474,-5.173,-5.1008,-5.0358,-5.1083,-5.1777,-5.2206,-5.2206,-5.2769,-5.3225,-5.3225,-5.3225,-5.3225,-5.3225,-5.1756,-5.0839,-5.0949,-5.0105,-4.9664,-4.9848,-5.0545,-5.0986,-5.1059,-5.0288,-4.9407,-4.8489,-4.8453,-4.882,-4.9591,-4.893,-4.893,-4.9591,-4.9481,-4.904,0.0,0.0,0.0,0.0,0.0,0.0,-3.8193,0.0,-3.7686,0.0,0.0,0.0,0.0,0.0,0.0,0.0,-3.5622,0.0,0.0,0.0,0.0,0.0,0.0,0.0,0.0,0.0,0.0,0.0,-3.6332,-3.643,-3.5985,-3.5265,-3.4906,-3.4948,-3.5031,-3.5636,-3.6796,-3.7176,-3.7978,-3.9102,-3.9454,-3.961,-3.961,-3.9952,-4.0087,-4.0087,-4.0087,-4.0087,-4.0087,-4.0087,-4.0087,-4.0121,-4.0426,-4.0561,-4.0595,-4.0899,-4.1001,-4.1001,-4.1001,-4.0798,-4.0696,-4.1542,-4.2702,-4.379,-4.4318,-4.5096,-4.5699,-4.4852,-4.479,-4.5229,-4.5974,-4.6718,-4.7488,-4.8558,-4.9409,-5.0136,-5.077,-5.0688,-5.0566,-5.0805,-5.0382,-5.0095,-5.041,-5.1393,-5.2112,-5.2112,-5.2725,-5.3225,-5.3225,-5.2784,-5.2491,-5.2491,-5.1059,-5.0105,-5.0105,-4.9334,-4.904,-4.9554,-5.0362,-5.0582,-5.0105,-4.9774,-4.9187,-4.8343,-4.8783,-4.9224,-4.9591,-4.9701,-4.9701,-4.9591,-4.9077,-4.893,-3.8193,0.0,0.0,0.0,0.0,0.0,0.0,0.0,0.0,0.0,0.0,0.0,0.0,0.0,0.0,0.0,0.0,-3.5385,0.0,0.0,0.0,0.0,0.0,0.0,0.0,0.0,0.0,-3.4878,-3.4981,-3.4843,-3.4343,-3.3469,-3.3062,-3.3308,-3.4165,-3.5233,-3.6495,-3.7635,-3.8836,-4.0087,-4.0087,-4.0087,-4.0087,-4.0087,-4.0087,-4.0087,-4.0087,-4.0087,-4.0087,-4.0087,-4.0087,-4.0087,-4.0087,-4.0087,-4.0087,-4.0087,-4.0087,-4.0087,-4.0087,-4.0223,-4.0595,-4.188,-4.2912,-4.3696,-4.4368,-4.5035,-4.5372,-4.4776,-4.4587,-4.479,-4.5771,-4.6244,-4.6777,-4.7928,-4.8916,-4.9674,-4.989,-5.0289,-5.0462,-5.0031,-4.9761,-4.9756,-4.9966,-5.0996,-5.1922,-5.2065,-5.2543,-5.2858,-5.2858,-5.216,-5.1683,-5.1683,-5.0435,-4.9591,-4.9591,-4.8783,-4.8563,-4.9187,-4.9774,-4.9958,-4.9591,-4.937,-4.904,-4.8673,-4.904,-4.9224,-4.9224,-4.9811,-4.9921,-4.9554,-4.893,-4.8857,0.0,0.0,0.0,-3.9174,0.0,0.0,0.0,0.0,-3.8768,0.0,0.0,0.0,0.0,0.0,0.0,-3.5622,0.0,0.0,0.0,0.0,0.0,0.0,0.0,0.0,0.0,0.0,0.0,-3.5656,-3.4384,-3.3631,-3.3571,-3.2323,-3.1942,-3.2625,-3.3953,-3.5048,-3.5841,-3.7936,-3.9343,-4.0087,-4.0087,-4.0087,-4.0087,-4.0087,-4.0087,-4.0087,-4.0087,-4.0087,-4.0087,-4.0087,-4.0087,-4.0087,-4.0087,-4.0087,-4.0087,-4.0087,-4.0087,-4.0087,-4.0087,-4.0561,-4.1305,-4.2049,-4.3254,-4.4388,-4.4538,-4.5035,-4.5372,-4.4776,-4.4587,-4.4925,-4.638,-4.6244,-4.6248,-4.8377,-4.8837,-4.9017,-4.9667,-4.9803,-4.9803,-4.9712,-4.9246,-4.9053,-4.9796,-5.059,-5.1343,-5.2018,-5.2032,-5.205,-5.205,-5.1353,-5.0839,-5.0839,-5.0105,-4.9591,-4.9591,-4.8783,-4.8306,-4.8343,-4.8379,-4.8746,-4.9554,-4.8783,-4.871,-4.9517,-4.8746,-4.8343,-4.8343,-4.8379,-4.8783,-4.9591,-4.9481,-4.904,0.0,0.0,-4.002,-3.9783,0.0,0.0,0.0,0.0,0.0,0.0,0.0,0.0,0.0,0.0,-3.5622,-3.5622,-3.5419,0.0,0.0,0.0,0.0,0.0,0.0,0.0,0.0,0.0,0.0,-3.3491,-3.265,-3.1954,-3.1496,-3.1074,-3.0997,-3.1182,-3.3024,-3.4354,-3.5059,-3.7186,-3.8633,-3.9377,-3.9851,-4.0087,-4.0087,-4.0087,-4.0087,-4.0087,-4.0087,-4.0087,-4.0087,-4.0087,-4.0087,-4.0087,-4.0087,-4.0087,-4.0087,-4.0087,-4.0087,-4.0087,-4.0087,-4.0561,-4.1339,-4.2049,-4.3254,-4.4422,-4.4538,-4.5035,-4.5372,-4.4776,-4.4587,-4.4688,-4.5196,-4.55,-4.5862,-4.6624,-4.7439,-4.8049,-4.8342,-4.9091,-4.9739,-4.9804,-4.9664,-4.9735,-5.0426,-5.0378,-5.0605,-5.1885,-5.2032,-5.1977,-5.1977,-5.0802,-4.9994,-4.9994,-4.926,-4.8746,-4.8746,-4.8489,-4.8306,-4.8306,-4.8306,-4.8416,-4.871,-4.9003,-4.9003,-4.8746,-4.9003,-4.8893,-4.8306,-4.8306,-4.8453,-4.8746,-4.871,-4.8857,-3.9648,-3.9884,0.0,-4.0087,-3.9715,0.0,-3.9039,0.0,0.0,0.0,0.0,0.0,0.0,0.0,0.0,-3.5994,-3.5588,-3.4709,0.0,-3.3694,0.0,0.0,0.0,0.0,0.0,0.0,-3.4404,-3.3152,-3.1835,-3.1018,0.0,0.0,-3.0357,-3.0851,-3.2648,-3.3964,-3.4707,-3.6853,-3.8154,-3.8589,-3.9327,-3.9558,-3.9295,-3.9295,-3.9454,-3.9662,-3.9662,-3.985,-4.0087,-4.0087,-4.0087,-4.0087,-4.0087,-4.0087,-4.0087,-4.0087,-4.0087,-4.0121,-4.0392,-4.0967,-4.1711,-4.2455,-4.3488,-4.449,-4.4584,-4.4852,-4.5157,-4.506,-4.479,-4.4688,-4.5229,-4.5331,-4.5422,-4.5908,-4.6587,-4.7236,-4.7533,-4.8672,-4.9619,-4.9395,-4.959,-4.9909,-5.0351,-5.0003,-5.0112,-5.1456,-5.1323,-5.1132,-5.1132,-4.9958,-4.9114,-4.9114,-4.8636,-4.8306,-4.8306,-4.8306,-4.8306,-4.8306,-4.8306,-4.8453,-4.8746,-4.9297,-4.9591,-4.9627,-4.9591,-4.9444,-4.9187,-4.86,-4.8306,-4.8306,-4.8306,-4.86]}]]